GFSSGP_925_spd_000.txt.gz
Wind_Speed
17 15 12 6 1 4 8 10 6 5 4 5 6 4 2 8 4 0 12 7 11 17 16 15 17 15 14 12 10 9 8 6 5 4 4 5 5 4 4 4 4 5 6 6 6 5 6 6 5
18 14 7 3 3 5 7 13 2 2 6 5 3 2 1 4 6 7 10 9 12 19 17 15 16 16 14 12 10 8 8 6 5 5 3 6 5 4 5 5 4 4 3 5 5 6 6 6 6
17 11 2 3 4 9 9 8 1 8 6 2 2 2 3 3 5 13 12 13 14 15 11 19 16 15 15 13 11 9 8 5 4 5 4 5 4 4 4 3 3 2 4 4 3 4 4 4 4
8 4 3 3 11 15 9 10 8 5 4 3 3 6 6 7 4 11 13 15 14 14 16 19 16 15 14 13 11 10 9 7 6 5 5 3 4 3 3 2 2 1 1 1 1 2 2 2 2
11 3 4 5 13 16 7 21 4 3 3 7 4 4 5 6 12 13 14 14 15 14 13 14 15 15 13 12 11 10 10 8 7 6 3 2 1 2 2 1 2 2 2 1 1 2 3 2 2
3 2 5 6 13 14 14 2 7 3 5 5 2 5 4 15 13 12 13 13 13 13 12 10 15 15 12 11 12 10 9 10 9 7 4 3 2 2 3 3 3 4 3 2 2 3 4 3 2
5 4 8 12 15 11 14 6 4 6 7 6 2 3 6 9 15 13 13 12 12 12 10 11 14 13 12 12 13 13 12 12 10 8 6 4 6 5 5 4 5 6 5 4 4 5 5 6 5
3 4 11 10 11 14 9 4 3 8 1 2 3 3 5 9 17 15 13 13 12 11 13 13 12 14 12 13 15 14 14 12 12 12 8 9 8 8 8 7 6 6 6 5 6 6 6 8 8
6 3 6 10 13 11 5 5 4 3 4 0 5 6 10 22 18 16 13 13 14 13 14 14 15 13 13 13 14 16 16 14 14 12 12 12 10 10 10 10 11 8 8 7 7 7 8 10 10
4 4 8 13 8 9 11 6 8 1 7 5 6 7 18 17 17 16 15 15 16 16 17 16 15 15 14 14 17 15 17 17 16 15 12 12 10 12 11 13 13 13 12 10 8 9 9 9 9
6 10 14 20 6 9 9 12 8 6 8 6 9 13 11 12 14 13 16 16 18 18 18 19 18 17 16 16 14 13 18 16 16 15 15 12 11 17 15 14 14 14 14 13 10 11 11 9 7
12 14 14 15 7 3 9 9 10 8 11 5 7 11 10 10 9 11 14 16 19 20 20 21 21 20 18 18 18 16 17 19 17 19 19 19 17 17 15 15 17 12 9 10 14 9 8 9 14
12 13 12 13 11 6 9 9 10 10 8 5 6 4 10 9 10 17 18 19 19 23 24 23 23 21 21 20 20 19 19 20 19 18 20 20 19 19 17 16 15 16 14 14 13 15 15 16 14
9 7 10 12 9 9 6 10 3 8 8 7 9 7 6 9 12 17 20 22 22 20 21 23 24 26 22 23 21 20 20 20 21 20 21 22 22 20 19 18 19 18 16 15 16 17 17 19 18
9 11 11 10 8 8 2 7 11 14 4 5 6 8 8 10 14 13 20 21 23 20 21 24 26 27 28 23 23 22 20 20 20 23 21 24 25 24 21 21 20 21 20 20 19 19 20 21 22
6 8 10 12 13 6 6 8 18 9 3 6 8 7 8 10 11 16 17 18 20 22 23 25 26 28 27 27 23 22 22 20 22 23 24 25 27 27 26 25 26 24 24 23 23 23 24 25 25
7 7 12 15 10 6 8 8 5 5 7 8 8 7 7 6 4 13 18 22 22 23 25 21 23 26 26 26 25 23 22 23 25 25 27 29 30 30 31 30 30 27 27 27 27 27 26 26 26
7 10 14 10 7 4 8 10 11 6 7 8 7 5 6 9 9 18 20 18 13 15 21 23 25 26 28 27 24 24 23 26 26 28 30 31 30 31 33 34 33 29 30 31 30 30 27 29 28
9 8 10 5 7 2 8 10 2 5 9 5 9 10 10 10 10 21 22 21 19 16 14 17 24 25 27 27 25 24 26 26 26 30 32 31 32 33 34 37 34 32 33 34 33 31 31 31 27
7 7 8 2 4 2 8 6 4 4 5 6 10 10 9 8 9 10 18 21 21 19 17 14 13 15 23 28 27 26 25 24 30 31 35 36 34 33 33 36 34 32 31 31 33 32 27 27 27
6 6 5 4 2 8 6 5 6 5 9 9 9 8 7 8 8 8 11 20 21 22 18 14 13 12 11 14 22 21 23 24 22 28 28 28 29 30 30 31 31 30 31 31 31 33 32 23 25
6 2 2 5 6 2 7 2 6 7 7 9 9 6 7 8 8 7 9 16 19 19 18 16 11 7 8 6 10 18 20 18 23 24 24 25 25 30 33 34 33 34 32 32 32 33 35 29 25
2 2 2 4 6 6 6 1 6 10 8 8 8 7 7 8 7 8 8 13 16 19 19 21 18 16 11 9 9 11 16 22 24 24 23 23 25 27 30 33 33 35 33 34 33 31 32 33 30
0 4 6 5 3 3 3 2 5 10 10 8 7 7 7 7 8 7 10 12 15 18 20 20 19 19 16 13 11 11 14 18 19 22 22 23 23 23 24 27 31 33 34 33 34 34 34 35 33
5 4 1 2 2 3 3 1 7 6 12 10 10 9 7 8 6 6 6 8 15 20 22 22 22 23 22 20 19 17 16 16 17 19 20 20 22 21 22 25 28 32 33 34 34 33 34 36 35
7 2 2 3 3 2 2 4 2 9 10 10 9 8 7 7 6 6 6 9 13 16 19 20 20 20 21 22 21 20 19 19 19 19 20 21 22 23 23 24 22 28 31 31 33 34 35 34 32
3 3 1 4 1 1 3 4 5 10 9 10 8 8 7 6 5 6 5 7 10 12 12 13 15 15 18 18 18 19 20 21 20 20 19 20 21 22 23 23 24 25 26 27 31 32 34 34 34
2 4 1 2 2 3 4 3 4 8 8 9 9 7 7 6 7 5 4 6 7 7 10 12 13 15 16 18 19 19 19 19 20 22 22 23 24 23 23 23 22 24 25 26 28 31 33 33 33
2 2 3 1 0 1 1 3 5 6 8 10 8 7 7 7 6 3 2 2 2 7 10 12 14 15 16 18 19 22 23 23 23 24 25 27 28 29 30 29 28 25 27 28 28 29 31 31 34
2 3 7 2 1 3 3 6 5 9 9 8 7 7 7 7 5 4 2 2 8 6 9 17 20 20 19 19 21 20 21 22 23 24 25 26 27 28 28 31 30 29 29 29 29 31 30 30 30

GFSSGP_925_spd_003.txt.gz
Wind_Speed
21 18 17 4 3 4 3 7 2 4 4 2 2 7 6 2 1 3 10 7 17 21 20 18 16 18 15 13 10 8 7 7 7 5 5 8 6 5 5 4 5 6 6 5 5 6 5 4 5
20 22 6 2 4 2 5 4 5 2 6 4 3 5 2 1 3 6 8 11 16 17 18 18 18 17 15 13 11 9 9 7 7 7 6 7 7 5 5 5 5 4 4 5 6 6 5 4 5
19 14 3 2 3 5 4 2 5 3 7 2 3 4 4 3 3 12 6 17 18 18 16 18 19 17 15 13 12 8 10 7 6 7 4 6 6 5 4 4 4 4 4 4 4 5 4 4 4
9 8 4 2 5 7 5 4 5 3 4 1 3 4 3 2 7 11 15 18 15 18 15 17 17 17 16 15 10 8 9 7 6 7 6 4 5 4 3 4 4 2 3 3 3 7 6 5 5
6 3 2 2 6 7 4 6 11 5 4 3 2 4 3 3 14 16 17 19 17 17 18 21 17 16 15 13 10 9 10 8 8 8 7 5 5 4 5 2 4 4 4 3 3 5 7 5 5
4 3 4 3 6 8 5 9 14 6 3 3 5 7 4 14 16 15 18 19 18 18 19 20 17 17 18 13 12 11 11 10 10 10 6 8 5 6 6 4 6 6 5 4 4 4 6 6 5
4 3 4 4 5 9 7 9 5 9 1 4 4 5 2 5 14 17 17 17 19 17 19 15 16 18 16 14 14 11 13 12 11 10 9 8 10 8 8 6 7 8 7 6 5 6 7 9 9
3 3 3 3 5 7 7 9 3 5 3 2 2 5 5 7 19 16 17 15 18 17 15 14 13 19 18 16 16 13 17 14 15 15 11 12 11 12 11 9 8 8 8 7 7 8 9 11 11
2 3 3 5 3 4 9 9 9 3 3 3 5 3 3 26 20 18 16 17 17 17 16 17 17 15 15 17 19 17 17 16 17 17 16 13 14 13 13 12 11 10 9 9 10 10 10 12 14
3 4 6 6 6 9 8 5 5 5 6 2 4 5 18 21 22 18 15 18 22 22 22 21 21 18 14 15 16 19 20 22 21 20 19 16 16 14 12 12 11 13 13 13 12 11 12 15 15
5 5 7 16 11 8 7 8 5 7 3 5 7 10 8 8 15 16 18 21 26 25 23 23 21 20 18 22 21 21 19 22 22 22 20 15 13 15 14 18 16 15 16 17 16 16 17 17 16
5 8 7 15 12 5 8 6 10 3 7 6 3 12 8 9 10 16 20 24 24 23 24 24 24 23 24 23 20 22 19 21 21 20 20 18 15 16 19 19 19 18 17 15 15 17 14 16 17
5 11 9 12 10 7 8 6 6 10 13 6 5 10 10 9 12 21 23 22 20 24 23 26 26 26 25 24 23 21 21 20 22 19 20 23 21 19 21 22 21 20 19 19 18 18 20 19 19
5 7 7 6 9 7 6 8 2 8 8 5 7 9 10 11 15 18 20 23 24 23 28 26 27 27 27 27 25 25 23 22 21 22 22 25 26 26 25 25 25 24 24 23 21 22 23 23 23
8 7 8 7 7 6 1 6 11 14 3 6 5 8 9 13 17 20 27 29 29 28 26 28 27 29 29 29 27 26 24 24 26 27 26 28 29 30 29 29 29 29 27 27 24 24 26 26 24
4 2 2 7 6 8 7 7 16 13 9 9 7 7 7 9 7 13 18 24 28 26 25 26 28 29 31 31 29 29 27 26 28 28 28 30 31 31 32 33 34 33 29 30 29 28 28 30 30
2 4 6 8 8 7 6 6 8 8 4 6 7 7 7 8 12 20 21 19 6 21 28 27 29 31 31 32 34 30 30 30 30 29 30 32 32 33 34 37 38 34 31 32 33 33 32 33 33
6 4 6 7 3 6 5 8 11 6 2 5 4 7 8 8 6 15 19 16 12 13 3 23 27 33 33 32 32 32 29 31 31 31 33 34 33 34 34 37 37 35 32 34 33 34 33 35 34
5 4 7 3 1 4 6 7 12 5 7 9 7 8 8 8 5 22 24 22 19 16 10 11 4 25 34 34 31 30 32 32 30 30 31 33 32 32 33 35 37 36 36 38 38 37 37 37 37
9 7 6 3 5 4 4 7 3 4 5 7 8 8 8 7 9 10 18 21 24 23 21 15 12 13 8 28 33 31 32 28 31 30 32 33 34 34 34 36 39 39 35 36 39 37 31 32 28
6 2 1 3 5 3 2 7 3 5 6 6 6 6 6 7 6 6 10 19 22 25 24 22 18 12 16 2 19 22 17 18 20 21 25 27 29 32 35 37 38 36 36 34 33 34 32 28 26
4 4 3 3 5 3 5 4 3 6 5 5 7 7 6 6 5 5 9 17 19 19 21 22 22 23 19 16 13 6 11 16 21 23 23 25 27 29 30 33 37 38 37 35 34 32 34 30 29
4 1 2 1 1 3 3 3 6 6 5 6 7 7 6 6 6 7 8 13 16 18 21 22 22 24 21 18 16 15 14 14 15 15 17 19 20 21 22 29 36 36 37 38 35 30 29 30 30
5 1 2 3 3 1 6 6 4 9 9 6 5 7 8 7 7 7 12 14 17 18 18 20 22 23 22 21 20 19 18 17 17 17 17 18 19 19 19 20 23 30 33 36 38 37 32 32 30
4 5 1 2 1 5 3 2 8 12 12 12 10 9 7 7 7 7 7 10 13 16 16 17 19 20 20 20 20 20 20 20 19 20 20 21 22 23 23 23 22 19 24 30 35 34 37 36 34
5 7 4 3 3 4 2 5 6 12 10 10 9 9 8 8 7 6 5 7 9 10 12 14 15 17 19 20 20 20 20 21 21 21 20 21 23 24 25 26 25 25 23 20 23 29 33 35 35
4 4 4 2 2 2 3 4 5 7 9 9 9 8 8 8 7 7 6 5 4 7 10 11 14 16 20 21 22 23 23 22 22 22 22 24 25 25 26 26 26 26 26 27 29 29 27 29 32
3 1 2 2 3 2 5 3 3 6 8 7 8 9 7 7 8 7 6 4 2 5 10 18 21 23 23 23 24 23 23 23 24 24 26 26 28 28 29 30 30 30 29 28 29 30 32 33 32
2 1 1 2 4 4 2 5 5 7 8 10 8 8 9 7 7 6 4 2 3 12 20 21 23 24 25 25 24 24 24 23 23 24 26 28 29 31 31 32 32 32 33 33 34 34 33 32 33
2 4 5 4 1 1 4 5 3 5 9 9 9 8 6 8 7 6 4 7 15 17 20 22 22 22 22 22 23 23 24 25 27 29 31 32 30 30 29 31 31 31 31 31 31 31 33 31 30

GFSSGP_925_spd_006.txt.gz
Wind_Speed
20 19 12 3 3 4 3 4 3 5 3 3 0 1 4 2 2 3 5 21 7 20 23 22 19 18 16 14 12 10 9 9 7 6 6 10 6 5 5 4 3 4 4 4 5 6 7 5 7
20 16 4 2 4 2 4 4 2 6 3 6 2 1 2 2 1 3 6 11 13 20 23 21 18 20 16 14 11 9 9 8 7 8 8 9 8 6 6 5 4 4 4 4 8 6 6 5 5
15 7 3 3 3 4 4 3 5 4 5 4 1 3 3 2 1 9 5 17 20 20 20 20 20 20 17 14 12 9 9 8 7 8 5 8 7 5 6 4 6 5 6 4 6 7 5 4 5
8 6 4 3 3 5 4 8 9 4 4 4 3 2 1 2 4 7 13 18 20 19 19 20 21 20 17 16 13 10 11 8 8 8 8 7 6 6 5 6 7 6 5 5 5 8 7 7 7
4 3 3 2 4 4 5 7 8 6 2 3 3 4 2 5 3 13 18 18 22 21 20 20 21 19 18 17 15 11 11 11 9 9 10 8 10 7 7 5 6 6 6 5 6 7 10 8 8
4 3 3 2 5 5 7 8 9 3 4 4 4 7 4 4 11 13 17 18 19 21 21 22 21 19 18 18 15 12 13 12 12 13 12 12 7 8 8 7 7 8 7 6 6 7 10 10 10
4 3 3 4 5 5 5 11 5 6 2 6 5 5 2 5 12 14 17 17 19 19 23 24 22 21 20 19 16 13 13 14 14 14 12 11 11 11 9 8 8 10 10 9 8 9 10 12 13
4 3 1 4 3 5 4 12 7 5 4 2 4 4 5 6 18 16 16 16 20 21 22 24 21 21 22 20 19 15 13 16 18 16 15 14 13 13 11 11 11 12 12 11 11 12 12 13 15
3 3 2 5 3 4 7 7 5 4 3 2 5 2 4 13 21 19 17 17 20 23 24 23 21 21 23 22 19 18 16 20 18 18 18 15 15 15 13 15 14 14 15 14 15 14 14 15 17
4 4 7 6 2 5 8 6 7 7 9 2 3 4 6 24 24 19 15 20 23 26 27 25 23 22 22 20 20 20 19 20 20 20 21 20 16 16 17 17 16 15 17 18 17 17 17 17 20
5 5 5 7 9 6 6 8 3 4 6 5 5 5 5 6 15 15 20 26 30 27 26 28 26 24 23 21 20 19 21 21 23 23 22 21 19 20 19 20 20 20 20 21 20 20 21 20 21
3 8 6 8 6 4 5 4 7 5 9 5 9 6 8 8 10 16 20 26 23 24 27 25 27 27 26 23 21 21 22 23 25 26 24 24 23 21 22 23 24 25 23 23 22 21 22 23 23
4 6 6 12 10 7 7 7 8 6 12 6 9 7 12 10 12 21 25 22 23 25 26 28 27 28 29 27 24 23 25 27 23 25 24 25 25 25 22 25 25 26 25 24 24 23 23 24 23
4 5 7 7 9 5 5 8 2 7 7 9 5 10 9 10 17 15 22 28 28 28 29 28 31 30 28 30 29 27 26 26 25 24 26 25 28 28 28 28 29 30 28 27 27 27 26 26 26
5 6 7 9 6 6 2 8 9 11 5 9 8 9 9 13 7 13 11 20 25 28 28 28 30 31 32 32 32 30 27 27 27 26 26 28 29 32 32 33 33 33 31 29 29 30 29 28 29
2 2 3 5 4 7 8 9 13 9 5 11 10 6 6 5 5 5 5 12 19 23 28 28 29 33 32 34 33 32 30 30 28 28 29 29 31 32 32 33 35 34 32 30 32 32 33 33 33
3 4 5 9 7 3 6 7 11 2 6 8 4 4 5 6 9 13 11 9 10 7 19 26 27 31 32 34 33 33 32 31 31 29 30 31 32 32 32 34 36 36 36 34 33 35 35 33 35
5 4 5 6 4 7 6 11 9 4 4 4 7 6 6 7 6 11 15 14 11 9 12 5 19 26 29 31 33 32 31 31 32 32 32 32 32 31 32 34 36 37 37 37 36 37 35 37 31
4 3 4 8 9 7 8 6 11 3 5 8 6 6 6 5 2 13 17 18 19 20 15 11 15 4 22 27 28 29 31 33 33 33 32 32 32 31 32 33 35 37 38 40 37 36 34 35 30
5 7 9 9 4 1 1 8 7 3 4 5 8 6 5 4 7 10 17 20 24 24 24 20 15 18 7 18 24 19 18 23 31 31 29 29 30 30 31 33 36 37 38 37 36 34 30 28 25
7 8 5 6 6 4 1 6 3 3 3 4 3 5 5 6 7 8 12 18 22 25 25 25 22 21 19 8 9 12 11 9 11 14 18 21 22 25 28 31 36 37 36 36 34 33 30 27 27
8 9 8 3 2 3 2 4 3 4 5 3 5 6 6 7 6 6 8 17 20 22 25 26 27 27 26 21 18 16 12 9 10 11 11 12 12 14 16 20 26 33 35 35 38 35 33 28 25
10 6 2 0 1 3 2 1 6 6 6 7 7 7 6 6 6 6 6 13 17 20 23 24 26 28 27 27 25 23 21 18 16 17 18 18 18 18 19 20 20 19 26 32 33 34 30 29 28
6 4 7 4 2 2 7 7 4 8 10 6 4 6 8 7 6 5 8 13 16 17 19 21 24 25 24 24 24 24 23 21 22 21 21 22 22 22 24 25 25 23 22 22 26 30 30 30 30
5 6 1 1 1 6 1 3 8 9 8 15 11 9 8 7 6 6 6 7 11 14 16 16 19 22 22 23 25 24 22 21 21 20 21 22 25 25 26 27 27 28 28 27 26 25 26 30 30
6 7 5 6 4 3 1 6 6 5 4 9 10 9 8 7 6 6 6 6 8 10 12 16 19 21 21 22 21 20 19 20 20 21 22 22 24 25 27 27 28 28 29 30 31 31 30 27 27
5 4 4 2 1 2 3 6 3 7 8 10 10 8 8 7 7 7 6 7 7 12 15 17 18 20 22 23 22 22 22 22 22 22 22 25 26 28 30 31 31 31 31 31 32 31 31 31 29
4 4 2 2 3 4 4 5 4 2 7 8 9 9 7 6 6 5 4 5 10 16 17 18 18 19 19 19 20 20 20 21 22 23 25 28 30 31 31 31 31 31 32 33 33 31 31 31 31
2 2 2 3 4 4 1 5 5 8 8 13 9 8 9 8 7 6 4 10 17 16 17 17 17 18 19 19 19 19 20 22 23 26 28 29 29 29 28 28 28 28 29 30 30 30 30 29 29
3 7 5 4 3 1 3 5 4 1 7 8 9 9 5 6 7 5 9 17 16 15 14 15 16 17 17 17 18 20 21 23 27 29 30 30 30 31 31 28 28 28 30 30 30 31 30 26 31

GFSSGP_925_spd_009.txt.gz
Wind_Speed
20 22 10 4 3 4 2 4 2 6 4 2 3 3 2 1 2 3 1 15 8 16 22 23 21 18 18 15 12 9 8 7 7 6 5 7 4 4 4 2 2 4 3 2 3 6 7 6 8
21 14 4 2 4 3 4 4 3 4 5 6 2 2 2 3 1 1 2 19 9 16 22 23 21 19 19 14 12 10 9 9 8 8 6 8 4 5 5 5 4 3 3 4 5 5 7 8 6
16 7 3 4 2 4 5 4 5 5 7 3 3 1 2 2 1 2 6 13 15 20 20 21 20 19 18 15 14 11 10 9 9 9 6 9 9 5 5 4 5 5 5 4 7 6 6 6 8
8 7 4 3 3 5 4 7 5 7 6 4 1 5 3 2 2 2 5 13 18 18 19 20 19 20 17 15 14 12 11 10 10 10 8 9 8 5 6 5 6 6 6 6 6 9 6 7 7
6 3 4 2 4 4 5 6 6 7 5 4 6 4 3 2 4 5 10 16 18 18 18 19 20 20 18 16 15 12 11 11 10 7 9 8 9 9 8 7 7 8 8 8 7 8 10 8 10
4 3 3 3 5 5 7 6 4 4 2 4 2 2 4 2 8 11 12 16 16 18 19 19 20 20 18 17 16 13 12 12 12 10 10 12 8 7 8 9 9 10 10 9 8 9 10 12 12
4 3 3 3 4 6 4 8 6 6 4 3 6 2 4 3 10 11 12 15 18 19 19 20 21 21 19 18 16 15 13 13 14 13 13 14 14 9 9 10 10 12 12 11 11 11 11 12 14
4 3 2 4 2 6 4 9 6 5 4 5 1 4 5 4 15 12 14 14 18 20 20 20 22 21 21 20 19 17 14 13 15 16 16 15 15 15 15 14 15 14 14 14 14 13 12 13 14
4 2 3 4 4 5 5 7 6 5 4 5 1 2 5 7 17 15 14 15 18 21 21 22 22 22 21 21 21 19 17 14 17 18 18 17 16 16 18 17 18 17 16 16 16 15 14 16 17
4 3 7 5 3 5 7 4 6 6 8 5 4 2 4 11 17 13 15 16 20 24 23 23 23 22 21 22 22 21 19 18 19 19 19 20 21 19 18 19 19 19 18 18 18 17 17 19 20
5 5 4 5 8 5 4 7 4 4 6 5 7 7 3 5 10 12 19 21 23 23 22 25 25 23 22 23 22 22 22 20 20 21 21 22 22 21 21 22 22 22 20 20 20 21 21 22 23
2 7 6 5 3 3 6 4 7 7 11 8 8 8 4 9 10 15 19 22 22 21 22 25 25 25 25 24 24 21 22 21 22 22 22 23 24 25 25 25 24 23 23 23 23 24 25 24 25
3 5 5 8 9 7 6 9 8 10 12 8 9 6 9 10 11 20 23 21 21 22 23 24 24 27 27 28 27 23 23 23 22 21 23 25 27 28 27 27 25 26 26 26 26 26 26 27 25
5 5 8 7 12 5 6 9 3 6 6 9 6 10 9 9 7 8 10 17 20 23 25 25 28 29 28 29 30 28 25 23 23 23 23 25 27 27 28 28 29 29 27 27 28 29 29 30 29
2 4 7 8 7 7 3 9 9 11 5 10 11 8 7 6 6 10 13 17 19 25 26 27 28 29 30 30 31 30 28 26 26 26 25 25 26 28 28 29 31 31 31 30 30 31 32 33 32
3 2 3 4 2 5 9 12 12 10 4 10 6 5 7 6 6 8 6 6 8 13 21 25 26 28 30 33 32 31 31 29 28 28 27 27 27 28 29 30 32 33 32 33 33 33 34 35 36
1 3 4 8 4 1 4 7 13 1 4 9 4 6 6 6 8 14 14 12 11 11 13 12 18 23 26 30 32 31 30 31 31 30 30 29 28 29 29 32 34 35 34 35 36 36 34 34 33
5 3 6 6 4 1 3 12 14 2 4 4 5 6 6 7 7 13 17 16 16 12 13 16 5 10 18 22 25 28 28 30 30 32 31 31 30 30 30 32 35 36 37 38 38 38 36 36 33
4 4 3 5 6 5 9 10 14 6 3 5 6 6 6 6 4 13 19 23 24 25 21 19 18 12 9 17 20 21 26 28 29 29 29 30 29 29 30 31 34 35 37 39 35 33 31 30 29
3 2 5 8 4 4 3 9 10 4 4 5 7 6 5 5 6 9 18 23 26 25 25 24 24 23 13 5 10 8 5 8 11 13 16 18 22 24 26 28 31 32 33 35 34 30 26 24 26
5 5 4 6 8 3 5 7 6 2 1 3 3 4 5 6 6 6 10 19 23 25 26 27 28 27 25 16 4 3 5 7 13 15 15 14 13 14 14 16 18 22 26 30 30 31 27 24 23
9 8 4 6 4 3 3 5 5 4 4 4 5 5 6 7 4 4 8 14 20 22 24 27 29 30 29 27 27 25 22 16 15 16 17 18 18 17 19 18 19 19 19 20 25 28 24 24 21
8 6 7 5 4 3 2 2 6 3 7 8 7 7 6 7 6 6 7 13 16 19 22 24 26 27 26 25 24 23 22 19 18 19 18 18 18 19 22 23 24 24 24 23 22 23 22 23 24
2 4 5 3 3 2 8 7 5 5 10 5 4 6 8 7 6 5 9 12 15 17 20 22 25 25 24 24 24 23 22 20 21 21 22 22 22 22 23 25 26 26 27 27 26 25 25 24 24
5 5 1 2 1 6 1 3 9 5 7 11 12 10 8 7 7 6 6 8 13 16 17 20 21 23 21 22 21 21 20 19 20 19 20 22 24 26 27 28 28 28 27 28 28 28 27 27 25
7 7 5 6 4 4 4 6 6 5 6 9 10 9 7 7 6 6 6 9 12 13 16 18 19 20 19 19 19 18 18 18 18 19 20 22 23 25 27 29 30 30 30 30 31 32 31 30 30
5 4 5 2 0 1 4 7 4 5 5 7 11 9 9 8 7 7 7 11 12 16 16 15 17 18 18 17 16 17 18 18 19 19 21 23 25 25 28 28 28 29 28 28 29 27 28 29 28
6 7 3 2 3 4 4 5 5 2 3 4 9 10 8 6 7 6 6 11 15 15 15 15 15 16 15 15 16 17 18 19 20 22 24 25 26 27 28 28 28 27 26 28 28 27 28 29 26
2 2 4 4 4 3 2 6 5 4 8 11 9 9 8 7 7 6 7 14 15 14 13 13 13 13 14 15 16 16 19 21 23 25 26 27 27 28 28 27 26 27 28 28 27 28 28 26 28
2 7 6 4 4 2 3 5 4 6 7 7 8 4 4 6 7 6 10 14 13 12 11 11 11 13 14 14 14 16 20 23 25 27 27 28 29 29 29 30 28 29 28 29 27 30 27 29 30

GFSSGP_925_spd_012.txt.gz
Wind_Speed
20 19 9 4 4 5 2 5 2 5 4 1 5 2 3 2 3 4 2 13 3 14 18 20 19 16 15 13 12 9 8 6 7 6 5 5 3 2 3 1 0 3 2 3 3 4 8 5 8
19 12 4 2 4 3 4 3 3 2 5 8 4 2 2 4 2 3 2 13 7 13 17 20 20 17 16 13 11 10 9 7 7 6 6 8 6 2 4 3 5 3 4 4 5 5 7 7 6
13 7 3 4 3 3 4 3 5 7 9 4 3 3 2 3 2 3 4 12 9 13 17 18 19 17 17 14 11 10 8 9 8 8 7 9 6 3 6 6 5 5 5 5 6 6 6 7 9
8 6 4 3 2 5 4 3 4 9 7 4 2 5 3 4 2 3 4 11 12 15 16 17 18 16 17 14 11 10 9 8 9 8 7 8 8 5 5 5 4 6 6 7 7 10 7 8 9
6 3 3 3 4 4 5 5 6 5 6 4 1 4 4 2 5 4 7 11 13 15 15 17 17 17 16 14 13 11 10 10 10 8 10 8 8 7 7 7 6 7 8 9 9 9 11 11 10
4 3 3 1 4 6 6 5 3 3 5 7 1 2 5 2 3 5 9 11 12 13 15 16 16 18 16 15 15 13 11 11 10 8 9 9 8 10 9 9 8 8 9 10 10 11 11 12 13
4 3 3 2 4 6 4 6 3 6 7 3 2 3 4 4 6 6 8 11 12 13 14 16 17 18 17 15 15 13 11 12 11 12 11 13 13 11 8 9 10 9 11 12 12 11 12 12 13
4 3 3 3 3 6 3 8 4 3 6 7 3 3 4 2 6 7 9 11 12 13 15 16 17 19 19 18 17 16 14 12 12 14 14 14 15 16 15 15 15 12 12 13 13 14 13 14 14
3 3 2 4 5 5 3 7 3 3 4 5 3 3 5 11 8 9 10 11 14 15 16 17 18 20 22 19 18 18 16 14 13 15 15 16 16 14 16 16 16 16 16 14 14 16 16 16 18
4 3 7 5 4 4 5 2 6 5 7 5 4 4 5 4 9 11 12 11 15 17 18 19 19 21 22 20 19 19 18 17 16 16 17 19 19 18 17 17 16 17 16 16 16 17 18 19 21
5 5 4 4 6 3 4 7 3 3 7 7 8 9 6 2 9 13 16 16 16 15 17 19 18 22 22 20 19 19 19 19 18 18 18 19 19 20 19 19 19 19 19 20 20 21 21 22 23
3 7 5 4 2 2 4 5 7 7 10 9 9 6 5 8 9 15 12 10 11 14 17 19 19 23 23 21 21 19 19 20 20 19 19 20 20 20 21 21 21 21 20 21 22 24 24 25 25
4 4 3 6 8 6 4 9 7 13 13 10 9 9 10 8 10 7 13 14 14 18 18 19 19 24 24 24 23 23 21 21 19 20 19 20 21 23 22 23 23 23 22 23 24 25 26 27 28
6 6 8 5 10 6 6 9 5 6 4 8 8 10 8 7 6 5 10 16 15 18 21 20 22 24 25 25 26 26 24 22 21 21 21 21 22 23 24 24 24 25 25 26 27 29 29 31 31
2 3 6 5 5 7 5 12 12 11 3 8 9 10 5 5 7 5 6 9 11 15 18 19 21 24 25 26 26 26 26 25 24 24 22 22 23 24 24 26 27 28 27 28 29 31 31 33 35
5 2 3 4 2 4 5 18 11 8 6 8 8 7 4 6 6 11 11 8 8 9 14 11 15 19 23 25 26 26 26 25 26 25 24 23 23 24 25 27 29 30 30 30 30 31 33 36 37
1 4 4 7 5 3 5 8 7 3 5 5 5 2 3 6 9 16 14 13 10 8 14 14 5 11 16 19 22 25 24 24 24 25 26 25 25 25 25 28 30 31 32 32 32 34 32 33 32
6 4 3 6 3 2 6 14 18 6 1 4 3 3 4 7 7 12 16 16 17 15 16 17 15 5 4 10 14 17 20 22 22 23 23 24 24 24 24 26 28 29 30 32 32 32 31 30 33
6 4 5 4 4 3 7 8 15 8 5 5 5 4 3 6 3 12 18 21 22 22 21 24 25 19 7 3 4 7 10 13 13 12 12 12 13 14 15 17 19 21 23 26 27 26 27 28 28
3 4 4 7 1 3 8 10 12 8 6 4 8 6 4 4 6 9 17 21 22 24 28 29 29 26 20 12 8 5 8 13 16 15 15 16 15 15 15 15 16 16 17 20 22 24 21 18 21
3 5 3 6 7 4 6 8 6 3 1 5 5 5 4 6 7 5 10 17 21 27 28 30 30 29 26 21 15 14 16 19 22 23 22 20 19 19 18 18 18 19 19 19 19 19 19 19 22
8 7 3 3 4 4 5 6 6 6 4 5 6 6 6 7 3 4 7 14 19 21 24 26 27 27 26 24 26 26 24 21 17 17 17 18 19 19 21 21 22 22 22 23 22 22 20 20 18
4 6 6 3 3 2 1 2 7 2 5 6 7 7 6 6 6 6 7 14 16 18 22 24 26 26 25 25 25 24 22 18 17 18 19 21 21 21 23 25 25 25 25 24 23 24 25 23 20
5 4 4 3 2 2 6 7 5 4 6 4 4 7 8 7 6 5 10 14 16 18 20 22 25 24 23 23 23 23 22 21 22 23 24 24 25 25 26 27 27 26 27 27 27 27 28 27 26
4 4 0 1 1 5 1 2 8 5 5 8 13 10 8 7 7 6 7 10 14 17 18 20 22 22 21 22 22 22 21 21 22 23 24 26 28 28 28 28 28 28 27 27 27 28 26 27 26
6 7 5 6 4 4 3 6 6 2 6 7 9 11 8 8 7 7 7 11 15 17 17 18 19 20 19 19 20 19 19 19 19 20 20 21 21 22 24 26 26 26 26 26 26 26 26 26 28
5 8 4 4 2 1 3 7 9 4 6 3 9 12 10 8 7 7 8 11 16 16 15 16 17 18 17 17 16 18 18 19 18 18 20 22 22 23 24 24 25 26 26 27 28 26 26 28 27
7 8 2 2 3 4 4 5 5 6 4 2 7 10 8 7 7 6 7 14 16 15 15 15 16 17 15 15 15 15 17 18 19 20 22 22 22 23 24 25 26 27 28 29 29 25 29 27 22
3 3 4 4 4 4 1 5 5 6 5 8 6 6 8 8 7 7 7 13 15 14 13 14 15 14 15 14 14 17 19 19 19 20 21 22 22 23 25 26 28 29 30 31 30 27 25 26 26
5 7 6 4 4 1 3 6 2 6 6 6 8 6 6 6 7 7 10 15 13 13 13 14 13 14 14 13 15 16 18 20 21 21 21 22 24 25 26 28 29 30 29 29 27 26 26 24 27

GFSSGP_925_spd_015.txt.gz
Wind_Speed
17 16 6 4 2 3 1 4 1 3 3 2 3 4 3 3 3 2 1 12 4 12 17 20 18 15 13 14 9 8 7 6 6 6 5 6 5 2 2 1 3 1 2 2 2 3 6 7 7
17 11 4 2 3 2 3 2 1 1 7 10 4 3 3 3 2 2 2 13 6 14 17 19 18 15 14 11 7 8 7 6 6 6 6 7 8 3 4 2 3 2 3 4 4 4 4 7 7
12 7 3 3 2 3 3 1 5 8 11 4 3 2 2 2 1 1 2 13 9 15 16 17 19 15 13 14 10 8 7 8 7 7 7 6 7 6 3 6 5 5 6 4 5 6 6 7 9
7 5 3 3 2 4 3 3 3 10 4 3 2 7 3 3 2 1 3 12 9 13 15 16 18 15 14 14 11 8 7 8 7 8 8 7 9 6 3 3 6 4 5 5 6 6 8 7 8
6 2 2 2 3 4 4 4 5 4 5 5 1 3 3 1 3 2 4 12 12 14 15 15 17 15 16 15 11 9 8 8 8 8 7 8 9 7 6 8 4 4 6 6 7 7 8 10 11
3 2 2 1 3 4 6 5 3 3 4 8 4 5 3 3 1 2 7 10 11 14 15 15 15 14 16 14 12 10 9 9 8 9 6 7 6 7 9 9 6 6 7 7 8 8 9 10 11
4 3 2 2 3 5 3 4 2 5 5 2 3 3 3 4 2 3 7 10 12 12 14 15 15 15 15 14 12 11 10 9 10 10 10 10 9 9 6 6 7 8 8 9 10 10 10 11 11
4 3 4 3 2 4 3 5 3 2 5 9 2 3 4 3 6 4 6 8 11 12 13 14 15 15 16 14 13 13 12 11 10 11 12 13 13 13 15 13 13 11 10 11 11 12 13 13 13
2 3 3 4 5 4 2 4 2 2 5 4 3 3 4 11 3 5 5 7 10 12 13 14 15 16 16 17 16 14 14 13 12 11 13 14 15 15 12 12 12 13 14 13 13 13 14 16 17
3 4 9 5 4 4 3 3 3 3 3 5 5 4 6 8 4 6 7 7 7 12 14 15 16 17 17 18 17 16 17 15 15 15 14 16 17 16 15 15 14 14 14 15 15 16 16 16 15
5 5 5 3 6 4 4 5 2 2 5 6 7 11 10 4 6 8 7 8 10 13 15 16 17 18 19 19 18 17 18 18 17 16 15 16 17 17 17 17 16 16 15 16 17 17 18 19 18
3 6 4 3 4 2 3 3 5 7 12 6 9 8 7 12 10 11 10 11 12 13 14 16 17 19 20 20 19 17 18 18 17 16 16 17 17 18 18 17 17 18 18 19 19 20 21 22 22
4 3 4 6 6 6 3 10 9 13 15 14 8 7 9 9 10 10 10 10 12 14 15 17 17 20 21 22 21 19 20 18 16 15 16 17 17 18 17 18 19 19 20 21 22 23 24 25 24
7 8 10 4 7 4 6 8 5 17 6 9 3 8 10 8 6 4 5 6 8 10 13 15 17 19 21 24 22 22 21 19 18 16 16 16 18 19 19 19 20 21 22 23 24 24 24 23 22
5 3 4 4 3 6 4 7 8 15 7 8 6 6 6 6 7 5 5 5 5 5 8 11 15 18 21 22 22 22 21 19 18 18 17 17 18 19 20 21 22 23 23 24 24 24 24 25 24
8 3 8 3 4 3 4 12 7 8 2 5 5 2 5 6 6 7 7 6 5 5 10 10 8 12 16 19 18 19 17 16 16 17 18 18 18 18 20 22 23 24 24 24 23 22 22 22 24
3 5 4 5 6 5 6 7 4 2 3 6 4 4 5 5 8 10 10 9 8 9 11 13 8 0 5 7 9 10 10 10 11 12 14 14 15 16 17 19 20 21 21 21 20 19 17 20 20
9 6 3 5 2 3 4 13 14 9 7 7 2 4 5 5 5 8 11 14 14 16 18 18 17 13 6 4 3 3 6 7 7 8 8 9 9 9 10 12 14 15 16 16 15 16 16 18 21
7 6 10 3 2 2 5 6 14 8 5 7 4 7 6 6 3 6 12 17 20 23 24 26 25 19 15 15 13 16 17 17 20 19 18 18 17 16 15 14 14 15 14 14 14 14 15 17 16
6 5 5 4 1 2 6 15 14 6 5 5 9 9 9 7 5 7 12 18 22 23 26 30 29 24 22 22 18 18 19 23 24 23 22 21 20 19 18 18 18 18 16 16 16 15 15 15 17
4 6 4 3 3 1 5 6 5 2 1 3 5 9 8 10 9 6 10 14 19 22 26 28 30 30 27 23 23 24 24 21 20 21 21 20 18 18 18 18 18 17 17 16 16 14 13 14 16
11 5 4 2 4 2 4 6 5 6 3 4 6 7 10 10 7 6 10 13 15 19 24 27 29 29 28 26 26 26 21 16 14 16 17 18 18 19 20 20 20 19 18 18 17 17 17 16 16
4 6 5 3 3 2 1 2 6 2 4 6 8 8 8 9 9 8 8 11 14 18 22 26 27 28 26 25 23 23 21 17 16 16 17 18 19 19 21 21 21 21 19 19 19 20 20 16 16
8 6 4 3 1 2 5 5 5 3 4 4 5 8 9 10 9 8 10 12 14 17 21 24 26 24 23 23 22 21 19 16 16 18 18 17 17 18 22 22 21 19 18 18 17 17 17 17 17
4 7 2 2 3 5 2 2 9 3 4 6 13 13 11 10 11 10 8 10 12 16 17 19 22 22 20 21 21 20 19 18 18 17 17 19 19 19 23 23 22 20 19 19 18 20 18 19 20
4 7 4 5 4 3 3 5 5 2 4 5 6 11 10 11 9 9 9 11 12 14 16 18 19 19 19 19 19 18 18 18 17 16 16 15 15 15 19 20 19 21 21 21 20 18 16 18 18
3 5 3 4 2 1 2 5 7 1 4 3 8 14 13 11 10 10 10 12 13 13 15 16 17 18 17 17 17 17 17 17 16 16 16 16 16 15 19 21 21 22 22 21 20 18 17 18 19
6 8 2 1 4 3 3 4 4 5 5 3 5 10 9 8 10 9 10 13 13 14 15 15 15 17 16 16 15 15 15 15 15 15 17 18 18 19 19 20 20 20 20 19 20 19 19 20 20
3 2 2 4 3 3 0 4 4 5 5 4 9 10 11 10 10 10 11 13 14 15 14 14 14 15 15 14 13 14 14 14 15 17 17 17 17 18 18 19 19 19 20 21 21 20 19 23 22
6 8 7 4 3 1 2 5 1 6 6 5 9 9 8 8 9 10 14 14 13 13 13 14 13 13 12 11 11 12 13 15 16 16 16 16 17 18 19 21 20 20 21 21 21 20 22 23 25

GFSSGP_925_spd_018.txt.gz
Wind_Speed
14 14 6 3 4 5 7 4 0 2 3 2 8 7 8 8 5 4 3 7 4 9 13 17 17 17 14 13 11 6 5 4 4 4 3 4 4 3 2 1 2 1 2 4 4 6 5 5 6
13 7 2 2 5 7 6 2 5 2 9 12 7 4 6 2 1 1 2 9 5 11 14 16 18 17 14 13 8 5 6 5 5 5 5 6 8 4 5 4 3 3 3 4 4 5 6 6 5
9 4 3 2 2 6 3 1 5 9 11 4 3 3 3 1 2 3 3 10 6 11 13 14 18 16 13 12 9 7 6 5 5 5 6 7 8 5 4 3 4 5 6 3 6 7 5 8 7
5 3 3 5 5 4 5 4 6 10 0 0 5 7 3 3 2 3 3 9 6 9 11 13 19 16 13 13 11 7 5 5 5 6 7 8 8 7 4 5 4 5 6 4 5 5 6 8 7
2 3 5 5 4 4 6 5 8 7 7 7 6 2 2 4 3 1 3 8 6 8 9 10 17 15 14 14 12 7 6 5 5 6 5 7 6 8 4 5 7 6 4 5 5 6 7 8 9
4 3 7 9 5 4 6 3 5 6 5 5 6 8 2 5 3 1 5 7 5 7 8 9 14 14 13 15 11 8 7 6 6 7 5 5 4 4 7 6 5 7 5 6 7 7 8 9 9
8 7 11 10 9 7 2 1 4 8 8 1 10 5 3 8 7 2 4 6 7 7 8 8 10 12 13 13 10 9 8 7 8 7 10 7 7 6 6 6 7 7 9 8 9 11 11 11 11
4 4 9 9 8 6 1 2 5 6 6 9 2 3 1 10 7 2 3 5 7 7 8 8 9 9 11 11 11 10 10 9 9 9 9 11 11 11 11 13 13 13 11 11 11 11 12 13 14
2 7 11 13 9 2 2 4 3 6 10 7 6 6 6 6 5 1 4 6 7 8 10 9 10 10 11 10 9 11 11 10 10 10 9 10 9 9 9 10 11 11 12 13 12 12 13 16 17
10 10 16 8 8 5 3 8 8 7 10 12 9 6 6 7 7 6 6 7 10 11 11 12 12 12 11 11 10 10 10 9 9 9 8 8 8 9 10 11 14 14 14 14 14 15 15 16 13
9 16 10 9 9 5 6 10 4 10 12 7 11 13 11 14 13 9 8 10 11 10 11 13 13 13 13 12 10 10 9 9 9 10 9 7 8 8 9 9 10 10 12 11 11 12 11 12 14
13 15 12 8 5 5 9 8 12 14 21 16 16 16 15 13 9 9 9 8 10 10 10 11 13 13 14 14 13 11 10 9 9 8 8 8 7 8 9 9 10 10 10 11 11 12 13 15 16
18 15 13 12 9 10 10 14 18 20 23 19 17 13 11 11 11 10 7 5 7 8 9 10 12 14 14 15 13 12 11 10 9 8 7 8 7 8 8 10 10 11 12 12 12 13 15 16 17
13 17 16 13 12 12 12 18 4 20 17 19 13 13 9 8 7 7 4 3 4 5 7 8 12 14 15 16 14 11 10 9 8 7 7 7 7 7 8 10 10 11 11 12 13 14 16 17 18
21 13 13 15 14 14 7 18 20 19 12 15 11 9 4 3 3 3 4 4 2 3 4 6 9 13 16 15 12 10 8 7 7 6 7 6 6 7 8 10 11 11 12 13 13 15 16 18 18
19 15 18 19 15 13 10 19 13 4 3 4 3 2 1 4 4 5 5 4 3 4 5 6 5 5 10 10 8 6 5 4 4 4 5 6 6 7 8 9 10 11 12 12 13 15 17 18 19
14 16 22 19 12 12 12 14 8 6 12 13 10 3 4 4 5 7 7 6 6 6 7 8 7 5 7 7 6 5 2 1 0 1 3 4 4 5 6 7 9 10 10 10 12 13 15 18 19
16 17 14 18 14 13 17 18 15 14 10 11 6 7 6 6 6 7 8 8 8 10 11 12 13 12 11 11 10 11 10 9 9 9 9 10 10 9 7 7 9 9 9 10 12 14 14 16 17
19 18 15 14 10 6 14 19 14 16 12 12 9 9 8 8 7 8 10 10 12 15 16 16 16 14 13 14 14 14 14 15 15 16 16 15 14 14 13 11 11 12 11 12 13 14 16 17 18
19 18 16 12 5 7 14 19 17 18 14 10 10 11 12 11 9 10 12 13 15 16 18 19 18 18 15 14 14 15 16 16 15 14 15 15 15 15 13 13 12 12 12 12 13 14 16 16 17
16 17 15 12 5 9 10 20 15 7 5 4 6 10 13 14 14 11 12 13 14 16 16 19 20 19 17 17 16 16 15 14 12 12 12 14 13 14 13 13 12 12 12 13 14 14 15 17 18
20 12 10 7 4 5 3 5 9 9 6 6 10 12 13 14 13 12 12 14 14 15 16 18 19 19 18 16 16 15 14 13 11 11 10 10 12 13 14 13 12 12 12 12 14 15 15 16 17
11 13 11 7 8 4 9 6 4 3 7 8 12 14 14 14 14 13 12 14 13 13 15 17 18 19 18 16 15 14 14 12 10 8 8 9 10 11 14 13 13 13 12 13 14 15 15 14 15
12 12 7 4 2 7 11 9 5 3 3 5 12 15 15 15 14 13 15 14 14 13 14 16 17 17 16 16 16 16 14 11 9 9 9 9 9 11 13 13 13 12 13 13 14 14 14 14 15
16 16 4 5 5 6 4 6 10 3 2 4 16 16 16 15 14 13 13 14 14 13 13 14 15 16 14 15 14 13 11 10 10 9 10 11 12 12 14 15 14 14 14 14 14 15 14 14 15
16 15 4 6 6 6 4 6 1 5 2 3 10 16 17 16 14 14 14 15 14 13 13 13 13 14 12 12 12 11 10 9 9 9 9 9 10 11 12 13 13 13 13 14 15 15 15 15 16
5 10 3 2 1 3 5 4 3 3 2 3 10 17 17 17 15 14 14 15 14 13 12 12 13 12 10 10 10 10 9 9 9 8 8 8 9 10 11 12 14 15 16 16 17 17 18 18 18
5 7 4 2 5 4 4 3 2 3 2 4 12 18 18 16 15 13 13 15 13 13 12 11 11 11 10 9 8 8 8 8 7 7 8 8 9 10 12 14 15 16 17 17 18 18 18 19 21
6 4 2 4 2 2 3 4 3 5 6 4 10 17 17 16 15 13 13 15 14 13 12 11 10 10 9 7 6 7 7 6 6 7 8 9 10 11 12 14 16 17 18 18 19 20 19 21 23
10 12 11 4 5 2 3 2 3 5 5 3 8 15 15 16 15 13 15 16 15 13 12 11 10 9 7 6 5 6 5 5 6 6 8 10 11 12 13 14 16 17 18 19 20 20 22 23 24

GFSSGP_925_spd_021.txt.gz
Wind_Speed
15 14 11 7 5 6 12 11 2 6 3 5 8 8 11 10 8 4 4 6 5 8 11 17 18 16 15 12 9 6 5 3 2 2 1 1 2 0 2 2 5 4 3 4 4 4 5 4 5
15 13 9 3 5 9 10 10 8 3 7 10 10 7 7 3 4 7 6 6 5 7 10 14 15 17 13 10 8 5 4 3 2 2 2 2 4 3 2 2 3 4 4 4 5 5 3 6 5
14 10 7 4 5 9 8 2 3 6 10 6 5 4 5 4 7 5 5 8 7 7 9 11 14 15 11 10 8 6 4 2 2 2 3 3 5 5 3 2 2 5 6 4 6 6 3 6 7
7 6 5 9 12 6 10 4 5 9 5 1 7 10 5 9 4 6 5 6 7 7 8 10 14 14 11 9 9 6 3 3 2 2 4 4 6 5 6 1 1 5 6 5 5 5 5 6 8
9 6 9 12 11 6 8 6 6 7 8 8 5 5 3 7 5 3 5 5 6 7 7 7 15 12 10 9 10 6 3 2 2 2 1 4 6 4 4 3 3 5 6 5 6 6 6 6 7
6 4 11 12 14 5 7 6 8 8 7 8 6 9 3 9 7 3 4 5 5 7 7 8 13 13 11 11 11 7 5 3 3 4 3 3 2 1 2 4 5 7 6 6 6 7 9 9 9
12 11 14 17 14 9 7 1 9 6 10 7 7 7 8 11 8 3 4 5 6 7 8 9 10 12 11 12 9 8 6 5 4 4 7 6 6 5 5 6 7 7 8 9 10 9 10 11 11
10 12 19 17 13 16 2 4 5 9 10 9 3 4 2 8 6 3 3 5 7 7 8 9 10 11 11 11 12 9 8 7 7 6 6 8 10 10 11 11 11 12 11 11 12 12 12 12 13
10 12 15 19 16 12 5 6 5 6 11 11 9 8 5 5 2 1 2 5 7 8 10 10 11 11 11 10 13 11 10 10 9 8 8 7 6 7 7 8 12 13 12 12 13 13 13 14 16
13 13 21 16 12 12 7 7 8 9 11 12 11 10 4 4 6 7 6 7 11 11 11 11 11 11 11 10 9 8 10 9 9 7 7 6 6 6 7 9 12 13 13 14 14 13 13 14 13
18 20 18 19 11 12 12 12 13 10 14 15 8 9 11 11 13 11 8 7 9 12 12 12 12 12 12 11 10 9 8 8 7 8 7 6 5 6 6 6 7 7 9 9 9 11 12 11 13
22 21 23 19 13 10 14 13 15 15 16 15 15 16 15 13 11 8 8 8 7 9 10 11 12 12 13 12 11 9 8 7 6 6 6 6 6 6 6 7 7 7 7 8 10 11 11 13 15
24 23 20 21 15 13 15 17 17 21 20 18 17 14 16 12 11 11 8 7 6 8 9 9 11 13 12 13 11 10 9 7 7 6 5 6 5 6 6 7 8 8 8 10 11 12 13 15 16
11 23 23 18 19 18 17 19 17 20 19 18 18 16 12 12 9 9 7 6 5 5 6 7 10 12 12 12 11 9 8 6 6 5 4 4 5 6 6 8 8 9 9 11 12 13 15 16 16
16 22 21 25 19 20 15 22 23 20 22 13 13 13 11 6 7 4 3 4 1 1 2 4 6 10 12 11 10 9 7 5 5 3 3 4 5 6 7 8 8 9 10 12 13 14 15 17 18
26 22 18 19 22 21 16 23 16 12 6 12 10 6 4 4 3 2 1 1 2 1 0 1 2 5 9 10 9 7 5 3 2 1 1 2 4 5 6 7 8 10 11 11 12 13 14 15 16
15 21 25 20 23 20 20 20 16 20 7 13 11 9 5 4 3 3 3 4 5 4 4 6 6 7 9 10 8 7 6 4 3 3 5 5 5 5 5 7 8 9 8 9 11 12 14 15 17
20 27 17 24 22 17 21 21 19 18 16 13 12 12 8 7 4 5 7 8 8 9 11 12 13 13 13 13 12 11 11 12 11 12 13 11 11 11 9 8 9 10 9 10 12 14 15 17 19
22 17 23 21 22 20 19 19 23 18 19 16 12 11 11 9 7 8 10 11 12 13 15 15 15 15 15 14 15 14 14 14 14 14 14 13 13 12 12 10 10 11 11 12 13 15 17 17 19
22 21 24 17 11 13 16 17 18 19 18 18 15 14 13 11 11 11 13 13 14 16 16 17 17 15 15 14 15 16 15 15 14 14 13 12 12 13 12 13 12 13 14 13 15 16 17 17 18
23 28 20 17 14 10 14 19 22 19 22 16 12 12 14 14 13 13 13 14 15 16 16 17 17 18 18 17 18 18 16 14 12 10 9 11 12 13 13 13 13 13 13 14 15 16 16 16 17
26 16 13 16 7 9 11 7 5 11 13 12 12 13 15 15 14 13 14 15 15 16 15 17 18 17 15 14 15 14 13 13 10 8 9 8 11 12 13 13 13 12 12 12 14 14 15 15 15
14 16 16 13 12 7 12 6 13 8 16 13 13 15 16 16 15 15 13 16 16 14 15 16 17 17 15 15 15 14 14 11 9 7 6 7 8 10 13 13 12 12 11 12 13 14 15 14 16
14 17 11 7 7 7 15 13 11 12 10 8 14 15 17 17 16 14 16 16 15 14 14 15 16 16 15 16 15 15 13 10 8 8 8 8 8 9 11 12 11 11 12 13 14 14 15 16 16
18 20 6 4 5 7 5 12 9 10 6 6 15 17 18 17 16 15 14 14 15 14 14 14 15 16 14 14 14 13 11 10 9 8 8 9 9 10 11 12 12 12 13 14 15 16 17 17 17
21 15 7 7 8 11 7 8 5 8 4 4 13 17 18 17 15 15 14 15 16 14 13 14 14 14 12 12 12 11 9 9 8 8 8 8 8 9 11 12 13 14 14 15 16 17 16 18 19
17 19 5 1 4 8 8 10 6 5 6 8 14 18 18 18 16 16 15 16 15 14 13 13 13 13 11 10 9 9 9 9 8 7 7 7 8 9 11 12 13 14 14 15 17 18 19 20 20
11 13 8 4 8 5 7 8 7 10 7 7 14 19 18 18 17 15 13 16 15 14 13 12 12 11 10 9 8 7 7 7 7 7 7 8 8 10 11 12 13 15 16 17 19 19 20 22 21
6 11 5 3 3 3 6 5 11 4 2 7 12 17 18 18 16 15 13 16 15 14 13 12 11 10 9 7 7 6 6 6 6 6 7 8 8 10 11 12 14 16 18 19 20 21 22 21 24
10 9 10 7 4 3 5 6 4 4 4 4 10 15 17 17 16 15 14 17 16 15 13 12 11 9 8 6 5 5 5 6 6 7 7 8 9 10 12 14 15 17 19 20 21 22 22 24 26

GFSSGP_925_spd_024.txt.gz
Wind_Speed
18 18 19 7 3 2 6 10 8 3 3 4 7 6 8 9 5 3 7 9 12 14 15 19 17 16 13 10 8 6 6 4 3 3 3 4 3 3 5 5 3 5 5 6 6 5 6 8 8
18 19 16 3 2 3 5 10 4 3 7 7 7 5 5 1 8 9 9 8 11 14 12 16 17 16 11 9 8 5 5 3 3 2 3 2 0 2 3 3 3 3 3 4 5 6 3 4 5
17 17 2 3 5 5 4 7 10 10 8 4 4 1 3 5 9 5 13 10 12 12 10 16 16 16 11 9 7 4 5 3 2 1 4 3 2 4 2 1 3 4 5 3 3 4 2 4 5
7 5 3 4 10 13 3 6 5 5 8 1 6 8 6 14 5 8 10 10 12 12 13 15 13 14 11 10 9 5 5 2 2 1 3 2 2 3 6 2 2 4 6 5 2 3 3 4 6
11 3 4 6 11 12 1 6 6 3 4 5 4 6 5 8 10 9 10 8 12 13 11 11 14 15 13 12 9 8 4 3 2 3 3 3 3 0 6 2 0 4 5 5 3 3 4 5 5
4 3 6 9 13 16 4 4 2 6 9 5 2 6 4 10 11 6 7 7 10 12 9 9 16 16 13 12 11 8 4 3 3 5 3 2 1 3 5 4 3 4 4 4 4 5 7 8 9
8 5 10 12 14 16 2 8 2 7 7 7 4 3 6 9 7 6 5 9 8 11 10 8 15 15 13 12 10 8 5 5 4 4 7 5 5 4 4 4 6 6 7 7 8 8 9 9 9
8 7 14 12 11 14 5 4 2 3 6 8 1 3 4 4 6 7 4 6 8 9 11 11 11 12 12 13 13 10 7 5 5 6 5 8 10 9 8 9 7 8 8 9 9 10 10 11 12
11 7 12 16 15 15 4 3 3 3 5 6 7 7 8 11 8 10 8 6 8 11 11 13 14 12 14 13 13 13 9 7 6 7 6 5 4 4 8 6 8 11 11 11 11 11 11 12 14
10 8 15 14 11 10 9 5 4 3 7 8 6 10 6 10 10 3 9 15 16 14 13 13 13 14 13 12 15 11 9 9 6 5 7 4 2 5 6 5 11 10 9 8 11 9 10 12 11
16 18 12 16 18 13 5 8 5 8 6 8 8 9 8 6 7 8 13 10 18 20 17 16 15 13 14 12 9 11 11 9 8 7 7 3 4 4 6 6 7 7 8 11 9 11 13 14 13
20 21 18 18 17 7 5 6 12 10 8 8 9 8 8 8 6 10 7 4 4 17 18 17 15 16 14 14 13 11 11 9 7 7 6 6 5 5 3 5 5 9 8 10 10 12 13 15 17
23 18 20 16 17 18 6 8 13 13 9 11 12 11 10 9 8 13 7 2 6 6 13 12 14 14 15 13 12 10 9 10 6 5 3 4 3 3 4 4 6 8 9 10 12 12 14 16 17
8 21 18 18 17 14 14 10 10 13 9 12 11 11 10 8 5 3 8 4 2 5 8 10 12 13 12 14 13 10 8 6 8 3 3 2 3 4 4 5 8 8 9 11 11 13 14 14 16
17 18 14 21 19 16 11 18 17 13 12 15 13 10 10 4 7 1 4 3 1 4 4 4 7 9 12 10 13 10 8 7 5 4 2 1 2 3 4 6 8 8 8 11 12 14 15 15 17
9 12 16 19 16 18 12 18 14 12 14 18 13 7 5 7 2 4 2 2 3 3 5 5 7 12 11 10 11 11 8 7 5 5 4 4 2 2 3 5 9 11 10 11 11 14 16 17 18
9 12 24 15 16 14 19 19 16 15 18 10 7 9 8 8 6 7 4 3 4 5 8 6 7 9 12 12 13 13 12 10 10 11 10 7 7 8 9 11 8 10 11 12 13 15 16 19 21
13 16 15 19 15 17 18 18 12 14 7 9 10 8 8 10 8 10 6 7 7 10 12 13 14 15 17 17 17 18 19 20 17 15 15 14 12 12 13 13 12 10 11 13 13 16 17 18 20
15 16 16 17 13 19 20 23 11 12 14 10 11 8 8 11 10 9 11 10 11 14 17 18 19 19 20 20 22 22 22 20 20 18 15 14 14 13 12 11 11 12 12 14 14 16 18 20 21
20 19 18 17 16 21 21 19 15 10 12 15 12 9 9 12 9 7 13 14 15 15 16 18 19 21 22 23 23 24 22 19 18 17 15 12 13 13 13 13 12 13 13 13 15 16 17 15 19
23 21 18 15 22 8 9 9 9 12 14 11 9 10 11 17 13 8 9 16 16 17 18 19 21 22 23 25 24 24 22 18 15 13 13 12 12 14 14 14 13 13 12 13 14 15 16 17 19
22 22 20 25 20 7 9 4 14 24 20 17 10 9 14 15 13 9 9 14 16 17 19 20 21 20 20 19 21 19 19 17 14 13 11 10 11 12 14 13 12 11 10 12 14 14 15 16 18
20 17 18 25 12 9 8 4 7 11 13 21 9 9 14 14 15 12 9 17 17 17 19 20 22 21 20 20 20 20 19 15 13 11 10 9 8 9 13 11 11 11 12 13 14 15 15 15 15
17 15 20 22 10 8 10 7 6 9 11 10 9 10 14 14 14 11 19 20 18 18 19 20 22 21 21 21 20 19 17 14 12 11 9 9 8 8 13 12 11 11 12 13 14 15 18 17 19
23 14 10 4 4 4 16 8 10 4 8 11 12 12 14 13 14 13 10 12 17 17 18 19 21 21 20 20 18 17 15 13 12 10 9 8 8 10 13 12 12 12 13 14 15 17 20 18 21
24 13 5 6 7 5 8 7 4 6 8 9 11 13 14 13 12 12 9 15 19 19 17 19 20 20 19 18 16 14 14 12 11 10 8 9 9 10 11 12 13 14 15 16 18 20 20 21 22
9 10 27 2 6 6 4 3 4 9 6 7 12 14 14 13 14 12 11 18 20 19 19 19 19 19 18 17 15 14 12 11 10 8 8 8 9 9 11 12 14 15 17 18 19 21 22 22 25
12 16 9 3 8 6 5 8 5 9 9 7 13 15 14 13 14 11 10 18 21 20 20 19 18 18 16 15 13 12 11 10 8 7 8 8 9 10 12 13 15 16 18 19 20 21 23 25 25
13 8 7 3 2 4 5 2 7 8 11 10 10 15 15 13 14 13 9 20 22 21 19 19 18 17 15 14 12 11 10 8 7 7 7 9 9 10 12 14 16 18 20 21 23 24 24 25 25
6 7 5 0 3 3 3 2 6 8 7 9 9 15 14 12 12 12 11 18 22 20 19 19 17 16 15 13 11 10 9 6 6 7 7 8 9 11 13 15 17 20 22 23 25 26 26 24 25

GFSSGP_925_spd_027.txt.gz
Wind_Speed
17 20 24 5 4 4 4 6 2 7 4 4 2 2 4 3 3 3 9 12 17 20 23 21 20 17 15 14 11 7 8 6 6 6 7 7 6 6 8 5 4 5 3 4 5 3 4 5 5
17 20 8 2 3 1 5 2 6 4 3 3 6 2 4 3 3 6 6 13 16 17 22 22 20 17 15 13 12 8 8 6 6 7 6 5 5 5 6 5 4 4 2 1 1 1 3 2 1
15 14 2 2 2 4 4 2 3 2 6 2 3 2 3 3 3 5 13 16 16 17 20 22 20 17 15 12 12 9 8 6 6 6 8 6 1 7 4 4 3 4 5 2 1 1 3 4 5
8 7 4 1 9 12 5 6 2 3 6 6 3 4 4 3 2 11 14 17 14 17 17 19 19 19 16 13 14 9 8 6 6 6 8 4 3 4 7 4 1 2 4 3 1 1 1 1 3
7 2 1 3 7 8 6 5 5 3 2 3 2 1 3 4 12 15 13 17 19 20 18 19 18 18 16 15 13 10 7 6 5 9 7 3 4 5 8 4 3 2 3 3 2 0 2 4 4
2 2 1 4 7 9 8 3 3 2 4 7 2 3 0 5 7 13 11 14 17 18 16 16 19 18 17 16 13 10 7 6 6 9 8 5 5 4 7 4 3 4 3 4 4 4 5 6 8
4 1 5 5 8 9 5 5 5 3 2 3 5 3 3 2 7 10 11 12 14 13 12 13 19 18 17 16 14 10 7 6 6 9 8 6 4 3 4 5 5 6 6 6 7 8 7 8 9
3 4 5 5 8 13 4 2 2 4 2 4 3 3 4 6 12 13 11 12 14 11 12 10 17 18 17 15 14 11 9 7 7 7 8 9 9 7 6 5 5 4 6 8 9 9 9 9 10
1 2 8 9 9 12 4 4 2 4 3 2 4 4 7 16 16 14 14 15 16 15 15 14 14 16 16 15 15 14 11 8 8 7 6 5 5 6 7 6 6 6 9 10 10 10 9 9 10
6 5 9 4 8 7 10 7 4 2 2 3 5 6 9 12 13 12 11 16 19 22 20 19 18 16 14 16 16 15 12 10 6 6 8 4 3 4 7 7 5 7 6 7 7 6 9 10 11
4 10 5 5 14 12 8 3 2 1 2 4 5 7 2 9 6 8 8 20 26 27 23 21 20 17 15 19 20 16 10 10 8 8 7 6 4 5 2 4 5 5 7 8 8 9 10 13 14
10 11 14 12 17 15 5 4 3 5 6 4 8 7 4 8 7 7 10 10 13 26 27 25 22 20 21 18 16 10 13 14 10 8 8 8 5 4 4 5 4 5 7 8 10 11 12 13 14
13 13 14 17 17 19 12 10 9 5 7 8 10 10 11 9 10 12 6 4 3 22 28 27 24 23 21 21 17 14 16 13 9 10 9 7 6 3 1 2 2 6 7 9 10 8 9 12 14
9 12 17 19 16 15 17 8 5 7 6 8 10 10 10 10 10 7 4 3 1 5 23 27 23 20 22 19 20 13 12 11 9 8 6 5 4 3 2 4 4 5 4 5 8 11 11 11 12
8 16 15 18 15 13 10 15 11 9 7 9 16 10 12 4 7 7 7 8 4 6 11 16 19 18 16 21 18 14 11 11 8 5 5 4 2 0 1 2 4 8 8 7 6 7 10 12 13
5 5 13 8 10 6 5 21 9 8 8 12 13 10 7 8 8 10 7 5 4 4 5 8 12 14 15 10 19 16 14 14 13 12 10 9 5 3 5 4 9 10 9 8 9 12 13 15 16
5 7 8 10 6 6 10 16 11 9 8 14 9 10 8 7 6 12 9 5 5 6 8 8 9 13 13 15 22 20 20 17 17 13 8 7 7 11 7 7 8 7 7 9 11 12 15 17 19
10 6 6 7 6 10 14 17 10 10 14 18 10 10 8 9 7 13 11 8 6 9 9 9 11 15 27 27 26 27 24 22 14 14 12 11 11 9 8 8 8 9 8 11 13 14 15 14 18
9 11 11 9 10 14 20 19 18 11 11 9 9 8 7 8 7 16 14 12 12 12 13 15 22 27 28 29 29 27 25 23 19 16 13 13 12 11 10 9 10 10 10 11 13 14 17 16 23
14 15 21 15 14 11 14 19 22 18 12 16 11 10 11 8 8 9 16 15 14 14 13 16 18 22 26 26 25 26 26 21 19 16 15 13 12 12 12 11 11 11 10 12 13 15 15 10 19
17 16 17 16 14 15 9 16 21 12 18 12 12 9 16 17 14 9 10 19 17 20 22 23 24 27 28 27 26 27 25 22 19 15 14 12 12 12 12 12 11 11 11 13 13 14 15 14 16
17 16 16 17 13 11 4 7 13 15 16 9 10 9 16 13 10 10 12 18 20 18 21 24 26 28 28 27 29 28 25 21 16 14 12 10 10 12 11 12 11 11 12 12 12 13 14 15 16
16 8 10 14 15 16 18 6 7 7 13 18 19 10 17 18 18 15 14 22 22 21 22 23 23 24 25 25 25 25 23 19 17 15 13 9 8 10 11 10 9 10 11 12 12 13 16 16 13
14 3 8 9 8 11 16 12 6 8 16 10 10 16 17 16 14 13 20 27 25 24 26 27 28 26 26 26 24 23 22 20 17 13 11 8 6 9 11 11 10 10 11 12 13 14 16 16 17
13 4 4 5 6 11 8 15 13 5 8 12 15 18 19 17 17 16 16 16 23 25 26 26 27 26 26 26 23 21 19 17 14 11 8 6 6 9 11 11 11 11 12 12 14 16 17 19 19
10 15 5 7 9 10 14 8 7 21 8 10 20 22 20 18 16 16 15 18 22 25 24 26 27 26 23 22 21 19 17 15 13 10 8 7 8 7 9 9 10 12 13 14 16 18 19 20 21
10 12 20 5 4 1 7 8 4 3 7 16 19 20 19 17 16 16 14 21 24 25 27 27 26 24 22 21 20 18 16 14 12 9 8 7 6 7 9 10 12 14 15 16 18 19 21 22 22
12 12 8 6 3 7 5 5 5 6 9 13 18 18 16 16 15 14 14 20 24 28 28 26 24 24 22 20 18 17 15 12 9 7 8 7 6 7 9 12 14 16 17 18 20 22 23 21 25
12 11 7 4 9 3 5 4 5 11 14 17 18 18 18 18 16 15 14 21 26 29 29 26 24 24 21 19 17 16 13 10 7 7 6 7 7 9 11 13 15 17 19 22 22 22 21 24 18
13 9 9 8 9 15 4 3 4 9 10 13 14 16 16 17 15 14 14 21 23 26 28 28 24 22 20 18 16 14 11 8 6 5 6 6 8 10 12 14 17 19 22 23 23 24 26 19 25

GFSSGP_925_spd_030.txt.gz
Wind_Speed
20 21 20 5 3 4 3 5 2 4 5 5 2 5 3 1 2 3 5 19 14 25 27 21 22 20 17 17 13 12 11 10 9 9 10 11 9 8 8 5 5 4 3 3 3 4 4 4 4
18 21 5 2 3 1 4 4 1 2 3 8 5 5 3 2 1 4 8 16 17 24 26 24 22 20 18 16 15 13 11 10 10 10 10 9 8 9 8 5 5 4 2 4 3 5 7 7 6
15 7 3 3 3 4 4 3 5 5 3 5 3 5 3 1 1 5 6 21 20 23 26 24 22 20 19 16 16 12 10 9 10 11 11 9 7 10 8 6 4 2 2 0 2 3 4 5 6
6 6 3 2 8 8 5 6 6 5 3 3 2 5 3 2 5 8 14 21 20 20 24 23 22 21 19 15 16 13 10 8 9 10 11 9 6 11 10 6 2 1 2 2 1 1 1 2 3
2 3 0 3 7 6 3 5 5 6 1 3 4 2 3 2 8 14 17 21 20 20 22 22 23 21 20 17 16 13 10 7 9 10 10 7 7 6 11 6 3 1 2 2 2 0 3 4 5
2 3 2 6 7 7 6 7 4 3 2 4 3 2 2 3 13 14 17 18 19 21 22 22 22 23 20 19 16 14 10 8 9 11 9 6 7 7 9 7 4 3 2 2 2 4 5 6 6
5 4 5 5 6 7 5 5 3 4 5 2 2 2 2 4 11 15 12 20 20 20 21 22 22 23 21 19 17 14 10 9 10 12 11 8 7 7 8 7 5 4 3 4 5 6 7 7 9
3 4 5 6 6 11 5 3 2 4 4 2 4 3 3 6 14 15 12 19 21 20 19 18 23 23 22 19 17 15 12 11 11 11 12 9 8 6 6 5 5 4 4 6 7 7 7 8 8
1 1 7 9 8 7 6 4 5 2 4 2 2 4 5 8 13 15 17 18 22 21 19 18 22 24 22 20 19 16 13 12 10 10 8 8 8 7 8 7 5 4 5 6 5 6 5 6 7
5 5 9 6 9 9 3 1 7 2 1 1 1 3 8 13 12 11 11 17 22 25 25 22 21 22 22 21 19 18 15 13 10 9 9 8 6 6 6 9 7 4 3 4 4 5 5 7 8
5 14 7 6 11 9 5 4 5 4 5 5 4 2 2 5 10 13 17 22 28 29 27 27 25 22 22 22 21 20 17 14 11 10 10 9 7 6 6 4 5 5 6 6 6 7 8 9 10
7 5 11 6 6 5 4 3 6 5 7 4 5 4 3 6 8 13 18 23 27 27 29 29 28 26 24 23 21 21 18 15 13 11 11 10 8 8 6 5 5 6 7 7 9 9 9 9 10
5 5 10 9 10 14 14 12 9 10 10 8 8 7 7 8 8 18 18 14 11 22 32 32 29 28 26 25 22 22 19 15 12 12 11 11 9 6 3 2 0 3 6 5 5 4 5 7 8
5 6 7 8 12 9 12 17 6 9 10 10 8 10 9 10 10 11 13 14 13 13 29 33 30 27 28 26 23 19 15 17 13 13 8 10 6 4 2 2 3 3 3 3 4 5 5 6 9
5 9 9 7 4 6 7 22 21 9 8 10 10 10 8 11 14 15 18 16 10 12 18 30 30 27 26 26 23 19 16 17 18 12 12 9 4 3 2 0 4 6 5 3 4 6 8 10 12
4 3 4 2 7 5 7 26 7 8 8 11 10 11 8 10 11 14 14 13 11 12 14 17 24 22 25 22 24 19 17 20 19 17 14 10 7 3 3 4 6 5 4 5 8 10 12 14 15
3 5 6 5 10 5 13 23 11 10 8 10 10 10 9 8 6 12 13 12 11 11 13 16 15 17 20 22 22 22 24 22 22 19 15 10 3 4 2 3 5 4 5 8 10 10 13 14 17
11 5 6 6 5 9 16 18 9 9 8 12 13 13 8 8 11 15 13 11 10 11 13 13 13 17 22 28 29 28 27 24 21 19 15 11 9 7 5 7 6 6 8 10 11 12 12 10 19
8 5 8 2 7 7 12 17 18 14 11 10 13 10 8 9 5 11 12 12 13 13 12 13 19 26 32 34 33 30 28 25 22 18 14 13 11 9 8 8 8 9 11 11 12 12 14 10 21
10 14 18 8 8 11 10 16 14 18 18 14 18 11 9 6 7 7 12 14 15 15 16 20 27 28 30 33 27 28 28 22 22 20 17 14 11 10 9 9 10 10 10 11 12 14 12 9 16
14 15 9 8 9 15 15 21 13 15 17 14 18 15 8 16 14 8 9 15 18 18 20 23 25 26 28 29 30 29 27 25 24 20 18 14 11 10 9 9 9 10 10 11 11 12 14 12 10
16 7 11 10 10 5 2 10 7 8 15 16 21 10 11 14 8 7 7 11 21 22 23 25 28 29 29 29 29 30 27 26 21 19 16 13 10 9 9 9 9 9 10 10 11 11 14 13 12
11 10 9 9 12 10 17 9 8 14 17 17 19 14 15 18 17 15 12 18 23 26 28 29 32 30 27 26 27 28 26 24 21 18 15 11 9 9 9 9 8 8 9 9 10 12 14 12 13
3 5 9 3 5 9 19 11 10 12 14 11 18 11 14 16 13 10 14 21 24 26 30 30 30 28 27 28 27 27 27 25 23 17 13 9 6 7 8 8 8 8 9 10 11 12 12 13 13
16 8 4 7 7 11 9 11 21 7 13 15 13 13 16 18 18 16 15 14 20 26 31 31 32 29 29 28 27 25 24 22 19 15 11 8 5 6 7 7 7 9 9 10 12 13 14 15 16
12 15 5 6 3 8 6 10 8 16 25 21 9 12 18 19 19 18 16 18 21 25 30 32 33 31 30 28 26 23 21 19 16 12 9 7 5 5 5 5 7 8 10 11 13 15 17 17 17
4 12 23 6 4 3 6 5 10 12 7 7 11 18 20 19 19 18 14 20 22 26 30 34 34 31 29 28 26 22 19 17 15 11 8 6 5 3 4 6 8 10 12 14 16 17 18 18 19
16 7 5 6 4 5 5 7 12 14 10 7 15 17 17 16 16 15 13 18 20 27 31 32 31 30 28 26 24 21 18 15 12 9 7 5 3 4 6 8 10 13 15 17 18 18 19 18 20
7 10 8 6 7 3 3 6 10 16 14 15 14 17 20 19 17 15 13 18 23 29 31 30 29 29 26 24 23 20 17 13 10 7 5 4 3 5 7 10 13 15 17 19 19 20 21 20 16
23 20 18 7 8 6 4 7 4 8 15 18 16 14 14 16 15 14 14 20 22 24 29 30 29 28 25 23 21 18 15 11 8 6 4 3 4 6 9 12 15 17 19 21 21 21 19 20 25

GFSSGP_925_spd_033.txt.gz
Wind_Speed
18 19 16 4 3 4 2 5 2 5 1 1 4 4 3 2 3 3 1 18 9 25 27 23 22 20 16 16 15 13 11 9 9 8 9 9 8 7 6 6 5 4 2 2 2 3 2 4 2
15 15 4 2 3 2 4 4 1 5 3 6 1 0 2 1 0 1 5 18 13 26 27 23 23 21 17 17 15 12 11 10 9 9 11 10 9 9 7 5 4 3 2 2 3 4 5 4 3
10 5 3 3 3 5 5 4 4 7 8 2 2 3 1 3 1 8 4 15 22 24 25 23 23 20 19 17 15 12 10 10 10 10 11 9 7 10 8 5 5 2 1 2 2 3 4 5 6
4 5 4 3 8 6 6 4 3 9 6 2 4 2 2 3 2 5 13 18 21 22 23 23 22 21 19 16 16 13 11 10 10 11 11 9 7 12 10 6 3 1 1 2 2 2 2 2 3
3 3 1 3 7 5 4 4 4 6 4 2 1 3 1 5 2 11 20 19 19 21 22 23 22 21 19 18 16 13 11 10 10 10 11 9 6 10 10 8 4 1 0 1 3 2 1 3 4
2 3 2 7 7 3 5 5 2 3 4 2 3 3 3 3 6 13 20 19 17 18 21 22 23 22 20 18 16 14 12 10 9 11 10 7 8 5 12 9 5 3 2 1 1 3 4 5 5
4 3 5 4 5 6 6 4 3 5 3 4 6 5 2 3 10 10 17 18 17 18 20 22 23 23 20 19 18 15 13 10 9 12 11 8 7 9 9 7 5 5 4 3 3 5 6 6 8
4 4 3 6 6 10 4 1 2 5 7 1 3 3 2 4 9 10 12 18 18 20 21 23 23 24 22 20 19 16 14 11 10 12 13 9 8 8 8 7 6 4 4 5 6 6 6 6 7
3 2 8 11 8 6 1 1 3 3 3 1 1 4 3 7 15 11 9 14 18 21 23 23 24 25 24 22 20 17 15 12 11 10 12 10 10 8 8 6 5 4 5 5 5 6 5 6 8
4 5 8 4 4 5 3 5 5 4 5 3 1 1 5 12 15 12 11 16 20 23 25 25 23 26 25 24 22 20 17 14 12 12 10 9 8 7 7 7 7 6 5 4 5 6 7 8 9
4 14 7 3 5 7 3 4 3 3 5 6 5 3 5 5 5 8 14 20 27 28 25 27 25 25 26 26 23 21 19 15 13 11 12 10 7 6 7 6 6 6 6 6 7 8 9 9 9
5 4 5 3 3 3 4 3 4 5 7 4 6 4 2 5 8 10 14 22 24 26 28 29 28 26 26 26 22 22 20 17 14 13 12 10 8 8 6 5 3 4 5 7 8 8 7 6 7
5 2 5 6 8 7 8 12 8 10 9 10 9 6 9 7 8 16 18 18 25 29 32 33 31 29 28 27 23 22 20 17 15 13 11 10 9 7 4 3 2 1 1 1 2 2 3 5 7
3 4 6 5 7 6 9 12 4 4 6 9 9 11 10 9 10 11 12 16 17 26 28 35 35 33 30 28 24 21 20 18 16 13 9 8 7 8 6 6 5 4 4 3 2 5 6 8 11
4 6 6 6 4 6 2 20 23 9 9 10 11 10 10 10 12 12 22 22 23 25 24 27 35 33 32 29 25 22 22 20 13 11 12 13 11 11 7 4 4 5 4 4 5 7 8 10 12
3 2 2 4 10 6 9 26 2 13 15 12 12 10 10 10 11 19 20 22 18 19 20 21 30 32 30 28 25 21 16 15 17 18 19 14 10 7 2 3 4 4 5 6 8 10 12 13 16
3 6 3 6 6 5 11 13 7 10 9 10 10 9 10 9 9 16 16 15 14 12 11 14 25 29 27 26 22 21 20 23 23 21 18 15 12 6 2 5 4 4 6 8 10 11 14 14 18
4 8 5 5 2 2 14 19 8 9 7 11 10 10 9 9 12 16 14 13 14 13 12 13 17 24 26 27 28 27 28 27 25 21 17 15 13 9 7 7 6 6 7 9 12 11 11 9 20
6 5 6 3 7 5 8 12 10 8 11 16 11 11 10 9 6 10 13 12 13 13 16 17 20 24 30 34 35 33 30 28 24 20 17 15 12 11 8 8 7 8 10 11 12 11 13 12 21
7 14 13 8 8 8 10 20 15 16 18 14 15 15 13 6 6 7 13 14 16 17 16 19 22 27 30 34 33 34 33 26 25 22 18 16 13 11 9 8 9 10 9 10 12 14 12 11 17
11 15 11 10 7 12 9 26 20 16 17 16 18 16 14 13 10 8 9 17 17 18 18 22 26 28 30 34 33 33 28 28 26 22 20 16 12 10 8 8 8 9 9 10 11 13 14 11 10
19 9 14 13 5 5 1 9 7 7 15 18 17 16 14 11 9 8 7 11 21 20 20 24 28 30 32 34 37 36 29 25 23 22 19 16 12 10 8 8 8 8 8 9 10 10 12 10 9
8 9 9 11 8 7 17 6 5 9 17 16 8 15 12 12 14 13 13 17 24 24 26 27 29 31 31 33 33 31 30 29 26 23 19 14 11 9 8 7 7 7 8 8 8 10 11 11 9
2 8 14 10 9 12 10 11 7 10 14 9 10 12 10 13 13 10 12 19 22 24 28 30 31 30 28 28 27 30 33 32 28 21 17 13 10 8 7 7 7 7 7 8 9 10 10 10 11
11 6 4 7 8 10 8 12 22 8 6 6 9 9 12 10 14 15 16 13 20 26 30 32 31 27 26 26 28 29 30 28 24 20 15 12 9 7 6 6 6 7 7 8 10 11 12 12 12
17 13 5 5 4 6 7 9 11 15 22 23 20 10 7 10 14 18 18 16 21 26 30 31 32 30 29 29 28 27 25 23 20 16 14 10 8 6 5 5 5 6 8 9 11 12 13 13 13
6 13 15 6 4 4 5 8 13 14 15 10 11 9 12 15 15 18 16 19 22 25 28 33 33 31 30 30 29 26 24 21 19 16 12 10 8 6 4 4 5 7 9 11 13 14 15 16 15
8 6 5 6 6 6 7 7 12 9 23 23 10 9 9 12 14 14 14 18 21 27 31 32 34 33 32 30 28 26 23 19 16 13 11 8 6 4 4 5 7 9 11 13 14 15 16 15 16
7 6 6 4 4 4 3 7 3 12 16 12 8 10 14 16 16 15 13 18 22 28 30 31 33 33 31 29 27 25 21 18 14 11 9 7 5 4 5 7 9 11 13 15 16 16 15 17 20
20 15 12 6 7 7 2 10 2 8 13 8 10 12 11 12 14 14 14 19 22 24 28 30 32 32 30 28 26 23 19 15 12 10 8 6 5 5 6 8 11 13 14 16 17 15 18 20 21

GFSSGP_925_spd_036.txt.gz
Wind_Speed
15 16 13 5 3 4 3 5 1 5 3 0 1 3 4 2 4 4 1 15 9 23 26 23 18 17 15 12 12 11 8 8 7 7 7 7 6 4 2 3 4 3 2 3 3 3 6 6 5
14 10 4 2 4 1 5 4 3 3 5 7 3 3 1 2 1 0 4 16 11 25 26 24 21 17 15 14 13 10 8 7 8 7 9 8 7 7 5 4 3 1 0 0 1 3 2 2 1
8 5 3 4 3 6 5 4 4 5 7 3 1 1 4 2 1 3 2 18 15 25 26 24 22 19 16 15 13 11 10 8 8 9 10 9 8 6 6 5 4 1 1 1 2 3 4 5 5
3 5 4 3 8 5 6 2 3 9 7 2 2 1 1 1 1 3 7 15 18 23 25 23 22 19 18 14 13 11 9 8 8 9 10 8 7 9 8 3 2 2 2 2 2 2 2 2 2
3 3 1 2 7 4 4 3 4 5 5 3 2 3 2 0 2 5 14 16 18 21 22 22 22 20 18 15 14 12 10 9 8 9 9 9 5 11 7 6 3 1 1 2 3 2 1 2 3
2 3 2 7 6 3 5 5 2 3 4 6 2 4 3 1 5 11 14 15 15 18 21 21 21 20 17 17 14 12 10 8 8 9 10 8 7 7 10 8 4 2 1 1 1 1 3 4 4
5 4 5 4 5 5 5 5 4 4 5 5 2 3 3 2 6 12 15 14 14 16 19 20 22 21 18 18 14 13 10 9 7 9 9 7 7 4 7 6 4 4 2 3 3 4 5 6 6
4 3 3 6 6 6 3 3 2 4 5 2 4 4 2 3 11 12 15 14 14 15 18 20 22 21 20 19 16 14 11 9 7 9 10 8 5 5 5 5 4 4 3 4 5 5 5 5 5
3 2 6 6 7 5 1 1 2 3 3 3 2 3 3 3 13 13 13 13 15 17 19 20 21 23 22 20 18 16 13 10 8 9 10 9 7 6 6 6 5 4 3 4 4 4 4 5 5
4 4 6 5 5 3 3 1 4 5 6 4 4 2 3 10 14 12 10 15 19 21 22 21 22 23 23 22 20 18 15 12 10 9 9 9 7 6 7 6 7 5 4 4 4 5 5 6 7
3 7 4 3 3 3 3 5 2 2 5 7 3 6 5 1 5 8 11 14 21 21 22 24 23 23 23 24 22 20 17 14 12 10 10 8 6 5 5 5 6 6 5 6 5 5 5 6 6
3 6 4 3 3 4 3 4 6 4 7 4 4 5 4 4 6 9 13 17 18 19 21 23 24 23 24 25 22 21 20 16 14 12 11 10 8 6 5 3 3 3 3 4 5 3 3 3 5
3 3 4 4 6 6 6 10 8 9 9 10 11 7 9 8 9 14 16 15 16 20 24 26 26 26 25 26 24 22 21 18 15 13 12 10 8 6 4 3 2 1 1 1 1 2 4 5 6
2 3 6 6 5 5 7 10 3 9 7 9 9 10 10 9 12 14 14 19 17 20 21 23 29 30 28 28 26 23 22 19 16 15 12 10 8 7 6 5 4 2 2 1 2 4 5 7 8
4 5 6 6 6 7 4 15 19 14 11 14 14 10 10 11 12 17 20 16 20 23 22 22 25 31 33 30 27 24 21 20 17 14 13 13 13 10 9 8 4 2 1 2 3 5 6 7 9
3 2 2 5 6 6 10 19 11 9 18 17 14 11 10 14 14 20 20 19 21 22 20 17 20 27 34 32 29 25 19 18 17 16 17 18 14 12 11 8 5 4 2 4 6 8 9 11 14
5 5 5 5 3 4 10 5 3 6 6 9 10 10 11 12 11 25 27 21 20 15 13 14 18 25 32 31 27 23 20 19 20 22 21 19 17 14 11 6 4 3 4 6 9 10 13 15 19
5 5 4 5 3 4 9 14 14 14 11 12 10 9 9 10 13 20 18 18 15 12 10 10 16 23 29 28 26 25 23 24 26 24 22 19 15 11 9 9 6 4 5 8 10 10 12 14 19
3 3 6 4 8 7 11 16 17 13 9 11 12 11 11 11 11 15 17 15 14 15 13 12 17 24 30 32 32 29 31 29 27 24 21 17 15 14 11 10 8 6 8 11 11 10 12 15 21
8 14 17 12 10 10 13 25 18 17 17 14 15 16 12 10 7 8 11 14 17 18 17 16 19 26 31 32 30 32 35 29 28 24 21 18 16 14 12 10 9 8 9 10 12 14 11 11 19
8 13 14 14 6 13 12 27 20 21 23 22 22 20 17 14 12 8 8 19 17 19 21 22 23 26 30 32 33 34 30 29 27 25 23 20 16 14 11 10 9 9 10 11 12 13 14 12 13
16 8 13 12 5 7 4 12 9 4 11 14 17 15 15 13 9 8 9 11 21 21 19 22 25 27 29 33 38 43 33 27 21 27 24 21 15 14 11 10 9 10 10 10 11 11 12 11 11
5 7 9 8 7 8 12 5 5 4 11 11 9 11 14 15 16 13 12 20 25 22 22 23 25 27 29 33 39 36 29 22 32 29 24 21 17 13 11 10 10 10 9 9 9 10 11 10 7
1 7 5 6 5 10 11 12 23 10 10 9 10 11 14 14 13 12 12 19 23 22 24 26 28 28 31 33 34 34 34 37 33 28 24 20 16 13 11 10 9 9 8 8 9 9 9 8 8
9 3 3 5 7 9 7 10 23 5 7 8 10 11 10 9 9 10 12 12 20 26 29 30 31 30 30 31 30 31 34 34 32 27 23 19 16 13 11 9 8 8 8 7 7 8 8 8 8
13 12 5 5 4 4 5 10 15 12 20 21 19 14 8 5 7 11 14 13 22 26 30 29 32 31 29 28 28 29 30 30 26 22 19 16 14 12 10 8 7 7 6 6 8 8 9 9 10
5 12 13 8 7 5 5 8 11 11 16 15 10 10 9 8 9 11 11 17 22 25 27 32 33 31 29 29 30 31 29 27 25 21 18 16 13 11 9 6 6 5 5 7 9 10 10 11 10
12 4 5 6 6 7 6 7 11 14 12 15 20 16 8 7 8 9 11 12 18 22 29 32 34 34 32 32 32 31 28 25 23 20 18 14 13 10 7 6 5 5 6 7 9 10 10 10 13
7 9 7 4 4 5 3 7 5 7 2 12 14 11 10 14 14 12 11 16 21 25 28 31 34 37 35 33 32 30 27 24 21 19 16 13 11 8 6 5 4 5 7 9 11 11 11 15 16
15 15 19 5 5 4 3 14 5 7 8 12 12 6 5 7 11 12 13 17 22 24 26 30 33 37 35 33 31 29 26 22 20 17 14 11 9 7 5 4 5 7 9 11 12 13 14 16 18

GFSSGP_925_spd_039.txt.gz
Wind_Speed
12 13 10 4 1 2 2 4 2 2 1 1 3 3 2 1 3 2 1 13 10 27 26 23 21 17 15 12 11 10 8 6 5 6 6 7 7 5 3 4 4 3 4 3 4 7 11 11 10
10 8 4 2 2 1 3 3 4 2 3 7 1 2 1 1 1 1 6 11 13 25 26 22 20 19 16 13 11 10 8 6 6 6 6 6 5 5 5 5 3 2 2 1 2 2 3 3 4
4 4 1 2 3 6 4 4 3 4 8 3 1 2 2 2 3 2 3 13 17 24 23 22 20 17 15 14 12 9 8 8 8 9 9 9 8 6 5 5 4 3 3 1 1 2 3 4 4
1 3 3 2 9 5 5 1 2 6 3 1 1 4 2 2 1 3 6 15 18 24 22 21 19 17 15 14 12 11 9 8 9 10 9 7 6 6 5 3 3 4 4 5 3 2 1 1 1
4 2 2 3 8 3 4 4 3 3 3 5 2 2 2 1 3 4 13 16 19 22 23 20 20 18 16 14 12 11 10 9 8 9 9 8 4 8 5 3 1 3 4 5 5 4 3 3 3
2 2 2 9 8 3 5 5 2 2 2 4 3 1 3 2 4 9 15 15 16 21 23 21 21 19 17 16 12 11 10 8 8 9 9 8 4 5 7 5 1 1 3 4 3 3 4 4 4
4 3 4 4 4 5 5 4 4 5 4 4 2 2 2 3 6 12 13 13 14 17 22 21 20 20 17 17 13 12 10 8 7 9 10 8 5 4 7 6 2 0 2 2 3 4 4 4 4
3 3 5 5 9 9 2 4 2 4 3 2 3 3 2 0 10 13 13 12 11 14 19 20 22 20 17 17 15 12 11 8 7 8 10 8 6 4 6 3 2 1 1 2 3 4 3 3 4
2 2 6 7 7 6 2 2 1 1 1 3 2 2 3 1 12 13 11 11 12 14 17 19 20 20 20 18 17 14 12 9 8 8 10 9 7 6 5 4 3 2 1 2 2 2 3 4 4
3 3 7 6 5 3 2 0 2 2 3 3 3 2 8 3 8 12 12 13 14 16 17 19 20 21 21 19 19 17 14 12 10 10 10 9 7 7 6 5 4 3 2 2 3 4 4 4 4
4 6 3 3 2 1 2 3 2 2 5 7 5 4 5 1 5 8 9 12 15 16 18 20 19 20 21 22 22 20 18 15 12 11 10 9 7 6 5 4 4 3 4 3 4 4 3 3 3
2 6 5 3 3 5 6 2 5 5 8 2 4 4 5 9 7 9 12 12 14 15 18 20 21 21 22 21 23 22 20 17 14 12 12 10 8 6 3 2 2 2 2 2 2 0 2 3 5
3 3 4 4 6 5 5 12 13 12 11 9 10 9 13 11 13 13 14 14 12 16 17 21 22 23 23 24 23 23 22 19 15 13 12 11 9 7 3 3 3 3 3 2 1 1 2 4 6
1 4 6 7 8 5 10 16 6 11 12 17 12 15 14 11 14 13 15 19 18 19 19 17 24 26 25 26 25 24 22 21 17 16 14 11 10 10 9 8 6 4 3 3 0 3 4 6 7
2 5 7 9 7 7 3 14 15 18 14 15 14 12 13 15 17 16 21 23 24 20 17 18 18 25 30 29 26 25 24 22 21 19 16 15 14 13 13 11 8 6 2 1 1 3 4 6 7
3 2 5 3 2 7 11 17 8 11 13 20 20 19 17 21 20 23 28 23 23 21 21 19 19 23 28 30 28 26 23 22 22 20 18 18 16 17 16 13 11 6 3 1 2 4 6 9 11
2 3 5 6 1 4 11 7 2 3 4 7 9 13 14 16 19 22 28 26 26 23 21 19 19 23 26 28 29 26 24 22 22 21 21 20 20 18 15 13 10 8 5 4 4 7 8 12 14
5 4 4 5 3 6 14 19 16 15 13 17 14 12 12 13 16 20 25 22 18 19 18 16 18 22 23 26 28 26 24 22 23 23 23 24 22 18 14 13 11 9 7 6 6 7 10 13 15
2 2 9 9 9 12 13 20 17 16 16 16 17 17 16 14 15 20 23 21 18 18 17 17 18 23 27 31 31 24 25 25 25 27 27 24 21 18 15 15 12 9 7 8 7 6 9 13 17
8 12 15 10 11 8 13 28 19 18 22 20 20 18 18 17 14 14 19 22 19 20 20 18 20 25 28 30 25 23 30 26 29 28 26 22 19 18 16 13 11 9 8 8 9 9 6 9 15
7 13 13 13 10 12 16 24 15 13 19 20 20 22 21 20 19 17 13 19 23 21 25 23 22 26 29 32 32 29 28 28 25 25 25 21 20 18 15 13 11 10 8 9 9 10 9 6 9
13 8 12 13 7 7 2 11 8 10 14 14 13 15 18 21 19 19 15 15 22 28 25 23 23 28 29 33 35 42 30 25 19 30 27 23 20 18 14 12 11 10 9 8 9 9 9 7 6
6 4 6 7 8 10 13 6 9 1 6 10 11 15 16 19 19 21 18 23 26 27 27 25 26 27 30 33 35 31 27 22 32 31 29 24 20 17 15 12 11 10 9 8 7 7 7 7 5
2 3 8 8 5 9 13 11 19 11 12 10 10 13 11 14 17 18 17 20 18 26 26 26 28 27 29 32 35 35 39 36 36 32 29 26 21 18 15 13 11 10 8 7 6 6 6 6 5
8 3 2 3 5 7 6 10 20 3 9 7 12 11 12 11 9 10 11 12 17 23 27 28 29 27 30 31 31 32 34 38 39 34 32 27 23 19 15 12 10 9 7 6 5 5 6 6 6
10 10 5 7 5 3 3 10 8 6 12 14 18 13 13 9 7 11 14 12 21 24 27 27 28 27 28 30 30 32 34 36 35 32 29 24 22 18 15 12 9 7 5 4 5 6 6 6 7
6 11 14 8 10 8 8 13 17 21 15 8 12 14 14 11 10 11 11 15 21 24 29 33 33 30 30 31 33 33 33 34 34 30 26 23 20 18 13 10 8 6 4 4 6 6 7 7 7
6 1 4 7 5 8 6 9 13 4 10 6 10 11 14 12 9 9 13 14 19 22 23 27 32 32 32 32 33 36 37 34 31 28 25 22 18 15 12 9 7 4 3 5 6 7 7 7 9
9 11 8 4 5 5 7 8 7 12 6 5 8 9 10 11 10 11 9 15 19 20 24 27 33 35 34 35 38 39 36 32 29 26 23 19 17 13 10 7 5 4 4 5 7 7 7 9 10
15 12 18 9 8 6 10 17 7 7 7 3 9 9 8 4 5 9 12 17 21 21 23 26 29 32 36 39 40 37 34 31 27 24 20 17 16 12 9 6 4 4 5 6 7 8 8 10 12

GFSSGP_925_spd_042.txt.gz
Wind_Speed
10 9 6 4 5 5 7 5 2 4 4 1 3 6 4 6 3 1 5 8 10 21 19 20 18 14 13 13 14 13 12 11 10 10 8 9 10 7 4 5 4 4 4 3 4 10 14 13 11
7 5 3 2 6 9 8 6 8 2 4 7 7 7 7 2 0 4 10 8 14 19 19 20 19 16 15 13 14 13 12 11 11 11 10 8 7 7 7 6 5 4 3 2 1 3 7 6 6
3 2 4 4 8 13 5 6 6 2 4 4 3 3 3 1 3 4 4 10 18 19 19 18 20 18 15 15 14 12 11 11 10 12 12 11 11 9 8 7 5 5 4 3 2 1 0 0 2
4 5 3 9 16 11 11 2 7 2 3 1 4 5 2 1 2 4 9 10 16 18 18 19 20 18 15 14 13 11 10 11 12 13 12 11 8 8 7 6 5 6 7 6 5 3 3 2 3
5 3 8 12 20 15 10 6 5 6 4 4 4 1 2 3 3 5 13 13 16 17 16 17 20 17 15 14 13 11 10 10 11 12 10 8 7 8 4 3 4 5 6 7 6 5 5 3 3
6 5 8 16 20 11 12 11 9 11 6 5 5 5 1 2 4 7 12 12 14 17 17 16 18 17 15 14 13 11 10 9 10 10 10 8 3 5 8 3 2 3 4 4 4 3 3 2 2
12 9 15 17 18 15 15 8 11 11 10 9 3 5 2 3 4 9 11 11 12 15 16 15 16 16 16 15 13 11 10 9 8 10 10 8 5 4 9 5 2 2 3 2 2 2 2 2 2
7 7 15 14 18 20 7 9 7 8 10 1 3 6 5 4 6 10 11 12 12 14 15 15 15 16 15 14 14 12 10 8 8 10 11 9 5 5 10 5 2 2 1 1 1 2 2 2 2
3 8 13 20 15 11 5 9 8 3 8 3 4 3 3 1 8 10 11 12 12 13 15 15 16 16 15 14 15 12 11 9 8 9 11 8 7 6 7 6 4 3 2 0 1 1 1 2 3
9 10 16 8 12 8 5 8 6 5 10 11 8 4 2 3 9 11 13 14 14 14 16 16 16 17 16 14 13 14 12 10 8 9 9 8 7 7 6 5 5 4 3 2 1 1 2 3 2
9 14 11 6 7 3 8 10 8 10 15 12 10 5 1 2 7 9 11 11 13 14 15 17 17 17 17 16 15 14 13 11 10 10 10 9 8 6 6 5 4 4 4 2 1 1 1 2 1
8 11 12 8 8 8 11 10 14 16 18 4 6 5 8 8 5 8 12 11 10 12 14 16 18 18 18 18 17 16 15 14 12 11 11 10 9 8 6 4 4 3 3 2 1 2 2 2 3
11 10 8 10 9 11 12 18 20 19 18 17 16 15 16 14 13 11 11 11 11 13 14 16 18 19 19 20 19 18 17 16 14 13 13 11 10 9 7 5 4 4 4 4 3 0 2 2 4
1 6 11 10 13 14 17 21 18 19 20 22 22 23 21 21 20 17 13 13 14 15 15 15 19 20 19 21 20 22 18 17 16 15 15 14 11 12 10 10 8 6 4 4 2 1 1 3 5
6 11 12 13 12 13 10 20 20 23 23 25 22 21 20 22 27 22 20 16 14 15 13 14 17 19 21 21 21 21 20 19 18 17 17 18 16 13 12 13 11 8 6 3 2 1 2 4 5
4 5 5 2 2 5 9 18 7 9 14 17 21 22 22 23 24 29 26 22 18 15 15 12 14 18 21 22 22 21 21 21 19 18 18 17 17 16 17 15 11 9 6 4 2 1 2 4 6
7 7 9 9 1 4 12 12 5 3 8 12 14 14 15 17 21 27 29 25 22 18 17 14 13 16 20 22 21 21 21 22 20 19 18 21 17 17 17 13 11 7 6 5 3 2 3 5 7
6 8 8 10 2 9 16 22 20 19 22 21 18 17 16 17 18 19 22 24 25 22 20 18 14 14 17 18 21 21 21 20 19 19 17 22 18 21 19 14 11 7 7 5 3 4 5 7 9
1 6 9 10 10 18 19 23 21 21 22 23 22 21 22 22 19 22 21 19 18 19 18 18 16 15 17 21 23 24 23 18 17 19 21 20 22 22 18 14 12 9 7 6 4 4 6 7 10
14 15 15 13 11 10 18 32 24 26 24 24 24 23 24 24 23 23 26 26 22 20 20 18 17 18 20 20 21 22 20 13 21 21 22 19 23 21 18 14 12 10 8 7 7 5 3 5 9
15 15 14 16 15 17 20 25 16 5 10 16 20 23 23 24 24 23 23 28 26 22 21 20 19 19 21 20 20 18 16 18 19 19 23 21 21 20 18 15 12 11 8 8 7 6 5 4 5
13 8 13 13 9 6 3 11 17 16 18 17 19 17 19 20 21 22 23 25 29 25 21 20 20 21 22 25 23 25 22 23 16 21 24 24 20 18 16 14 12 10 9 9 7 6 5 3 2
6 5 7 9 11 13 14 6 13 6 15 15 14 15 15 15 16 18 21 27 28 25 22 20 20 22 23 25 23 24 20 19 23 20 25 25 22 18 16 13 12 11 9 8 7 6 4 2 1
3 7 9 8 5 8 15 15 19 12 10 8 7 6 10 11 12 16 20 22 25 24 21 22 23 23 23 24 23 25 26 28 28 25 30 28 22 19 13 13 11 10 9 8 6 5 3 1 1
11 4 3 4 6 8 1 12 22 2 6 11 12 12 15 14 14 13 14 16 21 23 23 24 26 25 24 24 26 25 26 27 30 32 33 28 20 16 14 13 11 9 8 7 5 3 1 1 1
16 11 5 6 5 7 4 11 9 4 3 5 7 14 13 14 15 16 15 15 21 25 26 26 27 25 25 25 25 24 26 28 29 29 30 24 19 15 14 12 11 10 7 6 4 1 0 1 2
7 10 13 16 16 11 10 20 26 26 23 20 19 7 9 13 15 15 15 13 20 23 27 28 28 25 26 26 26 26 26 31 30 33 28 21 17 16 14 12 10 8 6 5 2 1 2 2 3
13 1 3 5 5 9 11 19 15 8 13 8 7 8 11 14 16 12 13 13 18 23 25 24 25 26 27 27 27 27 28 34 34 31 24 18 17 16 14 11 9 7 5 3 1 1 2 3 5
9 8 7 5 6 6 10 13 6 9 10 12 6 7 12 12 15 9 9 12 17 21 25 25 26 27 27 26 27 30 35 36 32 23 20 18 17 15 13 10 8 5 3 1 0 2 3 5 7
15 12 19 7 8 9 12 22 13 15 11 7 7 10 11 8 11 7 4 10 17 21 25 28 27 26 26 27 30 35 36 31 25 22 20 18 17 14 12 9 6 4 2 0 2 3 5 7 9

GFSSGP_925_spd_045.txt.gz
Wind_Speed
10 9 9 7 6 7 13 10 10 6 5 8 3 5 7 10 7 1 8 6 15 20 21 21 20 16 12 12 13 12 11 10 9 9 8 9 11 7 7 6 5 6 5 6 7 13 11 11 13
8 7 9 6 7 12 11 13 8 9 2 3 8 9 8 7 5 8 12 8 17 19 19 19 20 16 13 12 13 12 11 10 10 9 10 12 8 7 8 7 5 5 4 2 5 7 9 9 8
8 7 7 6 13 15 13 6 8 4 4 6 4 4 2 2 5 11 9 14 19 18 18 21 20 14 13 14 13 12 11 10 10 11 9 9 9 9 9 8 6 6 5 4 4 5 5 5 4
7 7 6 10 18 17 18 3 7 6 5 3 3 5 4 5 4 5 14 15 18 17 17 20 20 17 13 14 13 12 12 11 11 12 13 14 11 10 10 8 7 8 8 7 5 4 2 2 4
13 8 11 15 22 21 9 11 5 7 3 6 2 9 1 6 8 9 13 14 17 17 17 18 20 17 15 14 13 12 11 11 13 13 11 10 9 9 8 6 7 8 9 9 7 6 5 4 5
8 9 12 17 21 19 17 10 9 11 9 7 7 9 2 9 8 9 12 12 14 16 16 17 19 17 14 14 12 11 10 10 11 11 9 7 6 8 7 5 5 6 7 7 6 4 3 3 3
15 11 17 20 18 18 16 9 11 13 15 12 7 8 6 9 6 10 12 12 13 14 15 17 17 17 15 14 12 11 10 10 10 11 10 7 5 6 10 6 4 5 5 4 3 3 3 2 1
12 14 21 19 19 21 14 7 9 13 14 2 3 8 7 11 8 10 10 11 13 14 15 16 18 17 16 14 14 12 11 10 10 12 12 10 5 4 12 7 5 4 3 3 2 3 2 2 2
11 14 16 22 21 15 7 6 12 9 11 6 8 13 8 2 8 9 11 12 13 14 15 16 18 17 16 16 16 14 13 11 11 13 13 10 7 8 10 7 3 4 2 2 2 2 2 2 3
12 13 20 16 15 16 11 11 11 7 15 16 12 9 1 2 8 11 11 13 13 15 17 17 17 18 18 18 19 16 14 12 10 11 12 10 8 8 8 5 5 4 3 1 1 2 3 4 1
13 18 15 10 10 9 12 12 12 12 15 13 16 12 6 4 8 12 14 14 16 16 17 17 17 17 17 17 18 16 17 13 13 11 11 10 9 7 8 5 4 3 2 3 1 2 2 3 3
15 16 18 9 6 10 12 14 16 18 17 16 12 7 1 8 8 12 13 14 12 17 17 18 18 17 17 18 17 18 17 16 15 12 13 11 10 9 9 7 5 5 4 3 1 3 1 2 3
13 17 11 12 13 15 14 18 19 18 16 16 17 13 14 15 13 12 12 15 15 15 16 18 19 18 18 18 17 17 18 17 15 13 14 12 11 11 9 7 6 5 4 4 3 3 1 2 3
2 11 15 14 15 15 17 20 18 18 21 22 21 21 20 19 18 19 17 15 16 16 17 18 19 20 19 19 19 16 17 18 17 15 15 15 13 11 9 8 9 8 7 5 3 1 1 2 4
12 15 15 18 19 15 11 19 25 27 24 24 23 21 22 23 26 24 24 19 19 19 19 18 19 20 20 20 19 21 18 19 19 18 17 17 14 12 11 10 10 7 5 5 4 1 2 3 5
9 13 12 6 5 8 11 16 7 11 17 20 22 21 22 23 23 28 29 26 23 19 18 19 17 20 21 20 19 20 19 20 22 21 19 19 16 15 13 12 11 8 7 5 4 2 1 4 5
10 10 14 10 4 6 13 12 7 3 10 14 15 16 17 20 24 30 30 30 28 25 22 20 19 19 21 21 20 20 21 21 25 23 20 20 18 16 15 13 12 8 6 5 4 3 2 3 5
9 14 10 10 6 8 15 20 20 18 19 19 17 17 16 17 19 24 28 32 31 28 25 23 22 20 20 21 22 22 22 22 23 22 21 19 16 16 18 15 12 9 7 6 5 4 3 3 6
3 7 10 10 9 17 19 21 21 20 22 23 21 21 22 23 19 24 26 27 30 31 29 28 24 22 21 22 23 23 21 21 21 22 21 19 18 17 17 16 12 10 7 7 5 4 3 4 8
12 13 14 14 13 10 18 28 24 26 27 24 25 25 25 24 23 23 29 29 30 31 30 28 28 24 24 22 22 22 20 19 18 16 18 18 18 18 17 17 15 11 9 8 6 4 3 5 8
12 13 13 15 15 18 22 26 23 16 19 25 27 27 25 23 23 23 23 28 28 30 30 29 28 26 25 23 22 19 22 18 17 19 20 19 21 22 19 15 14 13 9 9 7 5 5 4 4
11 9 10 11 9 6 4 10 17 17 17 16 15 15 15 18 19 19 21 21 27 30 29 28 29 26 26 25 26 27 21 19 18 26 22 21 18 20 18 15 13 12 10 9 8 6 6 4 3
5 2 5 7 9 12 14 8 12 8 14 13 11 12 12 12 14 15 16 21 26 26 29 27 26 26 26 28 26 27 21 19 25 26 26 24 20 19 20 18 14 13 11 9 8 7 6 4 3
3 4 8 8 8 8 15 15 15 6 7 8 8 5 6 8 10 11 14 18 20 24 21 26 26 26 27 28 25 26 25 27 28 29 28 28 23 20 16 15 14 11 12 9 8 6 5 3 2
8 2 2 4 4 8 2 11 17 13 17 7 7 9 9 9 11 13 14 13 17 20 24 23 25 26 27 27 26 26 26 26 29 33 31 30 26 25 20 16 12 11 11 9 7 5 3 2 0
14 8 4 5 4 8 7 10 6 10 2 5 7 10 12 12 12 11 15 14 17 19 23 24 26 26 27 27 25 24 25 25 26 27 31 27 25 23 20 17 12 12 10 9 6 4 3 1 1
6 8 10 11 16 10 9 16 17 19 19 9 12 16 14 10 9 13 16 15 17 18 23 24 26 25 26 26 26 24 24 25 27 28 27 30 24 22 19 17 13 11 9 7 6 3 2 1 2
12 0 2 2 5 7 10 16 13 12 12 9 9 9 10 9 9 13 14 13 16 19 21 25 28 27 26 26 26 26 24 24 30 30 29 30 25 21 17 16 13 11 8 6 4 2 1 2 4
10 10 6 6 7 5 10 10 12 10 9 9 11 9 7 11 11 11 11 12 10 16 21 25 26 26 27 26 26 26 25 27 31 33 29 27 23 20 16 14 12 9 7 5 3 1 1 4 7
14 11 16 6 7 7 10 20 14 18 10 14 16 14 11 11 7 9 11 4 7 14 18 22 25 26 27 26 27 27 30 32 33 30 27 23 21 17 14 12 10 8 6 3 1 1 3 6 9

GFSSGP_925_spd_048.txt.gz
Wind_Speed
8 13 12 9 2 4 8 11 5 2 2 5 5 4 6 8 3 3 12 14 27 24 24 23 22 19 14 13 13 13 12 11 10 10 10 11 10 9 9 9 9 9 9 10 14 16 12 14 13
8 11 12 3 4 6 9 15 7 2 4 9 9 5 6 2 8 7 10 15 24 27 24 23 22 17 13 14 14 13 11 10 10 9 10 12 9 10 9 9 9 9 8 8 11 13 13 11 9
8 10 2 4 5 11 8 10 7 7 7 3 5 9 6 3 8 13 19 21 25 24 25 24 22 17 15 15 14 13 12 10 10 11 11 10 10 11 10 9 8 8 9 8 8 9 9 8 7
8 5 4 5 14 13 18 17 2 7 3 3 6 5 6 13 3 16 18 21 21 22 26 24 19 16 15 16 15 14 13 13 12 11 12 12 12 11 10 9 9 10 10 9 8 7 6 5 5
11 4 6 9 16 16 15 12 3 3 4 4 5 7 5 9 16 19 17 20 21 25 24 23 19 16 14 16 15 14 14 14 15 14 15 12 11 11 10 9 9 10 11 10 9 7 5 5 4
4 3 5 13 16 15 16 16 5 3 7 6 2 7 3 17 16 17 16 18 20 24 24 24 22 18 16 15 14 13 14 15 16 15 13 10 10 10 9 8 8 9 9 9 8 6 5 4 3
9 7 10 13 14 13 13 11 8 8 8 8 4 4 6 9 20 18 15 17 21 22 23 23 23 18 17 17 15 14 13 14 16 15 13 10 10 10 10 8 7 8 7 6 6 5 4 4 3
5 7 15 13 13 15 11 6 9 7 8 6 6 2 3 5 15 17 14 14 18 20 23 21 20 20 20 18 16 15 13 13 15 15 14 12 8 10 12 8 7 6 6 5 5 5 4 4 4
9 8 12 16 15 12 11 1 4 4 6 7 2 5 9 8 11 16 14 15 16 18 22 26 25 19 18 17 18 16 14 13 13 16 15 12 9 9 13 9 7 6 6 5 5 4 4 4 4
6 8 12 11 13 8 11 2 4 4 8 6 7 6 16 8 8 12 14 15 18 18 20 23 26 23 20 20 18 18 16 15 14 15 15 14 12 14 15 11 7 6 6 6 5 4 4 2 4
8 12 9 14 16 6 9 11 1 5 5 6 9 8 10 10 11 12 15 19 20 21 20 21 24 26 25 23 22 20 17 14 12 12 13 16 15 15 15 7 9 8 6 7 5 4 5 2 3
15 13 14 18 12 3 7 8 9 7 8 10 10 7 4 7 7 9 10 17 24 24 22 22 22 25 29 23 21 22 21 19 16 18 16 14 15 13 14 11 10 8 5 7 11 7 3 2 4
13 14 12 10 9 6 7 9 9 13 10 11 10 12 5 5 7 11 16 16 14 24 27 25 22 24 26 25 23 22 23 24 18 18 18 17 16 14 15 14 11 10 10 9 8 4 3 2 1
4 7 10 13 9 8 11 12 11 8 14 14 14 11 9 8 9 17 16 11 14 15 25 26 25 24 25 23 26 25 28 22 20 19 21 18 18 16 17 14 14 13 10 10 7 7 5 1 3
7 9 11 12 11 11 6 15 18 21 17 15 14 15 15 12 15 15 23 17 19 20 16 25 27 25 26 26 25 22 19 23 22 21 19 20 19 17 16 18 16 12 11 9 8 5 4 3 3
5 9 6 9 19 15 14 15 15 12 18 19 18 15 15 13 17 27 27 27 24 23 21 22 28 29 27 27 27 27 20 23 25 21 20 22 20 20 18 17 14 11 11 11 8 7 3 1 3
7 5 12 5 5 3 9 6 11 9 4 8 10 13 13 15 15 23 28 32 31 26 26 21 29 28 28 27 28 26 30 20 25 24 22 25 21 19 21 19 17 14 12 9 8 7 4 1 2
4 11 7 7 6 6 9 12 12 13 14 9 9 9 9 9 11 21 29 30 29 31 30 27 20 27 26 26 27 25 24 24 26 25 27 27 23 22 21 19 18 16 14 11 8 6 4 2 4
11 6 11 5 7 8 10 14 14 13 14 17 15 14 16 16 11 18 21 21 27 32 29 34 34 32 31 27 28 27 27 23 28 27 28 28 27 23 23 21 20 15 13 11 8 9 5 3 5
9 7 10 9 8 7 10 19 17 21 18 19 19 18 16 14 10 11 19 22 27 25 26 27 25 34 36 34 29 25 25 27 32 29 27 27 26 26 23 24 21 19 17 14 11 7 7 4 6
6 6 8 10 11 10 12 16 11 10 19 22 21 20 13 13 14 13 11 21 26 30 28 27 27 29 34 32 29 24 25 28 27 30 28 28 29 27 25 24 22 19 17 15 11 10 8 6 4
6 2 5 6 6 4 11 7 6 9 10 8 10 10 13 16 13 10 10 11 24 28 33 31 30 31 26 33 31 34 29 23 28 35 33 27 26 24 24 23 21 20 18 15 12 10 8 7 6
2 5 4 5 5 7 4 3 7 4 7 6 8 11 10 9 9 9 10 15 22 18 24 37 33 33 32 37 32 36 29 23 30 30 30 25 23 25 24 23 21 19 17 15 11 11 9 8 6
6 2 4 4 2 5 10 9 5 3 4 6 9 6 7 6 5 5 6 6 9 17 24 17 31 30 33 34 32 36 35 33 33 31 32 30 27 25 25 22 22 20 18 16 13 10 9 7 6
3 3 1 2 2 6 3 9 11 15 12 15 8 2 5 4 0 4 6 5 13 19 20 23 19 29 28 30 27 31 31 34 36 36 36 35 30 27 27 23 21 20 17 14 12 10 8 6 6
9 4 2 4 2 4 7 7 6 12 9 3 4 4 3 5 2 2 4 6 16 19 20 22 20 25 27 29 28 27 31 31 33 35 35 32 30 30 27 23 21 19 17 13 10 8 6 3 3
5 7 1 3 4 2 5 6 9 14 10 9 3 6 7 9 5 1 6 9 20 23 22 21 21 24 26 30 26 27 33 31 33 32 32 31 30 30 25 22 20 18 14 11 9 6 4 3 3
7 6 3 1 2 5 5 7 7 4 6 7 6 5 7 6 4 1 4 8 22 25 19 25 25 25 28 28 28 31 31 30 32 31 32 31 30 28 26 22 19 17 14 11 8 6 4 4 2
7 5 2 1 3 3 4 5 4 5 7 7 9 9 8 3 4 2 5 13 25 17 14 19 26 24 28 28 31 35 33 33 33 31 33 33 32 29 25 22 18 15 13 10 8 5 3 1 3
11 6 8 3 4 4 2 7 16 9 2 2 5 7 10 6 3 4 2 10 20 10 8 21 23 26 28 34 35 34 34 33 32 33 34 31 30 25 23 21 17 14 11 9 6 4 1 3 5

GFSSGP_925_spd_051.txt.gz
Wind_Speed
10 9 13 4 3 4 4 8 3 8 3 1 3 5 3 2 2 2 6 17 26 32 27 24 24 22 18 15 17 17 16 16 15 15 15 13 12 11 10 10 10 10 11 14 15 14 13 16 14
9 8 3 1 4 1 5 9 11 8 4 5 6 4 4 2 3 7 12 26 29 32 28 26 24 20 17 18 18 16 16 15 14 14 15 11 12 11 11 10 10 11 11 14 16 17 18 14 10
7 1 2 4 4 6 5 5 5 3 6 4 4 2 1 2 3 10 22 29 26 31 28 27 23 19 18 19 18 17 16 15 14 15 17 14 12 12 11 11 11 11 12 13 14 13 12 10 9
2 3 3 2 9 7 10 11 3 3 3 5 4 5 4 3 16 14 32 31 26 29 27 27 22 19 18 19 18 17 16 16 16 17 15 14 15 14 12 11 11 12 12 12 10 10 9 8 6
3 2 2 4 11 6 8 8 7 4 4 3 2 2 5 5 21 30 34 29 30 31 28 26 21 19 19 19 18 17 17 17 16 17 18 17 15 14 12 11 12 13 13 12 10 9 7 7 7
1 2 2 10 9 5 10 13 5 4 3 1 2 3 3 22 23 27 31 30 30 33 29 26 21 19 19 19 17 17 17 19 19 20 18 17 16 13 11 11 12 13 12 11 10 9 8 7 6
4 2 6 5 5 6 13 11 6 8 5 3 1 2 1 2 20 23 25 27 31 33 31 27 24 20 19 19 18 18 19 22 20 19 16 16 15 12 10 10 10 11 10 10 9 9 8 8 7
4 3 4 6 9 7 9 3 6 8 8 3 4 3 4 5 21 19 20 29 31 31 29 29 26 22 22 21 19 18 19 21 21 19 17 14 14 14 11 10 10 9 8 8 8 9 9 9 9
1 2 5 8 7 6 12 5 6 2 5 3 2 6 9 19 19 17 19 29 27 28 26 28 27 24 23 21 20 18 18 19 20 19 17 15 13 15 13 10 10 9 9 9 8 8 8 8 9
5 5 6 4 7 7 6 4 6 1 3 1 2 5 13 21 19 16 14 17 25 28 29 28 28 26 24 22 21 20 18 18 19 20 18 16 13 16 16 13 10 9 9 9 9 8 6 4 4
4 5 5 8 10 3 4 6 5 4 1 5 5 7 6 9 16 16 18 24 27 29 29 31 31 28 26 24 24 22 20 18 17 18 19 19 17 18 15 13 11 10 10 10 10 8 7 6 7
7 4 13 12 11 5 3 5 6 1 4 8 5 3 4 8 9 14 19 25 29 29 32 31 33 32 30 29 27 25 22 18 17 17 19 20 16 23 18 12 12 11 11 12 9 10 8 6 5
6 8 12 10 8 6 3 4 4 8 9 10 10 5 4 6 6 10 17 23 31 32 34 33 34 34 34 32 29 25 23 21 20 19 18 22 22 21 17 15 14 13 12 13 15 12 9 7 6
1 4 4 6 7 5 7 5 2 3 10 10 10 12 5 8 11 11 11 13 19 32 36 36 36 36 37 36 33 28 28 25 22 23 22 22 24 18 19 19 18 15 17 18 14 11 9 7 5
1 4 7 6 6 5 7 7 7 11 8 10 12 12 12 10 16 15 22 19 17 17 34 39 38 37 37 39 33 30 30 28 27 23 25 25 22 20 22 22 21 20 17 15 12 11 10 8 4
4 3 2 4 10 8 9 11 8 12 9 16 19 18 14 13 11 25 29 26 26 21 17 38 38 36 36 34 32 31 31 32 30 27 26 26 23 24 24 25 22 18 16 15 14 11 8 5 3
1 4 6 7 10 6 12 4 14 12 9 13 16 14 16 18 14 26 31 36 35 30 25 28 37 39 38 38 36 35 27 30 31 29 26 24 26 26 27 26 22 19 18 16 14 12 8 4 1
5 4 3 5 4 4 6 9 8 10 9 9 9 9 11 17 20 29 31 34 35 37 34 30 31 40 40 40 38 37 35 26 32 32 27 28 31 29 27 24 22 22 20 17 15 12 8 4 0
4 3 5 4 5 4 8 9 12 9 12 17 13 11 14 14 10 17 20 29 35 33 36 35 31 34 39 36 31 30 34 38 30 35 32 34 35 33 29 26 25 24 21 18 14 12 9 6 2
9 7 4 6 3 5 10 18 16 19 15 19 20 14 16 15 11 11 21 24 22 29 33 33 33 34 38 36 39 27 34 32 34 34 36 37 38 34 30 27 28 26 22 19 17 14 9 3 4
2 2 2 4 6 4 9 10 8 8 16 21 21 18 15 17 13 11 11 22 24 22 25 23 21 27 39 37 35 27 31 28 30 31 36 38 37 34 30 28 28 25 23 21 18 15 11 7 4
1 5 1 3 4 4 4 6 6 8 8 5 10 13 17 15 8 10 10 14 26 26 24 25 26 22 31 38 36 36 34 23 23 39 38 39 37 34 31 29 27 25 21 20 18 14 12 9 8
3 5 5 4 3 5 3 2 7 6 4 5 3 9 11 11 12 12 10 18 28 23 19 25 32 31 26 38 37 38 30 30 33 37 38 37 36 33 31 29 27 24 20 18 17 15 12 10 9
6 3 3 3 3 2 7 5 4 2 4 2 4 9 5 6 5 4 4 5 6 6 12 17 18 31 33 33 41 41 40 37 35 34 37 37 34 32 29 27 25 23 21 19 17 14 11 9 8
4 5 2 1 1 6 2 4 7 10 13 8 9 7 6 6 5 4 7 5 6 7 11 15 17 20 27 33 38 41 42 44 43 41 38 36 33 32 30 28 25 23 21 19 16 14 11 9 8
5 5 4 5 3 4 4 6 6 7 10 9 6 2 5 2 1 3 6 3 4 8 15 17 23 21 22 31 36 39 40 39 38 38 36 33 33 33 32 29 25 23 22 18 15 13 11 8 6
3 3 4 1 3 3 5 7 9 8 7 7 8 6 8 9 6 6 4 3 3 10 18 21 24 26 22 31 37 36 37 37 36 35 33 31 31 34 33 29 26 22 20 17 14 12 9 7 5
5 4 3 2 0 4 5 5 7 4 7 7 8 7 8 8 9 4 1 1 6 13 20 28 24 27 26 34 36 34 33 32 31 32 33 32 30 31 31 28 25 21 16 15 11 10 8 6 4
5 2 2 3 4 4 2 6 5 4 4 1 4 7 8 9 8 9 7 4 4 11 19 24 20 22 29 29 30 34 32 30 31 32 32 31 31 33 30 28 25 22 18 13 11 8 5 4 3
4 5 5 4 5 3 2 8 8 13 4 7 17 16 14 10 17 7 7 2 5 9 18 17 13 24 28 31 33 32 31 31 33 32 31 34 33 31 30 28 24 19 16 14 10 7 5 2 3

GFSSGP_925_spd_054.txt.gz
Wind_Speed
12 9 8 4 3 4 3 7 3 9 6 4 3 6 4 2 2 3 3 16 26 32 28 26 23 23 24 21 20 19 18 17 17 15 14 13 12 11 11 11 10 9 9 14 14 12 16 15 13
11 6 1 2 4 1 5 4 9 7 8 6 3 5 3 2 3 6 14 21 31 31 29 27 25 24 21 20 20 20 19 18 16 17 16 13 13 11 10 10 11 11 12 14 15 16 17 14 11
6 1 3 4 4 6 5 5 2 7 6 5 2 3 6 4 0 15 11 30 31 32 30 27 25 22 19 20 21 20 19 19 18 18 15 14 13 12 11 11 11 12 13 14 13 14 13 12 9
3 2 3 4 8 8 8 3 1 9 7 4 2 5 2 2 9 12 30 32 32 31 30 28 24 20 19 20 20 19 18 16 16 17 16 14 13 12 12 11 12 13 13 13 12 11 10 9 7
2 2 2 4 8 5 6 4 4 8 6 3 3 2 1 2 8 25 34 31 33 31 29 27 23 19 19 20 19 19 18 18 19 18 16 14 14 13 12 11 12 13 13 12 11 10 8 6 5
2 2 2 7 7 4 7 6 2 6 7 6 4 7 2 6 25 30 31 31 30 32 30 27 22 20 20 19 19 19 20 19 19 17 17 17 15 13 12 12 13 13 13 11 10 9 7 6 6
5 3 5 5 6 6 10 5 5 8 10 8 5 5 0 1 23 29 28 29 29 31 32 28 24 21 21 19 18 19 20 20 20 21 19 18 15 12 11 12 13 12 12 11 10 8 8 8 8
5 3 3 5 5 7 5 0 5 6 11 3 4 6 5 7 23 28 28 28 30 32 32 30 27 24 23 21 19 19 21 22 23 21 20 17 14 12 11 11 11 11 10 10 10 10 10 9 9
5 2 5 6 8 5 2 4 6 3 4 2 1 7 7 25 24 27 24 24 27 29 33 32 30 27 24 22 20 20 22 24 23 21 19 18 17 15 12 10 10 10 9 9 10 10 10 10 9
5 5 7 5 5 3 4 1 5 7 4 3 4 4 14 27 25 22 20 20 23 26 32 32 30 28 26 24 23 22 22 24 24 23 20 18 17 17 16 12 11 10 9 10 10 9 9 8 8
5 6 8 8 6 0 4 4 4 3 5 3 2 4 5 8 15 19 23 30 35 32 31 33 32 29 29 27 26 24 23 23 25 24 23 20 17 18 18 15 13 12 11 11 11 10 8 5 11
3 6 8 3 6 3 4 3 2 4 6 4 1 5 6 6 6 13 23 26 29 34 35 34 34 32 31 29 29 27 26 24 24 24 24 24 20 19 21 18 15 14 14 13 11 9 9 8 8
4 4 4 7 8 4 5 6 6 7 10 10 3 6 7 7 10 17 15 24 32 34 37 36 37 36 35 33 32 30 28 26 23 23 25 25 24 22 23 19 16 16 16 15 13 12 10 8 8
2 8 5 3 3 3 5 6 4 4 9 10 7 8 7 8 8 10 13 20 22 32 34 37 39 39 37 37 35 33 31 28 25 23 25 27 26 24 26 22 18 18 17 15 14 14 12 10 7
4 2 2 5 3 4 1 15 8 9 7 10 13 10 8 9 17 15 20 18 16 26 32 37 38 41 40 40 37 35 35 31 30 27 25 27 28 25 27 23 22 19 18 17 19 15 13 9 7
5 4 2 3 2 5 8 19 4 11 8 11 11 13 12 10 14 26 28 26 24 16 21 36 39 39 40 40 40 38 35 32 32 31 29 28 28 28 27 25 24 22 21 21 20 16 12 9 7
3 3 3 6 9 9 9 3 9 15 8 10 11 9 11 14 12 25 33 32 29 27 22 20 35 43 41 42 40 40 37 36 35 31 30 31 30 30 27 26 26 26 24 22 19 15 12 9 6
6 4 3 6 5 6 7 9 10 7 7 10 11 10 10 12 17 22 26 35 38 33 28 26 28 41 44 40 39 40 38 36 35 36 33 31 34 30 28 28 29 27 24 22 19 16 13 10 7
6 2 4 4 4 3 7 6 10 10 8 12 13 13 14 15 13 20 24 27 32 36 36 31 30 34 39 35 30 30 34 38 36 39 36 33 34 31 31 32 31 28 27 24 20 16 13 9 6
3 4 6 7 2 2 6 12 15 15 13 17 22 19 15 10 8 9 21 23 19 22 32 37 36 32 40 39 40 33 38 37 37 39 35 36 35 36 35 37 33 30 27 23 21 19 15 7 7
4 4 3 4 5 1 7 9 7 6 7 15 18 17 13 16 17 13 11 22 27 25 22 21 31 31 32 39 36 32 33 27 34 35 38 40 41 42 40 38 36 32 29 26 23 21 16 11 7
4 1 2 4 4 4 5 5 6 7 9 6 6 8 14 14 11 12 10 15 26 27 25 21 20 22 26 35 37 36 31 22 33 41 42 43 40 43 41 39 34 33 29 25 23 19 16 12 10
3 5 4 3 3 4 2 2 8 5 6 2 1 5 8 11 8 9 9 19 25 24 27 26 25 24 23 32 38 38 29 30 34 38 40 40 38 40 39 37 35 31 28 24 22 19 15 12 11
6 5 6 4 3 2 4 5 6 3 4 3 5 10 9 3 6 8 12 13 8 6 7 12 13 16 20 28 34 40 32 33 31 33 35 35 36 35 33 33 32 30 28 24 20 18 15 13 11
6 6 2 4 2 6 3 4 9 9 11 4 9 10 7 8 5 2 5 6 9 8 5 4 6 12 14 18 29 35 42 42 41 40 39 38 36 34 34 33 30 29 27 22 20 17 13 12 11
4 6 4 5 2 4 2 5 5 5 7 6 5 7 8 9 7 6 5 3 4 4 2 2 7 10 16 21 24 34 37 41 38 40 40 38 39 39 35 32 30 28 26 23 19 16 12 11 9
4 2 3 4 3 3 4 6 9 4 6 6 7 9 9 8 7 8 4 7 9 6 6 7 10 16 21 26 26 31 35 35 39 39 37 37 36 34 32 30 28 26 24 22 20 16 15 12 9
5 6 3 3 1 3 4 5 5 2 3 5 10 11 13 14 15 8 6 10 14 13 9 10 13 18 24 24 25 29 36 38 38 37 36 35 34 33 32 30 28 26 23 21 18 15 12 10 8
3 1 3 4 4 3 2 6 5 4 3 4 6 6 6 8 11 10 12 16 23 14 12 12 14 16 15 20 24 26 31 33 33 34 33 33 34 33 32 32 29 26 23 19 16 12 9 7 5
4 5 5 4 4 1 1 7 4 3 3 5 14 7 14 7 11 10 11 13 9 12 11 11 12 9 17 24 25 26 29 30 31 31 31 32 32 32 34 32 29 26 21 18 17 15 9 3 3

GFSSGP_925_spd_057.txt.gz
Wind_Speed
9 9 7 4 3 4 3 6 3 4 5 2 2 2 5 2 3 4 1 15 25 33 28 25 23 21 20 20 21 20 18 17 16 14 12 11 11 9 9 10 8 6 4 11 13 11 13 13 10
6 6 2 2 4 1 5 5 7 5 4 9 1 2 2 1 2 5 13 15 30 32 29 27 24 21 22 20 20 19 19 17 16 14 13 12 10 9 9 9 9 9 9 12 12 11 14 12 8
2 0 3 4 4 7 5 5 6 4 6 3 2 1 5 3 2 15 6 24 34 32 30 27 25 24 21 19 19 18 17 17 16 15 13 12 10 9 10 10 10 11 11 13 14 15 13 9 7
4 3 3 3 8 7 7 3 2 8 8 2 1 2 1 2 7 10 20 31 34 32 30 28 26 22 18 17 18 18 17 16 16 15 13 12 10 9 10 10 11 11 12 11 11 11 9 7 6
3 3 2 3 8 5 4 4 6 6 4 6 7 5 1 2 6 15 30 33 32 31 29 27 23 20 18 19 19 18 16 16 16 16 14 13 12 10 10 10 12 13 11 11 10 9 8 6 5
3 3 2 8 8 5 5 4 2 4 4 9 3 4 3 1 18 25 28 30 29 31 29 27 23 18 17 18 18 18 17 16 18 16 15 15 13 12 11 12 12 12 11 10 8 7 6 7 6
5 4 5 4 12 6 5 5 4 5 7 9 4 3 2 3 17 28 28 27 27 28 29 26 22 19 18 18 18 19 19 19 19 18 17 17 14 12 11 12 12 12 11 10 9 8 7 7 8
5 4 4 5 5 7 3 6 4 5 8 5 9 6 5 5 23 26 25 25 26 27 27 26 24 21 20 19 18 19 19 20 21 20 20 18 15 12 11 12 12 12 11 11 10 9 8 8 8
4 3 5 6 7 4 0 2 3 1 5 4 3 6 4 28 29 25 22 20 25 27 28 28 26 24 22 21 19 19 19 19 21 22 20 19 16 13 12 12 12 11 10 9 9 9 9 8 7
4 5 9 5 5 1 3 1 4 5 6 4 4 4 12 27 26 22 21 20 20 23 27 30 28 27 24 23 22 21 21 22 23 21 20 19 17 15 12 11 12 11 10 10 10 10 10 8 7
5 5 4 4 3 1 2 5 1 3 5 2 2 7 4 3 15 18 19 25 31 27 25 30 30 28 28 27 25 23 24 25 24 23 21 20 18 18 17 14 13 12 12 12 12 11 10 7 7
3 6 4 5 4 1 2 3 4 4 7 4 4 4 3 2 3 8 17 20 24 31 32 33 32 32 31 29 28 27 26 27 27 26 24 23 20 19 20 18 16 14 14 13 12 11 8 6 10
4 2 4 4 7 4 2 6 6 6 12 3 6 6 7 5 4 10 13 14 17 24 33 35 35 34 33 32 30 30 29 28 27 28 27 26 23 21 22 21 19 16 15 15 13 11 11 9 9
4 8 8 5 5 3 5 5 4 4 8 8 6 8 9 8 9 5 12 15 18 27 31 34 36 36 35 36 33 33 31 29 27 27 28 28 27 24 22 22 20 18 17 16 14 12 12 10 9
2 1 1 5 4 5 3 11 9 6 9 11 14 8 8 10 15 14 16 14 22 27 31 33 37 37 38 38 36 35 33 32 31 29 27 29 29 27 24 25 22 19 18 17 16 14 13 11 9
7 2 3 3 7 5 7 17 2 9 10 12 11 13 10 9 14 24 24 22 19 18 28 32 35 36 40 39 38 36 35 35 34 30 28 28 30 30 26 27 25 21 19 19 18 18 15 12 9
1 4 4 5 7 5 9 2 4 7 8 10 11 10 10 10 9 21 28 26 26 24 22 26 34 36 39 39 39 39 37 36 35 33 31 30 29 30 28 26 25 24 21 21 21 19 16 13 9
6 5 3 5 2 3 7 7 12 9 5 10 11 11 11 11 15 20 21 22 27 29 25 23 27 36 38 38 37 36 35 37 36 36 35 33 33 31 30 28 27 26 24 24 23 21 16 12 10
6 4 2 2 3 3 5 5 14 9 6 9 13 15 14 13 13 17 26 22 21 25 25 27 27 30 35 33 29 28 31 36 38 38 39 37 36 34 32 31 30 29 29 29 26 21 16 12 10
2 2 3 5 1 1 5 9 16 13 10 13 17 16 15 9 9 9 20 23 22 23 24 24 25 30 36 36 38 29 35 36 44 42 41 39 37 36 36 34 33 33 33 32 28 25 19 11 12
3 4 3 3 4 2 7 7 7 3 5 8 9 13 13 14 16 13 10 22 25 23 23 19 17 25 33 37 34 29 26 23 31 33 40 41 40 38 40 38 37 37 37 37 32 28 23 16 13
4 3 3 3 3 2 5 5 6 5 8 6 8 7 9 12 12 10 7 12 22 27 27 24 24 20 22 33 32 34 30 25 28 37 40 40 42 39 40 41 38 40 41 37 32 27 24 19 14
3 5 5 3 4 3 2 2 8 3 4 5 4 6 9 9 7 8 8 15 18 18 19 20 21 18 16 24 35 37 30 28 30 37 39 39 41 39 39 40 38 40 38 34 30 27 23 19 16
8 5 6 4 2 2 3 3 6 2 2 5 5 8 10 11 10 8 13 12 13 12 14 15 15 17 20 20 28 38 34 30 29 33 33 39 40 38 38 39 38 37 35 32 29 25 22 19 15
5 6 2 3 3 4 3 2 8 9 7 4 5 6 8 9 12 12 10 9 13 7 3 4 8 11 12 13 19 29 33 32 37 38 38 39 40 38 39 39 38 36 34 30 27 25 22 17 14
1 5 4 4 2 3 1 5 5 5 5 6 4 2 7 9 7 8 9 9 11 13 11 7 5 9 9 11 14 19 28 34 36 36 37 39 39 37 37 36 36 32 30 28 24 22 19 16 12
4 2 3 5 3 2 3 7 8 2 5 6 7 9 8 8 8 6 7 14 17 17 16 15 13 13 14 16 18 17 22 30 34 36 36 34 36 36 35 34 31 30 29 26 24 21 18 15 13
4 7 3 3 2 3 4 5 4 3 3 5 10 10 9 8 9 7 5 9 19 24 28 23 18 18 18 20 22 22 22 28 32 33 34 34 33 32 33 31 30 29 27 26 23 20 17 16 13
3 1 5 4 2 3 1 5 5 4 3 5 9 8 8 8 8 9 7 10 14 20 21 19 21 20 19 20 19 19 21 26 27 29 30 30 29 31 32 32 31 30 29 25 23 20 18 15 13
3 5 4 4 3 1 1 6 3 6 7 3 8 7 9 8 8 8 7 14 15 16 19 17 17 15 16 13 13 15 18 20 22 23 25 27 26 26 29 29 29 28 26 24 23 20 15 14 10

GFSSGP_925_spd_060.txt.gz
Wind_Speed
6 4 5 4 3 4 3 6 2 3 3 1 0 3 5 2 4 4 0 13 22 30 26 24 23 20 19 20 20 18 16 14 13 12 11 10 9 8 9 9 7 5 5 8 9 12 13 13 11
4 0 3 2 4 2 5 4 6 5 3 9 4 3 2 2 2 3 12 12 24 31 25 25 22 21 20 20 20 18 16 14 12 11 10 10 9 9 10 8 8 8 9 12 10 12 11 12 10
5 4 4 4 4 6 5 5 7 3 8 3 5 1 2 2 1 11 3 20 28 30 27 25 23 22 21 19 19 18 16 14 13 12 11 11 9 9 10 10 10 9 10 11 9 9 13 10 9
5 4 4 4 7 6 7 2 3 6 4 3 3 6 4 2 2 10 13 25 31 29 27 25 24 22 21 20 20 18 16 15 13 14 11 11 10 11 11 12 13 12 12 13 15 14 10 8 7
4 3 3 3 7 5 4 5 3 3 4 2 3 6 3 4 3 11 22 27 31 28 27 25 24 22 18 16 16 17 17 16 14 14 12 11 11 11 11 12 15 12 12 11 11 8 7 6 6
3 3 2 8 7 4 3 5 2 3 2 6 1 2 4 3 9 16 22 26 24 26 27 25 22 20 18 18 19 18 16 16 16 15 13 12 11 11 11 12 15 12 12 10 8 6 5 5 7
6 4 6 4 14 5 4 6 5 5 3 6 2 2 4 2 10 20 22 25 18 22 27 26 24 20 18 18 20 19 17 16 16 15 14 13 12 10 10 11 13 13 11 10 8 7 6 7 7
4 4 6 5 5 5 3 7 3 6 6 1 5 5 6 3 19 22 22 22 20 24 26 26 23 20 19 19 19 19 18 17 17 16 15 15 12 10 11 11 12 12 11 10 9 8 8 8 8
3 2 5 7 7 4 1 3 1 0 2 3 5 1 6 12 23 23 21 17 17 24 27 26 24 21 20 19 18 17 18 18 18 17 17 16 14 12 11 11 11 11 10 9 9 9 9 8 7
4 4 8 6 5 4 2 3 1 2 4 2 1 6 5 21 22 21 20 20 19 22 26 27 25 23 21 20 19 18 18 18 20 19 19 18 15 12 10 10 11 10 8 8 9 9 9 7 6
4 5 4 4 3 3 4 1 1 1 3 5 1 5 4 3 12 13 14 17 20 19 21 24 27 24 23 22 21 19 19 19 20 21 20 19 16 14 12 11 12 11 10 10 10 10 9 7 6
3 6 3 4 2 2 3 1 1 4 6 3 3 1 3 4 4 9 14 15 18 21 21 21 28 27 25 24 23 22 21 22 23 24 22 21 19 18 16 14 12 12 11 11 11 10 8 7 9
5 2 5 6 6 3 2 5 5 6 9 5 6 1 3 3 4 7 8 13 16 19 21 23 28 30 29 27 26 25 25 25 25 26 25 23 21 20 18 18 16 14 13 13 12 10 9 7 10
6 9 8 4 4 3 4 5 6 5 4 6 6 8 6 5 6 5 7 12 20 21 22 23 28 32 31 31 30 29 28 27 28 28 28 27 25 22 20 20 19 17 15 14 13 11 11 10 9
4 4 2 7 5 5 4 8 9 9 7 9 9 9 8 8 8 14 15 12 22 26 28 30 31 31 33 34 32 32 32 30 30 30 30 30 29 27 24 22 22 18 17 16 15 14 13 12 11
9 2 2 3 8 5 8 8 4 7 8 13 11 7 8 11 13 21 21 21 20 20 27 31 32 34 35 36 36 34 34 33 33 32 31 31 31 29 28 25 23 21 19 19 19 16 16 14 12
6 5 4 4 7 5 8 0 2 2 3 9 9 10 8 9 10 23 24 21 21 22 21 27 32 34 37 38 38 36 35 34 35 34 34 32 30 31 31 28 24 24 21 22 22 20 19 17 13
8 8 4 9 2 3 4 6 9 9 7 9 9 10 10 9 12 21 21 21 18 21 25 26 27 31 34 36 36 32 32 34 36 35 36 33 31 31 32 31 26 26 25 25 24 23 21 17 13
7 5 4 3 2 0 5 5 11 11 6 7 10 12 12 12 11 19 24 23 20 19 20 26 29 30 32 32 29 27 29 29 31 39 37 35 33 33 31 32 30 29 29 29 26 26 22 16 16
8 7 4 1 1 2 5 8 14 14 8 11 13 13 10 8 9 11 20 22 22 24 23 23 28 32 33 34 35 27 31 28 34 37 38 38 37 36 34 35 35 33 31 31 31 30 24 16 19
2 5 3 2 2 2 6 6 6 2 4 4 6 6 6 9 15 12 8 19 22 23 23 23 23 30 34 36 33 27 23 26 22 28 35 39 38 39 38 37 37 36 35 37 36 33 29 21 19
2 4 4 4 3 3 3 4 6 4 8 5 6 8 9 11 8 6 6 12 16 20 21 23 21 20 26 31 30 30 28 26 28 32 41 40 39 40 39 40 39 39 38 40 40 36 31 21 16
4 5 5 4 4 1 2 3 7 2 4 6 8 6 7 7 7 8 6 9 11 11 13 16 22 22 21 24 31 33 27 25 25 30 34 36 38 40 40 41 41 41 39 41 38 37 32 27 22
10 6 6 4 2 2 2 3 5 1 2 4 4 6 7 8 8 7 8 15 16 13 9 7 11 16 19 19 24 32 33 31 29 29 32 36 37 38 39 40 40 42 41 40 38 36 33 28 23
3 4 2 4 3 4 2 1 7 6 4 1 2 6 7 8 10 10 13 12 21 20 16 12 8 9 10 16 21 27 34 33 34 34 34 32 34 36 39 40 42 43 41 37 36 34 31 27 23
2 4 4 4 2 2 3 5 4 3 2 5 2 5 4 8 7 8 9 14 20 22 21 19 16 14 9 8 11 15 23 29 32 33 33 34 35 37 40 40 38 38 36 32 31 28 26 24 21
3 3 2 6 3 2 3 6 6 3 1 4 7 7 8 7 7 8 7 12 16 21 24 23 23 21 18 14 13 14 16 21 26 30 31 33 32 32 32 36 38 34 31 29 28 27 24 22 20
3 7 3 3 2 3 4 4 3 2 3 7 9 9 9 7 8 7 7 12 15 18 20 21 19 17 20 20 18 17 17 19 23 27 29 29 28 27 27 29 31 30 27 27 27 25 23 21 18
2 1 4 4 3 3 1 4 5 7 6 3 6 6 6 8 8 8 7 14 14 16 15 17 18 17 16 16 16 16 16 16 19 23 24 23 22 23 23 25 26 26 27 27 26 24 22 20 17
3 5 4 4 3 1 1 5 3 6 4 7 7 8 7 6 7 7 8 14 13 13 13 15 16 16 14 14 14 14 12 11 12 15 14 15 17 19 22 24 25 27 28 26 25 24 20 17 15

GFSSGP_925_spd_063.txt.gz
Wind_Speed
7 3 1 3 1 2 2 5 1 2 2 2 3 3 3 3 3 2 1 10 21 30 25 23 22 21 20 20 19 20 18 14 12 12 12 11 10 9 9 8 7 7 8 9 12 15 15 13 12
7 5 3 2 3 3 4 3 6 7 2 9 2 2 4 2 1 1 7 10 21 28 23 22 23 21 20 20 20 17 15 13 12 11 9 10 9 9 8 7 7 6 9 10 9 13 14 12 11
8 6 3 3 3 7 4 5 8 2 6 3 3 1 2 4 1 5 2 19 25 23 25 24 23 21 20 19 19 17 16 13 11 10 9 8 7 8 8 8 9 9 11 12 9 11 13 11 10
6 2 3 3 8 6 6 1 4 1 1 2 3 4 3 2 2 3 12 20 23 23 24 24 22 21 19 17 19 19 14 13 12 10 10 9 8 9 10 11 10 11 12 11 11 15 12 10 10
2 1 3 3 9 3 4 3 3 4 3 3 4 4 4 2 1 8 19 20 22 23 23 22 21 21 21 18 16 15 14 14 13 13 11 10 9 10 11 15 13 11 14 15 14 12 10 8 8
2 2 3 11 9 6 4 6 2 3 1 4 2 2 3 1 5 11 17 22 19 20 21 20 21 20 19 17 16 16 15 15 14 13 12 11 11 11 11 16 13 12 13 12 11 9 8 7 8
4 4 7 5 17 7 6 6 6 7 4 6 2 2 1 2 6 12 15 20 18 17 21 20 20 20 17 15 17 17 15 14 15 13 12 12 12 11 11 14 13 12 11 11 9 7 7 8 8
4 2 6 5 9 8 6 8 4 8 6 1 3 4 2 1 12 14 15 18 17 20 23 22 22 21 19 20 20 18 16 16 13 12 12 13 10 10 11 12 13 11 10 9 7 7 8 8 8
3 2 6 10 8 4 4 5 3 1 3 1 4 1 4 3 16 16 15 14 18 20 25 25 24 21 20 20 20 19 17 16 15 15 14 13 12 11 11 11 13 12 10 8 9 8 9 8 8
4 5 9 4 5 4 6 4 5 4 2 2 1 2 5 13 17 18 17 17 17 19 21 23 24 22 20 19 19 20 20 18 18 18 17 16 14 12 11 11 11 11 10 9 9 9 9 8 7
5 5 5 3 5 4 5 3 2 4 2 5 3 1 2 8 12 13 12 12 14 16 18 22 22 23 21 20 20 20 20 20 21 20 20 18 16 13 12 12 12 10 10 9 10 10 9 8 8
3 5 3 3 4 4 4 3 1 4 4 4 4 1 1 8 6 12 13 14 16 17 19 23 23 25 23 21 21 20 20 21 21 22 22 21 20 17 14 13 13 13 12 12 12 12 10 9 8
6 2 7 4 2 3 3 3 5 7 7 3 4 2 2 3 9 10 11 12 14 17 18 22 23 26 26 25 23 23 22 22 21 22 24 23 22 20 17 16 14 14 14 14 13 12 12 10 11
6 12 5 4 7 2 4 4 6 5 5 9 5 7 7 7 7 6 10 14 17 17 18 21 24 25 28 27 26 25 25 24 23 25 26 25 23 21 20 19 18 16 15 14 14 14 13 11 11
4 5 6 12 4 3 5 7 10 9 5 6 8 9 7 9 7 12 11 12 18 21 20 21 24 26 28 31 30 28 27 26 26 27 28 27 25 24 22 20 20 20 17 16 16 15 14 13 12
7 1 5 5 12 5 6 7 1 4 9 13 10 10 9 11 14 19 19 18 17 17 21 22 25 27 29 33 33 31 29 28 28 28 29 29 28 27 25 24 22 23 21 20 19 18 16 15 14
8 5 9 3 10 6 15 2 5 4 5 7 9 10 8 12 12 19 26 25 23 23 23 22 25 27 31 32 33 32 30 30 31 31 30 31 31 30 29 29 26 25 25 23 22 21 19 18 16
13 8 5 12 4 5 6 9 8 7 4 8 9 11 9 9 14 20 22 22 23 23 23 25 25 27 30 28 28 31 31 32 33 34 32 33 32 31 31 31 30 28 27 26 25 23 22 19 17
8 7 4 3 2 3 4 5 9 10 6 8 10 11 12 11 10 18 24 24 22 21 22 24 29 30 27 26 26 25 30 31 32 36 34 35 33 33 32 34 33 34 32 31 27 26 23 19 19
12 9 5 1 2 2 2 7 12 11 7 9 11 10 8 8 9 12 18 22 22 24 26 25 26 31 30 28 28 23 28 28 32 27 30 36 35 35 35 37 36 37 34 33 32 32 26 21 23
4 10 4 4 2 2 3 5 3 1 3 4 5 2 3 6 10 10 10 13 16 19 23 25 27 27 31 31 28 23 19 21 21 29 32 35 37 38 38 39 39 38 39 38 37 36 33 25 25
7 1 5 6 3 2 3 3 2 2 10 10 7 8 8 8 8 7 7 6 6 10 12 18 24 24 26 30 25 26 23 23 26 27 32 28 34 38 40 40 41 41 40 39 40 39 39 33 24
2 5 3 3 4 1 1 2 3 0 5 4 6 6 7 8 7 9 9 13 14 11 6 6 12 19 21 21 28 29 28 27 27 27 24 28 31 35 40 42 43 43 42 42 42 41 41 39 29
10 6 6 4 2 0 1 2 2 2 3 2 1 4 6 8 7 6 9 14 16 16 16 14 6 6 13 18 21 28 26 26 25 30 28 27 28 32 36 39 43 43 43 43 44 43 42 41 34
3 3 2 2 1 2 1 2 5 2 2 4 2 4 5 6 8 9 10 12 17 22 20 16 14 12 8 6 14 21 25 24 31 29 29 23 28 31 34 37 40 43 42 40 39 39 39 40 37
2 3 3 4 3 2 1 5 2 3 4 4 1 4 5 6 7 8 8 11 16 19 21 21 17 13 10 8 6 7 16 24 28 30 31 31 31 32 30 33 36 40 40 38 36 34 34 35 33
2 2 2 6 2 1 2 4 3 2 2 1 2 2 5 5 6 7 9 12 11 17 18 19 19 15 10 8 9 9 10 13 18 23 25 27 28 28 26 25 28 32 32 32 32 30 29 27 25
2 6 2 2 3 3 2 3 4 5 4 1 3 4 4 4 6 6 7 10 9 13 13 14 14 14 12 9 7 8 8 9 13 17 20 22 23 23 22 21 23 25 26 26 27 26 26 26 22
2 2 4 3 1 3 1 3 5 9 7 2 4 4 2 5 7 7 9 11 11 10 11 12 14 14 13 11 8 5 5 5 6 9 13 15 16 16 17 18 20 21 24 24 25 26 25 24 23
2 3 3 3 3 1 1 4 1 5 5 2 6 5 4 5 7 9 10 11 9 12 14 14 15 13 13 12 10 9 8 9 8 6 6 7 10 11 13 16 18 21 22 23 25 26 25 26 26

GFSSGP_925_spd_066.txt.gz
Wind_Speed
6 5 3 4 6 5 11 6 1 3 4 2 3 7 2 8 3 1 2 8 13 23 22 21 21 20 19 19 19 18 15 14 14 13 11 11 10 9 9 7 7 7 9 9 14 14 12 11 11
8 5 4 2 7 10 11 9 7 7 2 8 3 6 8 1 2 2 5 5 18 21 21 20 20 20 20 19 19 18 16 13 11 11 11 10 9 8 8 6 5 6 8 7 14 15 12 10 11
8 7 5 5 9 15 11 9 9 4 3 2 1 3 2 1 2 2 2 13 20 18 20 19 21 21 21 19 18 18 15 12 10 10 9 6 8 8 7 7 6 6 11 9 12 15 11 10 11
9 6 3 10 16 17 15 2 3 7 4 1 6 4 3 3 2 2 11 18 21 18 18 20 22 21 20 19 18 16 15 12 9 8 7 7 6 7 7 10 7 8 11 11 11 14 11 11 10
7 4 10 15 22 17 13 6 7 9 1 1 7 2 3 3 3 8 15 19 18 18 18 20 20 19 18 18 18 18 14 10 10 9 8 7 6 8 10 10 7 9 10 12 14 12 9 9 8
7 7 12 18 23 20 13 13 13 11 5 4 4 5 1 3 5 9 14 17 17 18 17 18 19 19 18 16 16 14 13 11 11 10 10 9 8 9 12 12 9 12 13 13 11 9 8 7 8
14 11 21 20 21 19 18 16 15 13 9 8 4 5 2 4 6 9 12 15 17 17 16 17 18 19 19 17 15 14 12 13 12 9 10 10 10 10 12 12 13 10 10 11 9 8 7 7 8
10 9 21 20 18 23 16 12 8 16 17 1 3 5 5 3 8 10 11 15 15 16 17 16 16 16 16 14 15 16 15 12 13 9 10 11 10 10 11 15 11 12 11 9 8 7 8 8 9
5 9 17 23 21 17 7 14 9 3 9 8 7 4 3 2 9 11 12 14 14 14 17 17 16 16 14 13 15 16 14 14 11 12 11 11 9 10 10 12 15 12 11 9 8 8 9 9 9
11 14 21 14 12 12 11 13 12 9 12 12 10 5 2 7 11 13 14 14 14 14 17 17 17 15 14 13 12 15 13 14 14 15 14 12 11 11 11 12 14 13 11 10 10 10 9 8 6
13 17 12 6 7 7 11 11 7 10 12 13 13 5 2 6 11 13 13 13 14 13 15 16 16 16 15 13 13 14 14 14 15 16 15 14 13 11 11 10 11 10 11 9 9 9 8 8 7
11 16 8 6 5 6 8 7 9 11 4 5 7 4 1 6 10 13 14 13 14 15 16 16 17 16 16 14 15 14 15 15 15 16 16 15 14 13 12 12 12 11 11 11 11 10 9 8 7
16 6 14 9 5 4 6 7 9 11 8 4 3 2 2 2 10 12 12 12 13 15 15 16 16 16 17 17 15 15 16 16 16 16 18 17 17 16 14 13 12 12 11 12 11 10 10 9 8
9 15 5 14 10 4 6 7 5 9 12 11 9 10 8 7 6 11 16 16 15 14 16 16 18 18 18 18 17 16 15 15 15 16 17 20 17 16 16 14 14 13 13 12 12 12 11 10 9
5 12 18 13 10 9 9 16 18 13 10 10 9 11 10 9 9 12 12 16 17 17 17 18 18 19 19 21 19 18 16 16 17 16 17 20 19 17 16 16 15 15 14 13 13 12 11 10 9
16 7 10 15 19 6 11 21 2 7 20 18 17 15 14 15 15 16 15 14 12 13 16 17 18 20 22 25 21 20 18 17 18 18 18 21 21 20 19 17 16 16 16 15 15 14 13 12 11
15 13 20 7 19 14 17 10 10 5 8 11 10 11 13 15 17 20 20 18 16 15 16 17 20 22 22 22 24 22 20 21 19 19 20 21 23 23 21 19 18 18 18 18 17 16 16 14 12
21 22 13 16 9 20 15 17 4 7 5 9 10 10 11 14 15 16 15 15 18 18 18 19 20 21 22 20 25 24 23 23 21 22 22 21 23 24 24 22 21 20 20 20 19 18 17 15 14
12 17 10 14 6 12 16 12 15 14 14 14 14 14 13 13 11 13 15 15 15 15 16 20 19 22 21 21 22 23 26 26 26 28 23 23 24 25 26 25 23 24 25 24 22 20 19 16 15
12 16 14 3 9 7 6 9 11 14 16 13 14 14 13 10 11 13 14 14 16 17 18 19 20 21 23 23 23 23 21 23 25 25 27 25 25 26 28 29 28 26 26 26 25 23 19 18 19
14 15 13 6 7 3 2 8 11 4 2 3 1 1 0 2 4 4 7 9 10 14 17 18 19 20 21 25 24 21 19 17 17 27 32 35 33 28 30 29 29 27 27 28 29 28 24 21 19
8 6 11 11 10 4 3 3 4 5 7 7 7 6 5 5 5 6 7 7 4 3 7 12 15 17 18 20 24 25 25 23 24 23 24 24 26 35 29 29 29 28 32 30 33 32 32 23 21
4 7 10 6 4 1 5 4 7 8 9 9 7 6 6 5 5 7 8 8 9 9 6 2 7 11 15 16 21 23 25 24 24 24 23 23 23 31 36 28 28 29 29 31 29 35 35 33 23
10 9 10 6 2 3 5 4 8 8 9 8 5 5 5 6 6 6 7 8 10 9 8 8 7 2 6 13 15 20 22 22 21 22 23 23 21 26 31 34 31 31 29 29 31 30 35 35 29
6 10 4 3 3 1 1 4 4 8 4 8 5 5 5 5 6 6 7 7 9 11 11 9 8 5 4 0 9 14 19 21 21 22 20 21 18 21 29 30 31 32 36 31 26 27 30 35 33
14 2 3 5 6 5 3 5 4 2 5 6 1 0 2 5 6 7 8 8 7 9 10 10 11 9 6 3 2 4 9 14 17 18 19 19 19 19 21 24 27 29 30 30 29 28 28 30 30
5 3 2 5 2 2 4 3 2 7 10 5 2 3 3 4 6 7 7 8 7 10 11 11 10 9 9 7 6 5 5 6 8 11 13 15 16 17 15 18 21 26 29 29 28 26 25 21 22
1 8 3 1 5 4 5 4 6 12 10 6 4 2 2 3 5 6 6 8 8 8 9 10 11 10 10 9 7 6 6 6 6 6 8 10 11 11 11 17 19 20 23 26 27 26 22 22 22
4 2 2 1 2 2 4 3 7 17 13 9 4 1 0 2 4 5 6 6 5 7 8 9 11 12 12 11 10 8 7 7 6 6 6 7 7 7 8 11 14 15 17 19 22 23 23 22 21
1 2 3 3 4 1 1 3 6 15 11 2 5 2 1 1 4 4 5 6 6 8 9 10 11 11 11 10 9 9 9 8 8 7 7 6 6 6 6 7 7 9 12 15 17 16 18 20 22

GFSSGP_925_spd_069.txt.gz
Wind_Speed
11 10 8 6 6 6 13 14 3 6 4 2 3 5 3 8 2 1 3 5 16 20 21 21 21 20 19 18 17 15 14 12 11 10 9 9 8 7 5 5 5 6 5 11 12 11 11 11 11
9 10 9 7 8 12 12 15 8 8 5 3 4 6 6 2 5 7 8 6 16 19 19 20 21 20 18 18 17 15 13 12 10 10 10 9 7 6 5 3 3 4 5 7 13 12 10 11 11
10 12 7 5 12 15 13 11 11 6 3 2 3 4 2 1 6 4 3 14 20 19 18 20 20 20 19 18 17 15 13 10 8 8 8 7 7 7 4 4 4 5 8 6 13 10 10 11 10
10 8 6 12 17 20 20 8 4 8 5 3 0 5 4 6 3 4 12 17 19 18 18 18 20 20 19 17 16 14 13 10 9 7 6 5 6 6 6 5 5 8 10 8 13 10 9 10 9
19 8 11 16 21 19 16 10 5 11 10 6 1 5 3 7 6 10 13 17 18 18 18 18 19 18 17 17 17 15 14 10 8 7 6 7 6 7 8 8 6 8 9 9 13 10 8 8 7
8 10 12 19 23 23 18 12 8 8 10 5 5 5 5 8 9 11 14 16 15 16 16 18 18 16 15 16 15 16 12 8 8 8 8 7 7 7 10 9 8 9 11 12 10 8 7 7 6
17 14 22 22 23 21 23 15 16 16 13 11 3 6 10 11 9 10 13 14 14 14 15 17 15 15 16 14 15 14 10 10 9 8 8 8 7 8 12 9 9 10 11 11 9 7 6 6 6
13 15 25 22 20 22 19 17 18 17 15 7 2 5 3 11 9 8 11 14 14 14 16 15 16 16 15 14 14 13 11 11 10 9 6 7 7 8 13 9 9 8 8 8 7 6 5 6 8
13 15 19 26 25 21 11 14 13 13 19 9 10 12 8 9 10 10 9 14 15 10 15 16 16 15 15 14 14 12 12 11 13 10 8 6 7 8 9 10 10 10 11 8 7 6 7 7 7
12 16 25 19 21 15 12 10 14 10 14 14 13 6 4 10 9 10 11 12 11 13 14 16 16 16 15 12 13 14 13 11 11 11 11 9 9 9 9 11 13 12 11 9 8 8 7 8 6
13 18 19 18 4 2 10 11 16 15 15 17 16 14 8 8 9 10 11 11 13 12 13 12 15 15 15 13 12 14 14 13 13 14 11 12 11 10 11 9 12 12 13 9 9 9 8 8 7
14 22 18 9 3 3 10 12 17 13 12 12 5 6 4 9 9 12 12 12 13 13 14 14 14 15 15 14 14 13 14 13 13 14 15 13 13 12 12 12 12 12 12 11 11 10 10 9 8
20 14 16 9 5 10 9 14 15 16 5 2 6 3 5 4 8 10 11 12 12 15 15 16 16 16 15 15 13 13 13 13 13 13 15 15 14 13 13 12 13 13 12 13 12 11 11 10 9
11 18 8 16 10 6 8 11 10 14 11 11 9 9 7 5 4 10 13 13 13 13 14 16 17 15 15 16 14 13 13 13 14 14 15 18 16 15 15 14 13 13 13 13 13 13 12 11 11
11 13 15 11 16 7 9 14 20 16 10 16 15 14 11 10 9 10 11 17 18 17 15 16 16 17 18 17 16 15 13 13 14 15 16 18 19 17 16 16 16 15 14 14 13 13 13 12 11
17 12 13 20 12 12 10 21 18 19 16 17 16 13 13 13 14 13 12 12 14 16 18 17 16 17 18 19 18 16 15 15 15 16 16 19 20 19 19 18 17 16 17 15 15 15 14 14 13
14 11 21 16 25 11 17 13 13 6 12 20 20 17 15 15 16 18 17 16 14 13 14 16 18 19 19 18 19 18 17 18 17 16 17 18 21 21 20 20 19 18 19 18 17 17 17 16 14
20 23 20 20 12 24 19 17 6 5 8 10 11 13 13 14 16 18 20 19 18 18 17 17 17 19 19 18 18 22 20 19 18 19 19 19 21 22 23 21 21 20 20 23 20 19 18 17 16
17 17 21 15 8 13 23 18 17 11 11 12 12 13 13 13 12 15 15 14 15 17 19 20 20 20 19 20 17 22 24 28 21 21 20 20 21 21 24 24 22 23 24 24 26 21 20 18 16
13 19 21 8 8 8 13 20 17 13 16 15 15 15 14 13 12 9 14 15 16 18 18 19 20 21 21 21 20 18 19 23 23 27 29 22 24 26 26 27 26 26 25 24 28 25 21 20 20
21 14 16 11 12 9 6 13 13 15 15 12 8 11 11 8 8 9 10 11 12 14 16 17 19 20 21 21 20 19 18 17 16 24 28 29 28 25 27 27 28 25 25 26 27 30 28 23 23
15 15 12 12 14 6 13 3 16 15 11 10 8 7 5 4 4 1 1 2 1 4 7 11 14 15 18 18 21 22 21 20 20 19 19 21 24 28 28 26 27 28 27 26 28 28 31 25 23
4 4 11 13 15 6 12 5 10 10 11 11 9 7 5 4 3 5 5 5 6 6 4 3 7 12 16 15 18 19 21 19 19 19 20 20 19 22 25 29 28 28 31 30 28 27 29 30 24
7 12 8 2 3 5 11 10 10 11 12 12 9 8 6 5 5 5 5 5 7 7 6 6 4 2 6 12 15 17 19 19 18 18 18 18 18 17 20 22 26 31 27 32 32 29 28 29 27
10 10 5 4 4 3 6 6 4 8 12 11 11 8 6 4 4 4 4 3 5 6 8 7 6 5 4 2 8 13 15 18 18 18 17 17 17 18 22 22 22 26 30 28 29 29 31 34 31
9 2 2 5 9 9 5 7 4 11 9 9 7 5 4 4 4 3 4 4 4 6 7 8 7 6 6 4 4 3 7 11 14 16 16 16 15 15 15 20 22 24 25 29 31 30 31 28 29
4 3 1 2 3 4 8 4 6 9 11 10 7 6 5 3 2 3 4 5 5 5 6 7 7 7 7 7 5 4 4 4 6 8 10 12 13 13 12 14 15 17 20 23 27 30 29 27 25
1 6 2 2 5 5 6 6 5 15 15 11 9 8 6 3 1 3 4 4 5 5 6 6 8 8 8 8 7 5 5 5 4 4 4 5 6 7 8 11 13 13 15 17 20 21 21 20 20
2 3 2 3 3 3 5 3 9 18 15 12 7 4 4 2 2 3 3 3 4 5 7 7 8 8 8 8 7 6 5 5 4 4 4 4 4 4 5 6 7 10 11 12 14 15 17 18 17
4 4 6 3 3 1 3 4 9 16 15 10 6 4 4 2 1 1 2 3 4 5 7 8 9 10 9 7 6 8 8 8 9 9 9 8 7 7 6 4 2 3 5 8 10 11 12 12 13

GFSSGP_925_spd_072.txt.gz
Wind_Speed
3 8 13 15 3 4 8 9 7 5 2 4 7 4 7 7 6 4 6 6 27 25 24 23 23 21 20 18 16 15 14 13 12 10 7 8 8 8 8 7 8 8 9 12 13 13 13 14 13
4 7 12 4 5 7 7 12 9 4 9 8 3 4 4 2 10 8 11 11 23 27 23 24 23 22 21 19 18 16 13 12 10 9 9 8 6 7 7 5 6 7 9 13 13 12 13 13 13
7 6 3 4 7 11 9 11 8 9 8 1 2 3 5 5 9 8 15 17 24 25 23 22 24 22 21 19 16 15 13 12 10 8 7 8 7 7 5 6 5 8 8 14 12 11 12 13 12
7 6 4 6 12 15 16 11 5 9 6 2 3 3 6 15 6 10 16 21 23 22 25 21 23 21 20 18 16 15 14 10 8 6 5 5 5 5 8 7 7 11 9 13 12 11 11 12 11
8 4 5 9 16 16 16 16 5 0 9 8 3 3 6 8 15 16 17 21 22 26 23 21 21 20 18 18 17 15 13 10 10 8 7 8 7 9 8 8 8 11 10 15 12 11 9 9 9
5 5 6 13 20 20 14 12 9 5 7 6 1 6 5 13 16 16 18 19 22 24 22 22 20 19 18 18 18 16 12 10 8 9 8 7 8 9 9 10 10 11 13 14 11 10 8 7 7
10 9 14 16 20 18 17 14 9 6 5 6 1 4 9 10 16 17 19 17 25 24 20 21 19 18 17 17 17 18 12 7 9 8 7 8 9 11 12 13 11 11 12 11 10 8 7 6 7
7 6 17 19 19 20 15 17 10 9 8 5 4 3 4 9 12 15 18 16 21 19 22 17 16 17 17 16 17 15 10 8 9 9 7 6 8 12 13 12 11 11 11 10 8 6 5 4 7
13 7 12 20 21 13 11 9 11 7 7 6 8 4 11 16 10 8 16 19 18 22 20 18 17 17 17 14 16 13 11 11 11 10 7 6 7 11 14 11 9 8 8 8 6 5 5 5 7
8 11 19 17 13 15 10 9 9 5 4 9 5 14 17 16 12 9 7 16 16 10 23 23 20 19 19 21 19 16 14 12 12 12 11 6 11 7 10 11 12 11 10 9 7 7 6 7 6
9 14 14 16 11 8 7 6 5 6 6 8 7 10 9 17 12 10 6 16 13 12 8 22 24 19 21 18 16 15 17 16 14 14 13 12 14 13 12 13 14 14 12 11 10 9 9 10 10
12 19 17 11 3 4 1 3 3 5 5 7 4 0 10 6 9 12 9 10 13 12 10 9 13 19 17 17 14 16 19 18 17 19 11 14 16 13 12 10 13 16 13 11 9 8 10 8 6
17 13 14 17 6 4 3 2 3 6 6 4 9 8 4 7 10 15 16 13 21 17 14 15 11 13 18 17 16 15 17 17 17 19 18 16 18 15 14 16 11 13 13 14 14 14 10 12 11
6 15 14 11 8 4 1 0 1 9 9 5 6 4 2 2 1 15 12 12 13 21 22 18 18 11 14 16 16 15 15 15 15 16 18 18 18 17 15 17 16 15 17 12 17 14 14 15 13
7 5 11 4 7 3 2 3 14 9 8 6 8 6 6 7 5 4 19 18 15 11 16 21 20 19 22 16 16 17 16 15 18 16 18 19 19 19 18 17 18 17 16 16 16 16 16 14 15
10 4 8 12 7 6 7 7 11 10 11 11 8 7 9 9 8 10 9 14 23 21 20 18 19 21 22 22 12 17 15 16 16 18 18 20 22 21 20 20 18 21 18 17 17 17 17 17 17
7 8 9 7 14 5 8 7 9 12 11 11 9 9 7 8 11 16 13 11 8 11 18 23 24 23 22 19 21 15 17 17 18 17 20 20 23 24 22 21 21 17 22 21 20 19 20 20 17
16 16 17 15 16 15 12 10 5 7 4 9 9 11 11 8 8 13 15 16 13 11 11 13 16 23 23 22 18 21 16 18 18 20 20 21 23 24 24 24 23 22 20 25 23 22 22 21 21
10 11 14 15 12 21 19 14 16 7 5 6 8 7 7 6 4 9 13 11 14 18 16 16 14 16 17 25 24 23 25 23 21 19 20 22 23 24 27 28 26 26 27 27 29 25 24 23 20
15 8 14 12 12 9 12 19 16 16 10 9 9 8 8 6 6 8 6 2 6 8 10 13 15 14 20 20 22 23 23 25 30 27 22 23 22 25 28 30 30 29 29 28 28 32 24 26 24
12 10 12 9 7 3 2 7 16 14 10 9 8 6 6 6 6 7 9 8 5 8 10 10 17 21 16 20 19 21 16 16 18 26 31 31 25 21 25 28 30 30 28 30 29 34 34 24 28
13 11 16 10 11 5 8 4 13 15 9 9 6 4 6 3 1 5 8 9 6 4 7 11 12 10 13 16 18 15 23 19 22 23 22 23 24 28 31 20 28 29 30 29 30 28 35 26 26
4 11 10 7 8 7 7 1 5 13 11 8 8 7 6 5 7 7 5 7 5 4 5 3 8 14 16 12 10 13 14 14 22 21 18 17 18 19 21 22 28 27 31 32 31 28 28 36 29
6 5 5 7 3 2 9 7 4 6 11 8 7 8 7 7 7 7 7 10 9 7 7 7 5 4 3 9 13 15 16 16 13 12 14 14 16 19 19 19 19 24 28 28 30 31 32 28 33
3 10 3 3 1 4 11 8 8 9 11 9 10 9 8 6 7 7 6 7 8 8 9 9 10 9 8 6 4 9 12 13 15 12 11 11 13 16 15 16 17 20 21 25 29 29 32 33 29
7 1 1 4 4 4 5 5 4 7 9 10 9 9 7 8 6 6 6 5 7 7 9 9 9 10 9 8 7 6 5 5 7 8 8 9 8 7 9 12 14 17 19 21 22 26 30 28 32
5 5 4 4 5 4 5 3 4 2 8 8 8 7 7 7 6 6 6 8 7 10 10 9 10 10 10 9 7 5 6 4 5 4 5 4 4 4 4 5 7 14 11 13 16 20 23 27 28
3 5 4 2 2 3 5 7 4 11 11 10 9 8 8 6 6 5 6 8 10 10 8 9 8 9 9 9 9 7 6 5 4 3 3 2 2 3 4 6 8 8 11 11 13 14 15 15 17
3 2 3 1 1 1 3 2 6 16 12 10 9 8 8 7 6 5 6 11 9 8 8 9 9 9 9 8 9 10 10 10 9 8 6 6 5 3 4 6 4 4 3 4 7 9 11 12 12
3 5 5 3 2 1 1 3 7 9 9 8 8 6 7 7 6 5 7 8 9 8 9 10 10 10 9 8 9 11 11 11 11 12 10 9 7 6 6 3 3 3 4 3 2 1 2 4 5

GFSSGP_925_spd_075.txt.gz
Wind_Speed
4 2 6 6 3 3 4 7 2 5 3 2 2 7 3 2 2 5 6 13 29 34 29 26 25 24 22 21 20 18 16 14 14 12 10 10 10 10 10 11 11 13 15 15 15 15 15 14 14
3 5 7 2 3 1 5 7 8 5 5 3 6 4 6 3 3 8 12 26 30 34 29 27 26 25 23 21 19 18 16 15 11 8 7 8 9 9 9 8 10 12 15 15 15 14 14 14 15
5 6 4 2 3 5 5 8 7 4 6 4 3 2 4 2 3 11 25 29 26 32 28 28 26 25 23 21 20 18 16 13 12 10 10 8 10 9 7 8 10 11 15 13 14 14 13 14 17
5 6 4 2 9 8 13 11 8 4 4 5 4 2 5 3 7 14 29 31 26 28 27 26 26 24 23 21 19 18 18 14 11 10 9 9 6 7 9 9 12 12 14 13 13 13 12 13 15
5 1 4 3 14 11 18 10 7 4 6 4 4 3 3 5 19 24 30 30 31 28 26 27 25 24 22 21 19 19 16 13 12 10 9 10 9 9 9 11 13 13 15 13 13 11 11 11 13
3 3 2 13 16 23 16 12 9 5 4 5 4 4 1 17 18 21 30 30 31 31 28 26 24 22 21 20 20 18 16 13 12 10 11 11 10 11 11 11 14 13 17 14 13 9 8 9 11
6 5 7 9 19 22 23 12 7 4 5 5 7 5 1 4 17 20 22 32 34 30 28 26 23 22 21 22 20 19 14 11 10 10 7 10 12 13 12 14 14 15 15 13 13 9 8 8 10
4 4 8 8 13 9 25 15 13 9 5 0 6 5 5 4 17 18 28 30 29 26 26 27 24 22 21 21 20 17 12 11 10 10 6 8 12 15 16 15 12 15 15 13 11 9 7 7 10
5 2 8 14 16 19 18 12 20 6 5 2 4 8 12 14 14 27 30 28 27 25 26 24 23 22 21 19 19 16 12 11 12 10 8 7 11 16 16 15 13 14 13 12 10 9 7 8 11
5 5 16 11 9 6 10 1 7 10 3 4 7 8 20 17 11 9 16 18 24 27 26 22 20 22 21 21 20 17 15 15 15 13 10 7 10 13 16 14 12 11 11 11 10 9 8 10 11
5 13 19 8 9 4 6 7 13 19 10 5 11 11 10 17 10 7 4 26 25 23 24 25 22 22 24 23 24 23 21 18 15 14 14 9 12 12 14 15 15 14 14 13 12 11 11 12 12
6 14 4 4 5 4 5 5 16 19 7 7 8 10 7 13 9 12 10 13 18 20 19 19 25 26 26 25 25 21 21 20 20 17 14 16 16 18 15 15 16 18 15 13 13 11 12 14 12
7 3 12 16 3 8 9 5 5 8 2 7 10 9 10 9 15 16 14 12 13 16 18 13 14 25 27 29 23 17 19 21 22 20 16 17 18 22 16 15 14 18 16 15 13 11 13 13 12
3 10 12 4 11 11 5 4 2 5 3 5 10 5 5 7 13 17 17 15 17 13 20 16 13 16 27 25 20 18 21 22 21 21 20 17 20 21 16 16 15 13 14 13 13 11 12 14 12
6 4 7 4 8 7 4 3 7 5 5 6 6 5 2 1 13 16 21 19 17 21 16 21 19 15 15 21 21 20 18 20 20 18 19 20 22 22 18 18 21 17 15 14 15 17 15 17 18
10 4 2 6 6 5 8 5 8 7 3 8 4 6 6 5 7 11 16 18 17 15 20 20 19 24 21 18 18 21 20 19 19 20 19 21 21 21 20 20 23 20 19 18 19 18 19 18 19
6 6 8 3 7 5 6 1 4 7 7 8 8 6 5 6 8 14 13 14 21 21 20 24 23 20 27 25 20 15 17 21 19 20 21 21 23 23 22 23 23 22 23 22 23 22 22 21 21
18 14 6 7 13 7 6 6 5 7 9 10 7 6 7 7 9 18 18 16 12 14 27 24 22 24 22 22 28 21 16 18 19 20 21 22 23 24 27 27 26 25 23 26 25 25 23 25 23
5 9 6 10 8 6 8 7 12 7 4 8 8 8 6 11 9 14 16 18 17 13 11 20 20 25 26 24 22 24 25 23 23 22 25 24 25 26 28 29 29 27 28 27 29 27 27 26 21
7 9 10 4 9 12 9 14 10 13 6 7 7 7 7 1 5 8 6 8 9 8 6 8 10 13 25 27 27 24 27 29 27 26 21 25 27 28 30 31 32 32 30 30 28 32 28 27 24
4 5 3 1 3 3 6 7 8 11 9 8 8 7 6 5 5 5 8 9 8 5 1 2 7 11 11 16 25 26 21 24 22 29 32 29 25 21 26 31 35 34 35 33 33 33 36 30 30
7 6 6 3 7 5 4 4 9 14 18 12 13 8 6 5 6 6 8 9 6 3 3 6 10 10 9 13 9 23 25 24 26 25 25 26 29 30 28 25 24 29 33 34 35 35 37 34 28
4 4 3 6 9 3 4 1 7 8 17 20 11 8 5 6 8 7 8 9 8 6 6 2 5 12 14 10 7 5 11 14 17 20 23 22 19 17 16 17 20 25 26 26 30 28 28 30 29
5 6 8 3 2 3 7 6 5 6 20 6 7 8 9 8 7 7 10 11 9 8 6 8 7 8 4 3 9 10 7 9 10 7 14 22 19 18 19 18 16 16 16 23 24 24 21 27 30
6 4 2 3 4 5 8 5 10 6 5 9 9 9 8 8 7 6 7 10 9 8 8 9 9 10 8 9 8 3 5 7 8 7 6 8 11 11 10 12 16 17 17 16 19 22 24 26 27
4 4 2 4 4 4 4 6 5 7 8 12 12 10 8 8 7 7 7 10 10 9 8 9 9 9 7 5 6 7 5 4 4 1 1 1 1 2 5 9 10 11 9 10 12 15 18 20 23
6 5 6 2 0 3 4 2 6 7 7 12 13 11 8 8 8 7 9 11 12 12 10 9 8 8 7 6 4 3 4 5 6 5 5 7 7 5 4 4 5 5 6 12 11 12 12 13 16
1 6 3 2 1 4 4 3 5 6 7 10 11 10 8 7 8 7 8 13 11 10 9 8 8 8 8 8 8 8 7 5 4 2 4 4 4 3 2 2 3 5 5 7 11 12 13 12 14
4 3 2 2 3 3 2 5 5 14 12 11 9 8 9 8 7 6 8 12 12 11 10 10 9 8 9 10 11 11 13 11 7 6 5 3 1 1 1 1 2 3 2 1 2 3 4 6 6
5 5 4 4 5 3 2 4 3 8 8 8 8 8 7 8 7 6 10 12 11 10 9 9 8 9 10 10 9 10 9 8 8 9 7 6 6 6 5 4 3 3 3 2 2 1 1 2 1

GFSSGP_925_spd_078.txt.gz
Wind_Speed
9 6 6 3 3 4 3 6 3 6 2 3 1 6 6 2 3 4 3 17 29 35 31 29 26 25 24 23 22 21 19 17 16 16 15 13 13 13 13 13 14 16 15 14 14 14 14 14 16
7 6 3 3 4 2 5 5 6 5 6 6 6 3 5 2 1 7 13 24 35 34 31 30 27 26 24 23 22 20 19 17 15 12 10 11 12 12 10 11 13 15 15 15 14 14 14 17 19
7 2 2 5 4 5 5 4 1 6 7 5 4 4 4 1 4 13 16 33 35 35 31 29 28 26 25 23 21 19 18 17 14 12 11 11 13 10 8 11 13 16 14 14 14 14 16 19 18
2 1 3 5 7 6 6 3 9 11 8 4 5 7 3 4 7 12 32 34 35 34 31 30 28 27 25 23 21 19 19 17 14 13 12 9 9 8 9 12 14 15 13 13 13 13 16 18 16
1 1 3 4 7 6 11 2 7 10 7 3 1 4 3 3 7 31 33 32 34 33 31 30 27 26 25 23 21 21 19 16 14 15 13 9 9 9 10 13 15 15 14 12 12 10 13 16 15
1 2 2 9 13 17 10 3 6 6 9 5 5 4 1 6 24 30 31 30 31 32 31 29 27 26 24 22 22 21 17 15 14 13 12 12 11 13 13 15 17 16 15 13 10 8 11 14 15
5 4 5 8 12 14 15 3 4 7 9 5 6 5 0 0 18 28 30 29 30 31 31 29 27 25 24 22 22 20 17 14 10 9 12 13 13 13 13 16 16 17 16 14 11 9 9 13 15
3 4 5 5 12 12 10 0 3 5 9 4 5 6 5 4 20 31 30 30 31 30 32 29 27 25 24 24 22 20 16 12 10 10 7 11 14 14 16 15 15 16 15 13 12 10 8 11 14
3 2 11 9 9 6 11 5 10 9 3 10 1 6 12 22 27 29 25 24 26 27 31 30 28 25 24 24 22 18 14 13 12 9 9 10 15 16 18 15 14 15 15 13 11 9 8 9 13
4 4 9 6 5 3 5 4 10 9 15 9 3 6 19 27 27 22 21 19 23 25 29 30 28 28 26 23 22 19 16 14 14 13 10 10 14 17 17 16 13 14 12 11 10 8 8 9 12
6 9 3 5 6 7 5 1 4 11 13 12 8 9 8 18 16 16 19 27 28 28 29 28 28 28 28 25 25 22 20 18 17 16 12 9 14 18 19 16 15 13 11 10 10 10 9 10 11
5 4 4 3 7 8 7 1 2 18 21 12 10 12 7 12 13 17 19 24 27 30 28 28 27 28 28 27 27 25 23 21 20 18 16 15 16 17 19 18 16 16 15 14 14 12 11 11 11
4 1 7 5 6 8 10 9 12 21 18 11 8 6 8 6 8 17 27 26 29 29 26 26 26 28 30 27 27 26 25 23 21 20 19 19 19 18 17 16 16 17 17 15 14 14 13 14 14
3 8 2 4 7 7 6 3 4 15 14 8 4 7 7 7 12 14 21 23 20 23 25 26 26 26 29 29 27 27 25 22 22 22 20 19 21 19 20 18 17 16 18 16 15 13 13 16 16
2 7 5 5 5 5 6 8 10 7 10 5 3 4 8 9 12 16 21 21 22 23 26 24 22 21 29 32 29 29 22 22 24 23 21 21 21 20 22 20 16 16 14 15 15 16 15 16 16
8 2 3 5 8 6 16 22 7 7 4 6 7 5 5 4 18 21 20 17 18 20 21 23 23 20 22 29 29 25 23 24 25 24 23 25 24 22 23 22 19 17 18 18 19 19 20 20 20
6 5 7 2 9 5 6 6 7 7 10 11 8 6 5 5 2 12 23 21 17 20 18 20 21 23 21 24 27 23 21 21 23 22 21 21 25 24 26 24 21 19 23 24 23 24 22 24 22
9 13 5 4 6 3 3 3 2 4 7 9 7 7 6 7 8 11 17 20 18 19 20 21 21 21 22 23 21 21 21 22 23 24 24 22 23 24 25 26 24 22 24 27 26 25 24 24 23
7 7 8 3 5 3 5 4 9 8 3 8 7 7 8 8 8 12 15 17 17 15 20 21 24 23 20 20 24 25 24 22 23 25 25 25 25 26 28 28 28 27 27 29 29 27 26 27 23
12 11 5 3 10 4 8 13 8 9 6 6 6 7 8 4 3 2 6 10 13 15 15 20 24 21 24 26 23 23 29 28 26 24 24 27 28 29 29 29 29 30 30 30 30 30 31 30 27
2 9 6 3 3 4 3 7 9 8 9 7 8 7 7 9 7 3 8 9 11 12 12 12 15 14 17 23 24 21 20 22 29 29 27 27 26 27 30 31 33 32 32 34 34 32 32 27 29
4 5 4 2 2 4 5 5 9 15 14 11 10 9 7 8 5 5 7 7 5 4 4 6 7 8 10 14 19 25 26 22 26 27 28 31 30 28 24 24 29 32 32 31 35 36 35 32 26
4 6 7 3 2 1 1 2 5 3 13 20 20 14 8 8 9 8 8 9 8 5 3 2 7 9 7 9 10 16 23 24 24 17 19 21 21 21 20 23 25 26 26 26 27 29 32 30 29
8 8 7 3 2 4 8 8 5 7 12 10 15 11 9 9 8 8 12 11 9 8 8 8 8 7 2 5 7 10 11 12 13 12 11 15 20 19 17 18 17 16 16 17 18 21 22 24 25
5 7 3 3 4 5 7 7 13 7 7 9 13 10 9 9 9 8 8 11 10 10 9 9 8 9 8 8 6 4 8 9 10 11 12 11 13 16 21 19 21 22 19 16 14 12 12 14 16
4 5 4 5 4 3 6 8 7 4 10 6 9 12 10 9 7 8 8 12 10 9 8 7 7 6 5 5 6 7 6 5 4 5 6 8 7 8 12 15 15 14 14 13 11 12 14 13 12
4 3 2 4 0 3 5 6 8 3 2 8 10 9 9 8 8 8 9 12 11 9 8 6 5 5 5 4 3 4 4 4 5 5 6 7 7 7 7 8 10 10 9 10 11 13 10 10 12
4 9 3 2 3 4 4 4 5 3 7 9 11 9 7 6 8 7 8 14 11 9 8 7 5 5 5 5 5 5 5 5 5 6 6 6 6 6 5 5 5 5 6 10 12 7 7 8 7
4 4 2 2 3 4 1 5 5 9 11 13 8 9 9 8 8 7 8 12 12 10 8 8 6 5 7 7 8 8 8 7 6 5 5 5 4 4 4 3 2 2 3 6 4 3 3 3 1
4 5 6 4 4 2 4 5 4 7 8 8 8 9 8 8 7 7 11 14 12 10 8 7 7 7 7 7 6 6 6 5 5 6 6 5 5 6 5 4 4 4 4 4 4 4 2 1 1

GFSSGP_925_spd_081.txt.gz
Wind_Speed
7 8 7 2 3 4 3 6 2 5 2 2 1 4 6 4 3 5 5 18 27 37 32 30 29 26 24 22 21 19 18 16 15 14 14 14 13 14 14 14 15 15 14 13 12 13 14 16 16
7 4 1 2 5 3 5 4 5 4 6 6 1 4 2 3 3 6 15 16 32 33 32 30 28 27 24 22 21 19 18 16 15 14 13 13 13 14 14 14 15 14 14 12 12 13 15 17 15
4 1 2 4 4 6 5 3 2 7 8 3 2 4 2 3 3 13 6 26 35 33 31 29 28 27 24 23 21 19 18 16 13 11 12 13 13 12 12 14 15 13 13 12 12 15 17 15 14
3 3 2 1 6 6 6 2 3 6 7 5 3 5 2 3 13 10 23 31 34 33 31 28 27 27 25 23 20 20 18 15 14 13 14 13 12 10 12 14 16 13 12 12 12 15 16 15 13
3 2 4 7 7 5 3 2 3 6 4 8 6 4 2 4 6 20 30 31 30 32 30 28 27 27 25 23 21 20 18 16 15 14 12 9 9 10 13 16 15 14 11 11 11 13 15 14 12
2 1 3 8 16 10 3 3 2 3 4 12 5 1 2 7 21 27 29 30 25 29 31 29 26 26 25 24 22 21 19 17 16 14 11 8 10 10 12 16 16 14 12 10 9 9 13 13 11
5 4 5 11 6 6 6 5 3 1 5 6 6 2 0 6 19 27 30 29 27 28 30 29 26 25 24 22 22 22 18 15 12 12 11 9 10 11 11 16 15 15 12 10 8 7 9 11 9
4 4 4 5 11 13 5 4 5 3 4 8 2 5 5 8 25 26 25 27 29 28 29 28 26 25 23 22 22 20 17 13 10 9 12 10 10 10 12 15 14 14 13 11 8 6 6 8 9
4 2 9 9 7 4 8 14 10 2 3 5 3 5 8 28 31 27 22 22 23 25 25 27 27 25 24 23 22 19 16 11 8 9 9 12 12 13 13 13 14 13 11 9 8 6 5 8 10
5 6 7 7 5 5 4 8 7 5 8 7 7 7 12 24 28 24 20 22 23 25 22 26 29 27 25 25 23 21 17 13 12 11 10 12 14 15 15 14 12 12 12 9 8 7 6 7 10
6 7 2 2 6 5 6 3 5 6 6 5 6 10 6 14 19 21 22 23 25 29 23 26 30 28 27 27 25 22 18 15 14 12 10 11 14 16 17 16 14 14 13 12 11 10 8 8 10
2 2 2 2 5 5 6 6 5 12 12 9 10 9 7 9 12 18 20 20 23 29 30 29 30 29 29 26 24 23 21 19 17 16 14 12 13 18 17 17 15 15 14 12 12 11 10 9 10
9 2 7 3 7 8 8 6 4 8 5 15 12 11 11 9 8 16 21 25 28 28 29 30 30 30 29 27 26 26 24 22 19 18 18 15 13 16 18 17 16 16 16 14 13 13 12 11 12
8 12 4 5 4 4 7 5 6 3 2 18 14 12 8 8 6 8 20 25 29 28 29 29 29 30 30 28 28 28 27 24 22 21 20 18 16 17 17 16 17 17 17 16 14 13 13 13 13
1 14 2 3 6 6 4 3 7 6 12 17 19 9 8 5 13 18 23 22 28 29 27 27 28 27 30 30 28 28 27 25 24 22 22 20 19 18 18 18 17 17 16 15 16 14 14 13 14
7 1 10 5 7 5 10 17 9 13 17 16 22 13 5 6 11 14 20 23 26 26 31 26 27 28 28 31 30 27 26 25 24 22 21 22 22 20 20 21 21 17 17 16 16 15 17 17 17
4 4 5 3 8 4 6 4 18 17 17 15 16 18 3 5 6 12 16 19 23 26 27 28 25 24 24 31 32 30 28 27 24 23 23 23 23 23 24 24 23 19 18 19 19 19 19 20 20
12 6 3 4 5 3 5 3 9 18 19 17 14 12 6 6 9 12 18 20 17 21 23 25 25 24 21 21 26 26 26 28 25 25 26 24 25 25 27 27 26 23 23 23 24 24 23 24 23
11 8 5 4 2 4 4 2 6 4 9 11 10 12 12 9 8 11 13 20 19 18 21 22 23 26 25 23 23 25 25 22 23 24 25 24 24 23 27 28 27 27 27 26 25 26 26 25 23
14 10 4 2 2 4 4 7 7 7 6 9 10 15 15 6 7 5 7 15 17 17 21 23 22 21 22 23 26 27 26 25 25 25 26 27 28 26 27 27 27 27 28 28 27 27 27 26 24
2 16 6 4 3 2 3 5 7 11 7 5 7 8 8 10 8 5 6 8 16 17 12 16 21 21 21 21 21 20 20 22 25 28 26 27 26 27 27 27 29 29 28 30 30 28 28 26 24
4 8 7 3 4 4 6 4 6 11 14 8 13 10 9 7 6 4 8 10 11 11 9 10 11 12 15 19 22 24 26 23 23 24 29 30 27 25 23 26 27 29 29 29 30 29 29 29 22
3 6 7 4 4 2 0 1 6 4 9 20 18 11 8 9 9 8 8 12 10 9 7 6 7 8 9 10 14 20 23 25 24 22 20 20 20 21 22 23 24 24 22 22 22 24 25 26 23
6 10 8 5 3 2 6 6 5 6 9 4 11 12 10 9 8 7 9 11 10 8 9 9 7 4 5 9 11 12 15 19 20 20 20 20 19 20 20 19 18 18 19 17 16 15 13 16 21
6 4 3 3 4 4 3 6 12 5 6 5 7 9 9 10 9 8 8 12 12 11 10 9 8 9 6 3 3 8 11 11 12 13 14 13 12 14 17 20 18 18 18 16 15 14 12 9 11
5 7 4 6 4 3 2 6 6 7 8 7 8 8 8 9 10 9 8 14 15 12 10 8 6 7 5 5 5 4 2 5 8 9 10 11 12 13 15 16 19 18 16 15 14 11 8 7 9
4 4 5 5 3 3 4 7 8 4 7 4 5 7 10 9 8 9 11 16 15 12 10 8 6 6 4 4 3 3 4 4 4 3 4 5 5 4 5 8 10 11 12 11 11 10 9 13 9
3 9 3 2 2 3 4 5 6 5 9 4 7 9 8 7 8 7 8 15 13 12 10 8 6 5 5 5 4 4 3 3 4 4 4 4 4 4 5 6 7 8 8 7 7 7 12 8 6
3 2 2 3 3 4 1 5 6 6 8 9 7 7 8 8 8 7 9 14 14 11 10 8 7 7 6 7 7 6 5 3 3 3 3 3 3 4 4 5 5 5 5 5 6 6 5 3 2
1 5 5 4 4 2 3 6 2 7 7 8 6 8 7 8 8 7 11 16 14 12 10 8 8 8 7 7 6 5 5 3 2 3 2 3 3 4 4 4 4 5 5 6 6 6 6 6 4

GFSSGP_925_spd_084.txt.gz
Wind_Speed
8 7 3 3 3 4 3 5 2 2 1 0 7 3 5 2 5 5 5 18 25 36 32 29 27 26 24 21 19 18 17 15 15 15 15 15 14 13 14 14 15 15 14 14 14 15 16 16 16
7 1 2 2 5 3 5 3 4 2 3 8 5 2 1 2 2 6 16 15 31 31 31 31 27 26 25 22 20 18 18 16 14 15 15 14 13 13 13 13 14 14 14 14 15 15 16 15 13
3 1 3 4 4 6 5 4 3 4 5 4 6 0 1 2 2 15 8 24 36 32 31 30 28 26 25 24 21 19 16 15 14 12 12 13 13 12 13 13 13 13 13 13 15 15 15 14 13
5 2 2 3 6 5 5 5 3 4 5 5 3 6 3 3 10 10 21 29 35 32 30 29 27 26 24 23 20 18 17 15 12 11 12 13 12 11 13 14 11 11 12 13 14 14 14 12 10
1 2 2 3 5 4 3 3 3 2 1 5 4 5 3 7 3 21 28 31 34 30 29 27 25 25 23 21 20 19 17 14 12 11 13 11 10 10 13 14 12 11 11 12 12 13 12 10 10
2 2 4 10 8 6 2 4 3 3 2 6 6 6 4 3 11 20 26 28 28 32 29 26 24 24 23 21 21 19 16 15 14 13 11 9 9 10 13 15 14 11 10 11 11 11 11 9 8
5 3 4 4 12 3 8 5 3 5 3 3 4 2 5 1 10 20 23 22 23 27 30 26 25 24 22 21 20 20 18 15 13 11 8 5 9 9 12 15 13 11 9 9 9 8 9 8 6
4 3 6 5 9 9 8 5 6 6 4 4 0 3 6 2 11 20 22 21 23 25 28 27 26 24 23 21 21 20 16 14 11 11 13 8 9 10 10 15 13 11 9 8 7 6 7 7 6
4 2 13 11 9 7 6 8 4 3 6 2 3 2 8 7 16 17 20 21 22 23 24 27 26 24 22 21 20 18 15 11 7 8 10 12 11 11 12 14 13 11 9 7 6 5 4 6 7
4 8 6 5 4 4 4 7 5 5 4 2 2 11 18 12 18 14 18 18 21 24 23 26 27 26 23 22 21 19 16 11 7 8 9 11 11 12 13 13 12 10 9 8 7 6 5 5 7
5 4 4 1 6 6 6 1 2 7 2 4 5 6 8 7 8 14 16 19 21 23 22 23 26 27 25 24 23 20 17 12 9 9 8 10 12 12 14 16 14 12 11 9 8 8 6 5 7
4 6 3 4 2 6 6 5 2 5 10 9 6 1 3 5 8 14 14 19 21 22 22 24 24 28 27 25 25 22 19 15 12 11 10 10 12 13 14 15 14 13 13 11 10 10 9 7 7
11 4 5 1 3 4 7 5 5 7 3 5 6 7 8 11 13 16 17 19 20 23 25 24 25 30 28 26 26 24 21 18 15 14 13 12 11 14 16 15 14 13 13 12 11 10 10 10 9
9 8 2 5 3 3 5 4 5 4 2 4 3 5 8 10 12 14 15 18 22 22 25 27 28 28 28 27 25 26 22 20 18 16 15 15 13 12 15 16 16 14 14 13 12 11 10 11 11
1 12 4 2 3 3 3 2 6 3 2 7 6 4 8 12 14 18 20 21 24 26 24 26 27 28 28 27 25 25 24 22 21 19 17 18 17 15 14 15 15 14 13 14 13 13 12 12 12
4 3 6 5 6 5 5 8 5 7 6 6 11 6 7 15 11 15 14 20 20 21 24 24 26 28 28 28 26 24 25 24 22 21 20 20 19 17 16 17 17 15 14 15 15 14 14 14 13
4 6 10 4 8 3 6 2 8 8 7 5 13 9 8 14 11 11 13 17 17 21 22 24 26 26 27 28 28 26 25 25 24 22 22 21 21 20 21 20 17 17 17 16 16 15 16 16 15
12 4 9 8 6 3 4 3 4 10 10 8 6 5 12 13 12 6 10 12 14 18 20 22 24 25 25 26 26 27 27 26 25 24 23 23 23 22 23 23 21 19 20 20 18 19 19 19 18
11 7 6 4 4 5 4 5 4 6 7 10 10 4 19 15 15 15 14 12 14 13 18 22 27 25 24 21 22 25 28 29 28 28 27 26 25 25 25 25 24 23 24 24 22 22 22 23 22
16 13 5 2 3 3 6 7 8 8 9 14 17 19 20 18 7 11 17 14 16 19 19 22 23 27 27 25 23 22 25 26 26 25 27 27 27 26 25 25 26 25 25 26 25 24 24 23 22
11 19 6 6 4 3 5 5 7 4 6 6 10 18 19 19 15 5 8 13 16 19 21 21 21 19 22 25 24 21 20 22 21 25 25 26 25 26 25 24 24 24 24 26 25 25 24 23 18
7 9 8 9 7 4 2 5 6 8 10 9 13 11 15 15 5 4 7 11 15 19 16 15 16 19 19 21 22 23 23 23 26 26 27 27 24 24 24 26 26 25 25 25 27 26 25 23 22
4 11 7 5 5 5 1 1 6 3 11 21 14 9 9 8 7 9 9 11 10 11 12 12 11 12 13 14 17 20 21 22 22 20 17 16 17 20 23 24 23 24 24 23 23 23 22 22 21
5 12 9 5 3 2 6 6 5 5 9 5 8 11 13 13 11 7 9 10 11 11 11 11 10 8 7 8 9 10 13 16 18 19 19 18 17 16 17 18 20 21 21 20 19 17 16 14 13
2 7 4 3 3 4 3 5 9 4 6 7 8 8 8 9 10 12 11 13 11 13 13 12 10 9 5 4 6 8 10 11 11 12 14 14 13 13 15 17 20 20 19 18 16 14 13 13 11
4 4 4 6 5 3 3 6 6 7 7 8 8 8 5 8 9 12 13 20 17 15 13 12 10 10 7 6 4 2 2 6 8 8 9 10 11 12 13 13 14 18 18 16 14 12 11 11 9
3 2 4 6 3 3 4 5 9 4 9 8 7 5 8 7 9 10 10 17 19 17 14 13 12 9 7 6 5 4 4 2 1 1 2 3 4 4 4 6 8 9 12 12 13 13 12 10 7
6 8 3 1 3 2 3 3 5 5 6 4 6 7 5 5 7 7 8 16 16 14 13 12 10 9 7 6 5 4 4 3 3 2 1 1 2 3 4 4 5 7 8 9 9 9 8 6 5
4 3 4 3 3 4 0 4 6 5 5 9 6 6 6 7 7 7 9 16 17 16 13 12 11 10 9 7 7 5 5 3 2 2 2 1 1 2 2 3 4 4 4 4 5 6 6 6 6
1 4 4 4 3 3 3 5 2 5 7 6 6 6 6 7 7 6 9 16 17 17 14 11 11 10 9 8 6 5 4 3 1 1 1 2 3 2 2 2 2 3 3 4 5 6 5 4 5

GFSSGP_925_spd_087.txt.gz
Wind_Speed
4 3 1 4 2 2 3 4 1 2 3 2 1 4 3 2 4 2 4 13 32 31 28 28 27 24 22 20 19 19 18 16 16 15 15 15 15 16 16 16 15 15 15 16 17 17 18 18 18
4 2 3 2 3 4 4 3 5 3 2 7 3 2 2 2 1 3 14 12 29 30 28 26 27 25 22 20 19 18 16 15 14 14 14 14 14 15 16 16 15 15 15 16 17 17 17 16 15
4 4 3 3 3 8 4 5 5 2 1 2 2 1 1 3 1 10 4 18 28 27 27 27 27 25 23 20 17 17 16 15 15 15 14 14 13 14 14 15 14 14 15 16 17 16 16 15 14
6 2 3 3 8 4 4 6 5 3 2 5 3 3 1 4 1 5 15 24 28 27 26 28 28 26 23 22 18 17 16 16 13 11 12 13 12 13 13 13 13 13 14 15 15 15 15 14 15
3 1 3 3 5 3 3 6 4 4 3 3 3 3 1 5 4 8 20 21 23 26 25 27 26 26 23 22 19 16 16 12 12 12 13 12 11 12 13 12 11 12 13 13 13 13 13 14 14
2 0 5 11 11 4 3 6 4 3 0 2 4 4 3 4 4 12 18 24 19 24 25 24 25 24 23 21 19 18 14 13 11 13 12 10 9 11 13 13 11 11 11 12 12 12 11 12 12
4 4 6 16 13 6 6 8 7 5 3 2 3 3 3 4 3 12 18 20 19 23 26 23 24 23 23 22 20 18 16 15 13 11 7 6 8 10 14 12 11 10 10 10 10 9 9 9 9
2 2 11 8 14 15 6 6 8 6 3 1 2 4 2 5 6 12 18 18 18 24 24 25 24 23 22 22 21 18 18 13 10 8 5 1 8 8 12 13 10 9 8 9 8 8 8 7 7
2 3 12 19 13 9 4 8 2 2 6 2 4 4 5 8 10 14 16 18 21 22 20 24 26 24 24 22 21 19 16 12 9 7 7 7 9 10 12 13 11 9 7 7 6 5 6 6 5
5 9 10 3 6 6 5 5 8 5 4 2 3 3 16 13 10 11 11 13 17 21 20 23 25 24 24 23 22 20 16 12 8 7 8 10 10 11 12 14 12 9 8 6 5 4 4 4 5
5 7 6 3 6 5 6 5 5 8 5 7 7 6 11 14 11 4 6 11 15 18 18 21 22 25 22 21 24 21 18 13 9 8 8 10 10 11 13 14 13 11 9 8 7 5 4 3 4
4 7 3 1 2 5 6 6 5 7 5 8 8 8 9 6 8 7 11 13 18 21 20 22 20 26 23 23 24 22 19 15 11 11 9 10 12 12 14 16 16 13 11 9 8 7 5 4 4
6 4 6 3 3 3 8 5 4 6 8 7 6 4 11 4 5 9 11 14 21 21 22 23 25 26 26 24 24 22 20 16 13 12 11 10 11 12 14 14 13 11 10 10 8 7 7 7 6
8 5 7 4 3 2 5 3 4 3 6 9 8 4 6 6 7 12 8 15 20 22 22 22 27 27 27 26 24 23 21 17 15 13 11 11 11 10 13 14 14 13 11 10 9 8 7 8 9
2 12 2 4 6 4 4 3 7 1 3 7 9 9 6 3 8 12 8 15 22 25 25 25 27 27 29 27 24 24 22 19 17 15 13 13 13 12 11 14 14 13 11 10 10 10 10 9 10
5 6 7 5 7 4 5 10 4 5 4 7 9 7 5 2 5 17 13 16 18 20 23 21 22 28 29 28 26 23 23 21 19 17 16 15 15 14 14 13 14 13 12 11 11 11 10 11 10
9 9 14 4 7 3 4 2 3 4 5 7 6 9 5 2 6 14 12 16 18 20 18 19 21 23 28 28 26 24 22 22 21 20 18 17 16 16 17 16 14 13 14 14 12 12 12 12 11
17 8 9 9 6 4 5 4 2 6 7 9 6 5 8 4 7 12 10 10 13 15 18 18 21 21 23 25 26 24 23 22 22 21 21 18 18 18 19 18 17 17 17 17 16 15 15 15 13
13 6 12 6 4 7 8 6 7 4 5 8 7 7 6 9 8 10 13 7 9 10 15 16 18 19 22 23 23 23 25 26 25 24 22 21 20 21 22 21 21 21 21 20 18 18 17 16 16
14 8 4 3 3 5 6 10 8 6 9 10 10 8 8 5 5 7 10 6 6 10 10 12 17 19 21 23 22 21 22 25 29 28 26 24 24 24 25 25 25 23 24 22 21 21 18 16 17
8 12 5 7 4 2 6 6 7 4 4 7 9 9 9 13 9 6 10 13 8 10 16 17 17 21 23 23 22 18 16 17 14 21 22 22 23 23 24 24 24 23 22 25 23 22 21 16 16
7 12 8 13 10 6 1 4 5 8 9 9 15 11 11 11 6 2 3 9 12 14 14 16 18 19 20 21 24 23 21 17 18 19 20 21 22 21 22 25 25 24 23 23 23 21 22 21 16
5 15 7 4 5 3 1 2 4 1 13 13 11 11 13 10 8 8 7 11 12 11 12 14 14 17 19 19 21 22 20 18 16 15 15 13 15 18 22 24 24 25 25 25 24 22 22 21 20
8 11 10 4 3 2 5 5 4 4 8 11 14 16 16 15 13 11 10 9 7 9 11 14 13 13 14 15 16 17 19 19 17 17 16 15 16 15 16 17 20 21 22 22 22 20 19 18 17
14 17 5 4 3 4 1 4 7 5 6 7 10 14 13 13 14 13 10 13 14 13 13 12 15 14 11 10 9 9 10 10 10 11 12 13 14 14 14 16 18 20 20 20 20 18 17 16 16
16 6 4 7 6 4 2 5 5 6 6 6 5 5 3 7 7 10 12 16 21 21 16 15 13 13 11 9 7 5 4 6 7 8 9 9 10 11 12 12 12 15 18 18 18 16 15 14 14
1 2 3 6 3 3 3 5 8 6 7 3 7 6 7 7 7 10 13 17 20 21 19 17 15 11 10 9 7 5 4 4 3 3 5 6 7 8 8 9 9 10 10 14 16 16 18 16 15
3 3 3 2 4 2 0 3 3 3 2 5 4 7 6 4 7 8 11 15 17 18 17 16 14 14 11 9 8 7 5 4 4 4 3 3 3 4 4 4 5 5 7 11 15 16 15 14 10
2 2 4 4 2 3 3 3 4 3 3 7 7 6 6 5 7 8 10 13 16 16 16 14 13 13 13 11 9 8 6 5 4 3 3 3 3 4 5 6 6 6 7 8 10 10 11 11 7
0 4 3 4 4 2 2 3 3 4 5 5 7 4 2 5 8 10 14 16 14 12 10 11 11 11 11 11 10 8 6 4 3 2 2 3 3 4 4 5 6 6 7 8 9 9 9 7 7

GFSSGP_925_spd_090.txt.gz
Wind_Speed
5 4 3 5 6 6 13 8 1 8 6 3 1 3 0 7 3 2 4 11 26 30 27 27 25 23 22 20 19 18 17 16 15 15 16 16 16 16 16 16 16 16 16 16 16 17 17 17 18
6 4 4 3 7 12 12 9 10 6 2 2 3 5 5 3 2 4 12 11 24 29 27 27 27 24 22 20 19 17 16 15 15 15 15 16 15 16 15 15 15 16 17 17 16 16 16 15 16
7 6 5 5 10 15 13 12 10 7 6 4 6 2 0 2 4 5 3 16 27 27 26 26 28 25 22 19 18 16 14 14 15 15 14 15 14 15 15 15 15 16 18 17 16 15 14 14 14
8 5 3 11 19 18 7 11 9 10 4 4 2 6 4 6 3 3 10 22 26 25 24 25 27 25 22 18 16 17 14 15 15 13 15 14 14 14 14 14 15 17 18 16 15 15 15 14 14
4 3 9 14 22 14 7 7 12 8 6 5 4 5 4 5 5 6 17 23 23 24 22 24 26 25 23 20 18 16 14 14 11 11 12 11 12 14 12 12 14 15 15 15 14 14 14 13 12
6 4 11 19 24 13 11 10 10 8 2 5 4 6 5 4 6 11 18 18 20 22 21 24 26 25 24 23 19 17 14 10 10 12 11 10 11 12 12 11 12 13 13 13 13 12 13 12 12
14 12 20 26 22 16 15 11 9 7 6 5 1 4 4 6 6 11 16 19 18 20 20 21 21 22 23 20 20 19 16 13 15 13 8 7 10 12 12 11 10 11 11 11 11 10 10 10 10
8 9 25 22 21 23 13 14 8 7 4 4 4 3 5 4 6 12 15 16 18 19 19 20 20 19 19 17 20 19 17 15 13 11 7 3 8 12 13 11 9 10 9 10 9 8 7 7 7
4 8 19 27 24 22 17 13 5 2 5 3 3 4 3 2 9 13 14 14 17 19 19 19 19 19 18 17 18 18 18 16 12 9 8 7 8 10 13 10 9 8 8 8 7 6 6 6 5
9 14 26 21 20 17 17 15 12 8 8 5 8 7 11 11 10 15 13 16 16 19 16 18 18 18 18 16 18 17 15 12 11 10 9 10 10 10 13 12 10 8 7 5 5 4 4 4 3
10 19 21 11 8 10 15 13 8 12 11 11 10 11 14 16 8 7 4 14 16 18 14 16 15 17 18 16 17 16 14 12 10 11 11 10 10 10 11 11 11 10 8 6 5 4 3 3 3
10 16 11 12 5 10 14 15 13 14 13 7 11 12 12 15 10 2 3 6 13 20 19 19 16 18 18 16 17 14 13 11 10 10 11 10 9 10 11 11 11 9 8 7 6 5 4 3 3
16 10 13 14 3 8 13 14 12 13 8 8 11 10 10 13 12 7 9 11 15 17 19 19 22 20 19 17 16 15 14 12 10 10 10 10 9 10 10 11 10 10 9 8 7 6 5 5 4
11 18 12 12 13 6 13 16 11 16 10 13 13 12 8 9 12 10 10 17 18 17 18 18 20 20 19 18 17 15 14 12 11 10 10 9 9 9 10 10 10 9 9 8 7 6 5 5 5
9 18 12 12 16 9 9 15 17 12 12 13 15 14 11 8 8 11 7 14 18 19 20 22 21 23 22 20 18 17 14 12 11 10 10 10 10 10 9 10 11 10 8 8 7 7 6 6 5
19 11 18 15 14 10 14 17 16 15 13 13 15 14 15 14 8 12 5 9 13 15 19 21 20 22 23 21 19 17 16 14 12 12 11 12 11 11 10 9 10 10 9 8 8 7 7 6 6
16 14 26 13 16 10 17 12 9 15 14 15 13 12 13 15 11 11 7 5 12 15 16 19 20 21 25 24 21 18 16 16 14 13 13 12 13 13 12 10 10 10 10 9 8 8 8 7 6
20 20 24 16 16 15 17 12 6 12 13 14 13 11 11 17 16 12 6 2 10 14 15 17 18 18 19 20 21 20 15 16 16 15 14 13 13 14 13 12 11 11 11 10 10 10 8 8 7
15 17 23 19 8 18 17 18 14 6 9 15 13 11 11 18 16 14 8 3 9 12 14 14 17 16 18 19 17 15 18 18 17 16 16 15 14 14 14 13 12 13 13 12 11 11 10 9 8
11 20 17 17 7 15 16 16 16 15 13 13 14 15 13 11 12 14 10 7 7 9 12 14 17 17 16 13 14 16 17 21 21 22 18 16 16 15 15 15 14 13 13 14 14 13 11 11 10
15 21 16 19 9 4 8 14 15 16 15 15 15 13 11 15 16 12 12 11 7 9 8 12 17 16 13 11 13 14 16 16 15 19 23 24 23 22 20 18 17 17 16 15 15 15 15 14 10
14 18 14 18 15 9 9 6 17 20 15 17 15 15 13 13 15 10 11 11 10 8 8 10 14 16 16 10 16 18 15 13 14 15 12 12 16 18 20 21 19 18 18 19 17 16 17 15 16
1 6 15 17 16 6 10 6 6 6 20 17 16 16 16 14 13 14 11 8 6 7 9 9 12 13 16 19 24 17 16 16 13 13 13 13 13 15 19 20 21 20 19 20 18 17 17 16 16
5 9 10 9 8 6 11 13 7 8 14 19 18 17 16 16 15 14 12 8 7 7 8 8 10 11 14 16 17 16 17 15 12 12 11 11 10 10 12 14 16 18 19 19 18 17 17 16 15
4 11 5 6 6 6 4 9 9 7 5 10 15 19 18 17 16 17 16 13 11 9 9 8 9 10 10 12 14 16 15 14 13 11 9 9 9 10 10 13 14 17 19 18 16 16 16 16 15
4 6 4 8 9 9 5 8 7 7 10 11 7 5 5 16 16 17 16 16 14 17 12 13 13 11 11 11 10 10 12 12 10 10 10 8 7 7 10 12 13 14 16 14 15 16 18 18 15
1 8 1 4 3 5 6 5 12 8 7 4 8 9 7 8 12 16 16 16 15 14 14 12 12 10 8 9 9 9 6 5 6 7 7 7 8 8 7 8 8 10 11 13 14 16 18 17 17
4 8 4 1 6 5 4 3 1 5 5 2 1 6 8 8 10 9 11 14 14 14 14 12 12 12 10 7 6 6 7 7 6 5 4 4 3 4 4 4 4 5 7 10 14 15 15 16 16
4 3 3 2 3 1 5 4 3 6 6 6 5 5 5 6 6 8 8 11 13 14 13 11 10 9 8 7 5 5 5 6 5 5 4 3 3 3 4 5 5 4 5 6 9 12 13 12 11
3 6 3 2 3 2 3 5 5 4 5 7 7 3 2 3 5 7 10 14 16 16 14 12 9 9 6 5 6 4 3 3 2 2 3 3 3 4 5 5 6 7 8 7 8 8 8 8 7

GFSSGP_925_spd_093.txt.gz
Wind_Speed
8 7 7 7 7 8 17 20 10 8 10 4 3 3 3 6 4 4 11 10 23 27 26 24 25 23 21 19 17 16 15 14 14 16 16 16 16 16 16 16 17 17 18 18 18 18 18 17 16
11 9 10 6 9 14 15 21 14 12 7 8 4 4 3 8 13 7 13 11 25 26 26 24 24 23 21 19 17 16 14 14 13 16 15 16 16 16 16 16 17 18 18 18 17 17 16 16 16
11 11 7 6 12 17 16 20 13 5 4 9 7 3 5 6 8 10 10 20 26 25 25 24 24 23 21 19 18 16 16 14 14 14 15 16 16 15 16 16 17 18 18 17 16 15 15 15 16
11 7 6 13 20 25 19 11 15 11 7 7 9 8 7 9 3 6 15 21 25 24 23 25 24 22 21 19 18 16 16 15 14 14 14 14 15 14 15 15 17 19 17 17 16 17 16 15 16
12 6 12 17 24 22 18 2 12 12 9 9 10 9 9 7 4 7 18 23 23 24 23 24 24 22 20 18 18 18 16 16 13 13 12 12 13 13 14 15 17 16 16 16 15 16 14 14 15
6 9 13 20 27 23 16 8 13 11 7 4 9 10 6 3 5 13 20 23 21 23 23 23 23 21 19 19 17 16 17 13 10 11 11 11 13 11 12 14 14 14 14 14 14 14 13 13 13
13 13 21 27 25 23 12 13 15 12 10 4 5 10 6 5 7 13 18 15 16 21 22 22 20 20 19 18 16 16 15 14 15 11 11 10 12 11 11 11 12 12 12 12 12 12 11 11 10
7 7 26 24 21 27 18 16 11 12 9 6 4 5 10 12 9 16 19 16 14 15 20 22 20 19 17 15 16 16 16 14 15 12 9 8 11 12 11 10 10 10 10 10 9 9 9 8 7
8 5 17 29 26 24 21 17 13 3 10 4 3 7 6 12 14 13 18 18 23 19 18 20 20 20 18 15 15 15 15 15 13 9 6 8 10 13 11 10 7 7 8 8 7 7 6 5 5
13 7 23 25 23 18 18 20 14 10 10 8 9 7 10 16 17 12 16 19 16 22 17 19 19 19 17 17 15 14 13 11 9 7 8 9 10 12 12 11 9 7 6 6 6 5 5 6 2
15 21 23 18 20 13 5 18 19 15 15 11 9 9 9 14 11 17 10 18 19 17 17 19 19 19 20 18 17 16 12 10 9 9 9 9 11 11 11 11 12 9 6 5 4 3 3 3 3
13 27 19 20 4 8 13 12 17 14 13 8 9 10 9 13 13 12 11 13 19 17 16 17 14 19 19 17 16 17 13 10 8 9 10 10 10 12 12 12 11 9 8 8 6 4 4 4 4
23 11 19 15 2 9 15 20 22 16 14 6 7 10 11 10 14 15 11 10 14 14 19 18 18 15 18 16 16 15 14 11 9 9 10 9 9 11 11 11 11 9 9 8 7 5 5 5 5
14 16 10 15 11 14 20 18 12 13 15 8 9 11 9 11 13 15 19 13 13 15 16 16 18 19 17 17 16 15 14 13 10 9 10 9 9 9 10 10 10 9 8 7 7 6 6 6 6
11 10 16 12 17 9 8 14 21 18 11 13 14 13 11 10 12 14 18 22 19 18 17 20 18 20 18 19 18 17 15 13 12 10 10 10 9 9 9 9 9 9 8 8 7 7 7 7 6
16 14 16 16 16 17 14 20 20 16 15 15 16 14 14 13 11 9 15 19 20 17 18 18 20 18 22 18 17 16 16 15 13 12 11 11 10 10 9 9 9 9 8 8 8 8 7 7 7
11 9 21 20 14 16 17 15 22 19 19 16 15 15 15 16 15 13 16 20 19 18 18 19 20 20 19 21 18 17 17 16 13 13 12 11 11 11 10 9 9 10 9 9 8 8 8 7 7
14 21 23 24 19 19 19 19 12 17 19 17 16 16 16 16 17 17 15 20 19 17 16 18 20 18 19 19 19 19 17 16 14 12 12 11 11 11 12 10 10 10 10 10 10 9 8 8 7
6 22 18 23 17 20 19 21 14 9 14 17 17 16 17 16 17 21 14 17 20 17 16 17 19 17 17 19 17 18 19 18 14 13 12 10 11 12 12 12 11 12 12 12 11 10 10 10 8
9 14 20 21 15 18 17 19 17 14 14 16 15 16 14 16 15 20 16 14 20 18 17 16 17 17 18 18 18 14 18 15 13 14 12 13 12 14 14 15 13 12 12 13 13 13 11 11 10
9 15 19 23 12 12 11 16 17 16 17 14 14 14 16 16 14 16 15 12 15 16 15 17 16 17 18 16 17 12 15 13 13 16 13 16 19 18 17 15 15 14 15 15 16 16 16 13 12
11 15 14 17 15 10 14 6 17 19 20 19 17 17 15 14 13 14 16 13 11 11 11 14 17 13 15 17 14 18 16 12 12 9 11 9 10 16 21 19 20 20 19 19 17 17 18 17 14
3 15 7 14 14 11 14 7 14 23 21 20 19 18 16 15 14 18 16 16 13 11 10 12 16 17 16 16 14 11 10 9 9 6 8 9 8 14 13 18 19 22 21 19 16 17 18 18 17
5 6 11 9 8 7 13 15 11 11 16 18 16 18 16 16 15 16 18 14 12 11 12 9 13 17 13 12 16 11 15 9 6 6 13 17 21 10 13 14 17 20 19 20 20 19 18 19 18
3 5 5 4 4 6 15 12 3 8 3 11 17 17 17 15 16 15 15 14 14 15 13 11 10 11 15 18 17 15 17 13 15 15 21 18 15 18 15 14 16 17 19 19 17 18 19 21 20
3 1 2 6 8 11 3 7 7 9 6 7 6 5 13 16 15 16 16 19 17 14 17 14 13 12 11 10 10 10 12 12 16 16 14 12 9 9 10 14 14 13 13 17 18 20 20 19 18
4 5 7 6 1 8 8 7 7 5 5 5 7 7 8 8 10 13 13 17 16 14 13 15 15 10 10 10 8 5 7 9 9 7 9 12 11 12 13 12 11 11 12 11 13 16 17 18 19
3 6 3 3 4 5 5 11 6 9 8 7 6 11 11 8 9 9 12 16 10 13 12 11 17 11 8 8 8 7 4 5 5 3 4 5 5 6 7 6 7 8 9 11 11 14 15 16 16
4 3 7 4 2 4 6 5 9 9 7 5 2 2 5 6 8 8 7 12 12 11 11 11 12 18 13 11 8 7 7 5 4 4 3 3 3 3 3 5 4 4 4 5 8 10 13 13 12
3 6 8 3 3 2 3 5 6 10 7 7 7 3 2 3 5 6 9 11 12 12 13 14 14 14 13 12 10 8 7 7 5 3 3 2 1 4 4 5 4 6 7 4 5 6 9 11 11

GFSSGP_925_spd_096.txt.gz
Wind_Speed
11 11 10 7 3 5 10 9 8 13 8 3 8 7 2 11 1 9 29 24 37 32 29 27 25 23 21 20 19 18 17 17 18 19 18 18 17 18 18 19 20 20 20 20 20 20 19 19 19
11 15 12 3 4 9 10 14 18 6 6 11 7 4 1 10 6 2 9 35 31 32 30 27 25 24 21 20 18 19 17 18 18 19 19 18 17 18 18 19 19 20 20 20 19 19 19 19 21
14 17 4 4 7 12 11 15 18 5 9 6 1 3 3 7 12 6 18 34 33 29 28 27 25 23 21 20 19 18 18 18 19 18 20 18 17 18 18 19 20 20 19 18 18 18 18 19 21
8 6 4 8 14 19 18 12 7 7 4 4 7 5 6 15 4 11 23 33 33 29 28 28 26 23 21 20 20 20 19 18 19 18 18 17 17 18 18 19 21 20 19 19 18 18 18 20 21
17 4 5 11 21 19 19 13 11 9 7 4 7 7 6 4 7 15 24 31 32 27 27 26 25 23 21 20 19 19 19 18 18 18 17 16 17 17 18 21 20 18 18 19 17 17 17 17 18
5 4 8 13 20 19 19 8 10 10 9 7 6 6 4 4 4 19 21 28 34 26 28 27 23 21 20 19 19 18 18 15 15 16 17 15 15 16 18 19 18 17 16 17 16 15 16 16 15
4 7 9 19 18 17 20 10 7 8 7 2 7 5 5 6 7 20 20 23 35 30 27 26 23 21 19 18 18 18 15 13 11 13 15 17 14 15 16 16 15 15 16 15 15 14 14 14 13
3 4 17 16 18 18 14 6 8 8 4 4 4 4 7 9 14 9 14 23 31 31 29 23 22 21 20 19 17 17 15 14 11 12 13 14 15 13 14 14 13 13 13 13 12 12 11 11 11
9 3 11 17 18 17 14 13 8 7 9 5 4 12 14 20 21 16 14 16 25 27 28 26 23 20 20 19 18 17 18 17 14 9 8 13 13 12 12 10 10 11 10 10 9 8 8 8 8
10 6 10 12 17 12 5 15 11 6 12 7 7 8 24 18 18 17 15 15 24 23 26 26 24 23 22 19 20 17 18 17 10 6 9 15 10 12 12 10 8 8 8 8 7 6 6 6 5
10 12 13 14 15 12 3 12 13 11 11 11 11 8 11 17 13 17 18 17 19 25 22 25 23 23 23 21 20 17 17 12 13 10 12 11 15 16 16 13 11 8 5 4 5 5 7 4 1
10 21 15 17 9 5 4 9 18 4 8 14 16 11 8 12 9 13 16 20 21 24 22 21 23 24 22 21 20 18 15 16 15 13 9 15 12 14 12 13 13 9 8 5 4 4 7 3 3
21 13 19 17 1 3 11 13 14 9 4 6 19 14 10 11 9 16 18 17 21 21 23 20 22 24 21 20 19 19 16 15 12 13 13 11 11 13 16 15 12 11 12 10 7 6 7 3 4
6 13 11 10 5 4 7 9 9 11 7 4 13 10 11 10 14 13 14 18 18 20 20 21 16 22 23 23 18 19 16 14 14 13 13 12 12 13 15 14 12 10 15 9 8 7 7 5 5
7 8 5 5 11 2 5 10 8 16 17 15 9 9 8 11 18 18 20 21 24 22 23 22 18 19 22 22 20 18 17 13 13 13 13 13 11 12 14 12 12 11 10 9 9 7 7 6 5
3 5 6 10 15 12 7 7 14 20 1 4 6 8 8 9 14 17 20 21 21 22 23 23 23 22 16 21 20 18 19 15 14 13 14 14 12 12 13 13 12 13 11 12 9 9 7 7 7
2 3 8 7 9 10 12 6 14 17 15 10 8 9 10 8 9 13 13 20 24 25 23 21 25 21 23 18 18 20 17 19 17 16 16 15 14 13 13 12 12 13 13 11 11 10 9 8 8
5 4 7 12 11 8 8 8 8 10 8 9 9 9 8 12 11 23 17 15 23 25 25 25 23 24 19 24 19 18 19 20 20 20 19 16 15 15 14 12 11 13 14 13 12 11 10 10 7
2 14 13 12 10 11 10 8 14 9 12 10 9 9 8 9 8 23 23 19 18 22 26 26 26 22 22 19 22 20 23 19 21 14 16 18 15 17 15 15 13 14 14 13 13 12 12 11 11
6 3 17 6 13 15 14 11 14 9 5 7 7 8 9 7 9 9 24 21 20 20 24 25 26 23 23 24 23 22 25 24 23 16 17 18 18 14 15 15 14 14 15 14 14 15 14 14 12
6 4 7 9 5 4 8 12 13 11 8 7 8 9 8 10 7 7 17 22 21 20 21 25 24 26 24 23 21 16 13 17 20 20 20 20 18 18 18 17 18 16 14 16 17 17 18 17 15
2 3 12 16 13 3 14 5 5 11 12 10 9 8 6 7 7 8 14 19 18 21 18 21 21 26 23 19 18 16 15 15 14 14 13 11 10 11 18 19 17 16 16 17 18 20 21 20 17
2 9 8 3 6 6 12 2 5 20 13 14 11 9 9 7 6 8 11 23 17 17 17 21 20 21 22 18 15 12 8 4 4 6 8 6 6 8 9 9 11 14 13 15 15 19 21 20 21
4 3 4 3 2 3 9 7 5 10 22 11 12 12 10 9 9 7 19 26 20 16 14 9 17 17 21 20 16 14 11 5 8 7 9 7 4 4 6 10 15 13 12 14 21 25 30 25 20
5 2 3 3 2 2 11 5 6 2 12 14 15 13 13 10 9 8 13 16 22 18 16 12 12 13 15 18 20 19 14 12 13 10 14 7 9 9 6 10 13 16 14 15 16 19 21 23 23
1 3 1 3 4 5 7 3 5 4 7 4 5 6 11 9 9 9 10 19 24 20 19 19 17 13 14 15 17 15 17 22 26 21 25 17 19 17 10 13 23 16 12 12 14 20 22 21 22
5 3 5 4 4 5 4 1 5 8 7 3 4 5 4 3 8 10 10 20 25 24 20 18 19 18 15 13 13 8 7 12 16 19 18 13 12 9 11 12 13 12 13 13 15 17 21 21 21
4 4 2 1 3 3 3 6 4 6 6 6 4 5 4 2 3 2 5 16 24 25 21 17 19 20 22 19 14 15 12 8 7 9 8 8 7 7 7 6 7 8 10 11 13 13 16 18 19
3 1 5 4 1 1 4 1 4 7 7 6 5 4 5 6 6 4 2 7 24 24 21 19 20 21 20 22 22 14 10 10 7 6 6 5 4 3 2 4 5 5 5 6 4 8 12 13 13
4 6 3 2 5 3 3 1 8 7 7 6 5 3 4 5 5 3 7 16 21 20 18 18 18 18 19 17 17 17 12 8 7 8 6 4 2 2 4 4 4 6 5 4 4 6 8 10 12

GFSSGP_925_spd_099.txt.gz
Wind_Speed
14 12 11 4 3 3 4 7 3 8 3 5 3 11 15 8 2 3 23 29 35 38 33 30 28 26 24 22 20 19 20 22 23 22 21 20 21 21 22 21 21 22 21 21 21 21 21 23 27
13 8 4 2 4 4 6 6 14 10 4 4 9 6 8 4 2 13 16 33 40 39 35 31 28 27 25 22 20 20 22 23 24 23 22 21 21 21 21 21 22 22 21 21 21 21 23 27 25
9 2 2 4 4 9 6 10 17 3 4 3 4 7 5 2 3 4 32 35 40 35 34 32 29 27 25 22 21 21 21 23 25 23 23 23 22 21 21 21 21 21 21 21 20 21 23 24 24
5 6 4 3 10 15 4 6 10 7 2 2 4 14 5 3 1 16 40 35 39 34 33 31 28 26 24 22 23 22 22 22 24 23 22 23 22 22 21 21 21 22 22 21 19 21 23 23 23
10 4 6 6 13 7 7 19 3 6 7 5 3 6 5 2 8 35 40 36 36 32 32 29 28 25 24 24 23 23 22 21 22 21 21 21 22 22 23 21 21 23 21 20 19 21 22 21 20
4 4 7 15 19 16 7 15 4 2 5 4 6 6 2 2 8 35 38 36 35 33 33 30 28 26 24 23 23 23 22 20 20 19 20 21 21 22 22 20 20 21 20 18 18 19 19 18 17
5 5 6 13 16 8 13 5 8 8 5 4 5 5 3 2 14 25 33 38 37 34 33 30 27 24 23 23 23 22 20 18 18 19 18 19 20 20 20 20 19 19 18 17 17 17 17 15 15
4 4 15 11 13 8 13 4 10 7 3 6 4 6 5 4 20 19 33 39 40 35 33 31 28 25 24 23 22 20 17 15 16 18 19 17 18 19 19 18 17 17 17 16 15 15 14 14 14
2 5 8 21 16 10 4 8 1 3 8 5 3 5 12 19 24 31 32 30 31 35 34 30 28 26 25 24 23 21 18 16 18 18 18 18 17 17 16 15 16 15 14 14 13 13 12 11 11
7 4 17 9 4 1 4 7 11 6 7 5 7 11 18 17 24 20 24 25 26 28 34 31 29 27 27 25 23 20 21 19 16 15 17 18 16 16 15 13 12 12 12 11 11 10 10 11 10
4 8 3 16 14 3 5 3 4 14 4 10 15 13 13 13 15 16 20 23 28 30 32 31 29 29 28 27 24 23 21 18 12 13 19 18 18 16 15 14 11 10 8 8 9 10 10 7 5
6 7 9 7 6 5 5 5 3 9 4 12 13 16 11 13 9 16 18 22 31 31 33 32 29 30 26 27 23 21 20 18 15 14 18 17 20 17 17 14 13 10 8 8 9 10 8 5 3
8 14 8 14 8 6 8 4 3 7 8 7 15 14 12 10 12 16 23 21 31 32 33 31 31 31 26 27 22 20 19 19 17 14 12 20 18 19 18 15 13 13 11 10 9 8 8 6 5
4 5 7 7 7 4 1 4 4 2 7 5 8 12 11 10 13 13 19 24 29 33 33 28 31 30 29 27 21 19 19 15 21 17 16 14 13 16 18 16 15 13 13 11 10 7 9 8 6
2 5 3 6 13 3 3 1 7 6 11 11 9 8 10 11 15 18 22 23 26 30 29 28 27 27 26 27 20 21 20 22 20 19 19 16 15 15 18 20 16 14 14 11 10 11 10 10 9
2 3 3 2 12 10 5 6 7 3 5 11 12 9 10 10 18 21 23 26 27 26 30 27 29 27 27 26 23 21 18 19 21 18 17 20 17 16 18 15 17 14 12 13 12 12 10 11 10
2 3 4 5 10 7 7 3 13 10 5 15 11 4 10 9 8 20 22 24 25 29 29 28 27 27 29 29 26 23 20 20 20 16 16 17 19 18 18 18 14 15 15 14 14 12 12 11 10
6 2 4 6 10 6 9 3 3 10 5 12 15 7 8 11 9 20 23 22 23 25 30 31 30 26 24 24 26 26 23 23 20 18 19 18 20 19 18 17 17 15 15 15 14 13 13 12 10
4 2 8 3 7 9 7 8 10 15 18 16 15 12 7 8 12 25 25 23 25 24 26 28 29 28 26 24 25 26 28 26 21 22 20 23 22 20 18 17 16 16 17 17 16 14 13 13 12
3 8 9 7 5 5 8 9 19 9 5 23 20 17 8 6 7 13 24 27 29 29 28 26 26 30 28 29 28 26 27 24 23 20 17 21 21 21 19 18 18 16 19 17 14 16 16 15 13
3 3 10 8 2 4 9 6 3 5 6 3 5 6 7 8 8 13 15 26 28 27 30 28 29 27 30 28 26 25 25 23 21 20 15 19 19 17 21 20 16 16 19 19 18 17 19 18 16
4 7 7 7 2 5 2 3 8 8 10 6 7 7 6 6 7 11 16 21 28 28 24 26 27 27 29 28 25 24 23 22 26 23 18 12 15 17 16 18 18 20 18 16 17 16 19 20 18
2 3 1 5 2 5 3 1 5 7 15 11 12 9 8 7 7 10 12 23 28 26 25 24 26 26 26 24 24 22 15 13 12 12 12 12 8 8 7 10 17 20 18 13 14 15 16 19 16
1 1 11 6 3 2 6 4 4 12 24 5 4 9 9 8 7 7 19 26 22 21 19 20 20 26 25 21 20 20 17 17 18 14 11 10 7 5 6 6 7 11 11 9 14 16 17 19 15
5 2 3 3 2 3 12 8 7 7 11 14 15 11 10 8 8 7 9 13 22 20 19 17 17 20 24 24 20 20 19 16 17 16 14 9 6 10 9 8 11 5 7 9 11 17 22 21 20
4 3 2 4 3 2 6 5 5 7 3 13 9 9 11 10 8 9 13 19 25 24 23 22 18 19 21 23 21 18 19 19 18 15 14 14 15 12 12 16 22 20 17 20 20 21 28 26 23
4 1 1 1 1 4 3 4 6 3 5 7 8 7 8 9 9 10 13 21 25 27 27 24 23 20 21 21 21 21 21 20 20 18 15 16 16 19 19 15 14 11 14 16 16 19 21 19 19
1 1 2 2 3 2 2 1 3 3 6 6 6 7 7 5 6 7 14 20 27 30 27 24 22 21 21 22 23 22 19 18 16 13 12 11 13 13 13 14 15 14 14 13 14 15 16 15 15
1 3 2 2 3 3 3 4 5 3 5 4 4 2 4 4 4 7 6 14 25 25 23 22 21 21 20 20 21 21 19 16 14 12 12 10 8 10 9 9 9 9 9 9 9 10 10 11 12
3 3 2 3 3 0 3 3 4 5 7 6 5 5 5 5 4 5 8 17 22 21 20 20 20 20 20 20 19 18 17 18 18 13 9 8 10 9 7 7 8 8 8 8 8 9 9 9 12

GFSSGP_925_spd_102.txt.gz
Wind_Speed
11 11 7 1 3 3 4 7 3 4 2 4 5 5 10 4 6 4 16 23 36 35 32 31 31 28 24 21 21 21 22 22 21 21 24 25 25 24 22 22 22 22 22 22 22 22 22 23 21
10 6 2 1 4 5 6 5 10 8 3 6 9 1 6 3 4 12 15 33 41 37 34 32 30 28 25 22 22 23 23 22 22 21 24 23 23 23 22 22 22 22 21 22 22 24 26 24 21
3 3 2 4 4 11 8 8 16 5 6 4 4 4 4 7 10 19 21 37 40 38 35 31 31 27 25 22 25 26 24 24 22 23 23 24 22 22 22 22 22 22 21 22 24 26 25 22 19
4 2 4 4 10 14 6 9 6 4 6 6 5 5 3 3 5 18 38 39 40 38 35 32 31 28 26 24 25 26 27 23 22 22 24 24 23 22 22 22 23 23 23 22 24 24 23 20 18
7 2 7 8 13 5 7 3 6 4 4 6 7 5 4 3 13 37 40 43 42 39 35 31 30 27 26 26 26 25 26 24 22 21 22 22 23 23 23 25 25 23 22 23 23 24 22 20 20
3 2 6 14 24 19 5 13 2 4 4 3 5 5 4 7 36 34 33 37 44 41 36 32 30 27 27 27 26 25 26 24 21 22 22 22 23 23 23 25 24 21 21 23 23 21 20 18 17
4 5 9 7 24 19 8 5 2 5 5 4 8 6 5 7 32 36 35 36 40 40 35 34 30 28 27 27 26 25 25 24 20 21 23 23 23 23 22 24 23 21 20 22 21 20 18 17 17
4 6 9 11 10 17 9 5 16 14 4 4 7 7 7 7 33 35 29 38 38 36 36 35 32 29 27 27 26 24 23 23 22 20 21 22 22 21 21 21 20 20 20 20 19 17 17 16 17
3 6 19 25 16 12 7 12 8 4 7 2 1 6 10 29 39 30 26 26 34 34 36 34 32 30 29 28 25 23 20 20 22 20 20 21 21 20 19 19 19 18 17 17 17 16 15 15 15
8 10 16 15 2 4 6 9 7 6 5 2 5 9 23 29 37 32 28 30 27 32 36 35 33 31 30 29 26 26 20 20 22 21 19 20 20 19 19 17 17 16 16 14 14 13 13 13 13
4 11 10 11 17 10 6 7 7 7 4 4 13 20 14 23 30 28 27 35 32 32 34 37 34 33 32 31 29 26 22 23 21 21 20 20 20 19 18 17 16 15 14 14 13 13 13 12 11
10 4 13 7 5 6 1 7 6 1 4 4 16 21 13 17 19 26 26 32 32 32 34 37 35 35 32 30 29 25 25 20 20 20 23 23 21 19 17 15 15 14 13 12 13 13 11 9 8
5 5 6 6 9 2 5 4 3 5 9 7 2 13 16 16 20 25 26 28 29 31 34 38 36 37 34 32 29 26 25 21 19 21 23 21 22 20 18 14 14 12 11 11 12 11 9 7 7
3 2 7 5 11 2 3 1 2 5 7 11 7 7 10 14 15 17 24 29 31 30 34 40 38 35 33 32 30 27 25 23 21 21 20 19 20 20 21 18 14 12 11 11 11 9 9 8 8
4 1 5 7 14 6 3 7 5 4 7 8 9 7 4 4 17 21 23 29 34 35 36 41 39 36 34 32 30 27 26 23 22 21 19 20 19 18 20 19 17 14 13 11 12 11 10 12 10
5 2 4 4 15 9 5 4 3 2 6 7 9 8 9 4 9 18 25 27 31 32 37 39 37 37 35 35 31 26 25 22 27 24 21 20 18 17 18 20 18 16 15 15 14 13 12 11 11
3 5 4 5 13 9 9 2 5 5 8 3 8 8 8 9 5 11 23 30 33 35 36 34 34 34 34 32 30 26 25 24 30 25 23 21 19 19 17 20 18 17 17 18 15 16 13 13 12
5 2 4 4 11 10 18 8 5 8 8 4 6 8 10 9 8 15 19 26 29 30 32 33 34 36 34 32 30 29 26 24 28 25 22 19 21 18 16 15 15 17 16 15 15 15 13 11 11
6 3 2 2 5 8 13 10 6 3 5 4 9 9 11 11 10 21 20 25 27 30 31 31 32 31 31 29 28 26 25 21 22 25 20 17 16 21 21 21 19 18 17 16 16 15 13 13 11
4 7 2 6 3 3 9 5 9 11 4 3 6 12 15 12 7 8 20 22 25 27 29 31 31 29 32 33 34 26 27 23 22 20 18 25 24 22 21 19 19 19 16 16 17 17 16 14 13
3 5 6 3 6 5 5 3 3 5 7 10 10 15 19 12 10 6 10 23 25 26 27 28 30 31 31 31 28 24 24 23 23 24 24 20 25 24 23 21 19 18 20 19 20 19 16 16 13
2 5 3 16 2 2 4 3 4 2 13 12 14 20 21 15 6 7 11 16 26 29 28 27 28 29 32 31 30 27 28 21 27 25 21 20 21 19 18 23 22 20 20 20 20 18 17 19 16
1 1 8 8 4 4 1 4 3 18 15 18 20 21 16 9 9 10 12 23 31 30 29 29 27 27 29 30 28 25 25 22 20 27 24 17 13 12 12 11 10 19 20 19 17 14 16 15 12
2 3 12 8 3 3 3 2 2 11 23 23 11 9 11 8 7 8 14 20 24 26 27 28 26 26 25 26 24 22 20 16 15 16 17 16 12 14 15 15 13 7 8 9 9 11 13 15 15
3 2 4 4 4 3 8 4 7 6 13 19 14 8 8 7 6 7 8 11 17 23 24 24 24 24 22 21 21 22 21 20 17 19 19 19 17 17 16 18 18 17 20 16 13 14 15 15 14
3 2 2 3 4 2 7 4 5 4 6 9 12 9 8 9 8 8 9 16 22 24 21 23 23 22 22 22 22 23 23 20 21 19 20 20 21 18 18 16 15 13 15 15 23 29 25 21 21
2 2 2 2 3 4 3 5 8 5 5 5 11 8 9 9 7 9 9 20 25 24 24 24 24 23 23 26 26 25 23 22 22 20 19 17 16 15 14 14 12 11 12 13 14 20 21 20 20
3 2 1 3 4 3 3 3 2 2 2 3 5 8 8 8 7 7 9 19 26 27 23 20 21 23 25 25 25 24 23 21 21 20 17 16 15 13 12 12 12 12 14 14 16 18 18 17 19
2 2 1 2 3 4 4 4 4 8 3 4 3 1 3 4 4 8 8 14 22 25 22 20 19 21 23 23 23 22 22 20 19 19 18 16 14 13 12 12 12 11 12 12 12 11 12 14 15
3 3 2 3 2 2 3 2 3 6 4 6 5 5 5 4 3 4 9 17 17 20 19 19 19 19 19 19 18 17 16 16 16 15 15 14 13 11 10 8 8 8 9 9 10 10 11 11 13

GFSSGP_925_spd_105.txt.gz
Wind_Speed
10 10 5 1 1 1 5 7 2 3 5 2 4 4 9 5 7 5 14 20 35 36 34 31 28 24 23 21 20 22 24 23 23 25 25 27 26 24 22 21 21 22 22 22 22 21 20 19 17
5 5 2 2 4 4 7 6 9 9 5 10 4 1 3 4 3 10 16 30 39 37 35 33 29 25 23 21 21 22 23 25 24 25 26 25 23 22 22 21 22 22 22 22 22 21 20 18 18
6 3 2 4 5 9 11 6 19 4 5 5 6 5 5 5 6 18 16 38 41 36 35 33 30 24 23 23 24 23 23 24 25 25 24 22 22 21 22 22 22 22 23 24 23 21 18 17 17
4 1 4 7 16 15 7 8 6 4 4 5 2 4 0 1 16 16 35 37 39 37 36 34 30 26 22 25 24 24 23 22 26 25 23 22 21 21 21 22 22 24 27 25 22 20 18 17 17
5 2 9 9 21 18 12 4 9 12 4 3 7 5 3 1 8 32 39 37 38 38 36 33 29 26 25 26 27 26 23 22 23 25 23 22 21 21 21 22 24 26 26 23 21 19 17 17 16
3 2 8 12 14 25 5 10 3 7 6 5 3 7 5 7 29 32 36 41 40 38 35 33 29 28 28 26 27 26 24 24 24 24 23 22 22 22 22 24 22 23 23 22 21 19 17 17 14
3 3 11 20 15 21 7 5 8 5 7 6 6 7 2 12 25 35 34 37 40 35 35 33 31 29 29 27 28 27 23 24 26 25 25 24 23 25 22 23 22 21 21 21 20 18 16 14 14
3 3 7 16 11 24 11 10 9 8 7 4 7 6 7 5 29 32 34 31 36 35 34 34 31 30 30 29 28 28 24 23 25 26 26 24 24 25 25 23 21 21 21 21 18 16 15 13 13
2 8 11 19 21 6 9 13 12 8 7 3 6 5 9 33 34 31 35 29 28 29 34 33 32 31 31 29 28 27 25 23 22 23 25 25 24 23 23 22 21 20 20 19 17 15 15 13 11
8 7 17 6 17 9 15 12 19 5 6 3 4 8 31 33 35 32 34 26 25 27 29 33 33 32 32 30 29 28 26 24 23 23 23 23 22 22 21 19 18 18 17 16 15 14 14 14 10
6 17 10 13 11 9 4 17 7 7 15 5 8 17 22 24 28 26 28 45 23 25 27 33 33 32 33 31 30 29 27 26 24 23 22 22 22 21 20 19 18 16 15 14 13 12 11 11 9
9 16 17 12 9 12 11 11 8 7 2 5 8 22 21 18 21 27 29 37 49 34 32 32 33 33 33 32 31 28 26 28 27 25 23 23 22 20 19 18 17 15 14 12 12 11 11 9 8
15 14 13 16 14 2 9 18 12 5 3 5 5 18 24 22 23 29 31 38 42 38 32 37 36 35 34 32 31 27 27 27 26 25 23 23 22 20 18 16 15 14 13 12 11 11 10 8 7
5 12 14 18 8 8 15 14 4 2 6 10 2 11 18 21 22 23 25 31 37 41 36 35 40 38 36 35 33 29 28 25 24 24 25 23 21 19 18 16 15 13 12 11 10 10 8 6 6
6 8 7 16 10 6 2 15 6 1 10 11 10 8 3 8 26 28 31 35 35 35 37 37 36 42 38 36 33 31 29 25 24 24 24 22 21 19 19 17 14 13 12 11 11 10 9 9 9
7 6 7 12 14 6 13 5 13 6 8 8 7 7 5 4 9 25 28 32 33 35 37 37 38 42 39 37 34 31 30 27 24 25 24 22 20 19 18 19 16 13 13 12 11 11 11 10 11
9 5 6 7 17 9 9 2 15 6 3 5 5 7 7 6 4 8 21 29 34 35 42 43 41 43 42 38 35 32 30 29 26 24 23 22 20 18 17 18 16 16 16 16 15 14 13 11 11
3 6 4 5 10 9 13 10 5 13 2 5 5 6 7 6 3 4 16 24 29 34 40 41 37 41 39 37 35 31 31 28 26 27 25 23 21 20 18 18 19 18 19 18 18 16 14 12 11
5 4 5 2 7 9 12 6 9 7 13 8 7 6 7 7 6 9 10 26 28 30 36 37 36 35 34 36 32 29 31 28 25 28 25 23 21 19 17 16 15 18 19 19 18 16 14 12 10
1 6 4 2 5 2 10 6 11 9 3 9 8 7 5 7 9 8 5 18 30 30 35 36 34 35 33 30 31 23 28 23 23 24 24 21 23 20 19 19 18 18 18 17 18 18 16 11 11
1 5 2 4 6 6 6 4 5 5 4 3 7 7 4 5 8 7 5 15 26 28 31 32 30 28 31 32 30 24 24 22 19 25 28 26 23 21 20 19 17 17 17 18 18 19 18 10 9
2 5 3 8 5 3 3 2 0 5 5 6 6 7 5 7 7 6 6 10 17 26 28 27 28 27 28 28 29 29 27 18 21 29 27 24 23 24 23 23 21 19 18 19 18 18 20 13 13
0 4 4 6 3 2 2 4 1 9 9 12 11 5 6 10 12 11 8 17 22 21 22 26 28 29 27 27 27 23 20 25 26 28 22 19 20 20 17 18 18 21 18 14 16 18 25 15 15
3 4 9 6 3 2 4 3 5 11 18 12 13 11 11 11 19 14 14 19 19 19 21 21 20 20 22 20 20 19 18 19 19 18 23 25 20 20 17 16 20 17 18 25 27 20 13 15 11
3 9 4 2 2 2 2 2 6 9 5 11 16 17 17 17 14 8 8 10 15 19 19 19 19 18 17 17 17 18 16 16 16 17 16 17 16 15 14 14 13 14 13 13 14 13 12 11 12
3 3 4 4 3 3 2 3 4 1 6 7 10 14 15 15 12 9 7 14 20 21 17 17 19 19 17 16 17 17 17 17 17 13 12 14 15 12 11 13 13 12 13 14 13 12 12 13 21
2 2 3 5 3 4 1 6 7 5 6 2 8 8 9 5 6 8 7 11 17 20 21 21 20 18 17 17 17 18 18 22 18 17 16 17 15 13 11 13 13 13 15 16 18 19 16 16 18
3 0 2 3 3 4 2 4 3 8 10 5 6 7 7 6 5 5 4 10 18 23 23 19 19 18 17 18 19 21 22 19 19 18 18 17 14 13 12 13 13 12 12 12 13 14 14 16 17
2 2 2 2 3 4 3 2 3 6 6 5 6 5 3 5 6 7 6 9 16 21 20 18 16 15 15 16 19 20 19 17 15 14 14 13 12 12 12 12 11 10 10 10 10 11 12 12 13
1 2 1 3 2 3 3 3 5 5 5 4 5 6 5 5 5 5 8 16 15 18 20 20 17 15 14 16 16 15 16 15 15 14 12 11 11 9 8 8 8 7 7 7 8 9 10 12 13

GFSSGP_925_spd_108.txt.gz
Wind_Speed
7 6 6 1 1 3 6 7 3 4 7 7 7 5 7 4 6 5 9 18 37 39 35 32 28 24 21 19 21 21 23 25 25 26 26 27 24 23 22 21 22 22 22 22 21 20 18 18 19
4 2 3 1 5 8 10 6 8 9 5 10 8 3 2 7 3 6 13 27 39 38 36 33 30 27 24 22 23 22 23 26 26 28 29 27 25 22 22 22 23 24 23 22 20 18 18 19 17
3 4 3 4 5 18 10 7 20 6 6 2 9 3 1 4 1 15 11 34 40 39 38 34 30 27 24 24 26 24 23 26 27 29 29 26 24 22 22 23 24 25 25 22 19 19 18 18 16
2 3 2 7 14 17 10 6 4 4 3 6 3 19 2 4 4 10 34 37 38 37 38 34 30 26 26 26 27 26 25 26 27 27 25 24 22 22 22 23 26 28 26 22 19 19 18 17 15
5 2 4 9 17 14 16 3 4 11 5 4 8 8 17 3 3 18 32 36 36 38 37 33 29 26 26 26 25 27 26 24 26 24 23 22 22 22 22 24 29 27 25 20 19 18 18 16 16
2 2 6 14 22 12 11 5 6 5 15 1 5 12 11 7 16 27 31 32 33 37 38 32 28 27 29 27 25 26 26 26 25 24 23 22 22 22 23 25 30 27 23 19 18 17 17 15 16
3 3 7 10 17 22 21 8 7 12 7 8 4 12 6 14 17 26 30 31 33 37 37 32 27 28 28 28 26 25 26 27 25 23 24 24 24 23 23 25 28 25 22 19 17 17 15 14 14
3 3 7 7 14 16 9 8 13 9 10 6 4 7 7 13 39 31 33 31 37 38 37 33 29 29 28 27 25 25 26 27 27 25 25 26 25 23 22 23 23 21 20 19 16 14 13 13 12
0 5 12 16 14 15 10 4 14 11 12 5 5 3 7 30 38 37 35 30 32 37 36 33 30 30 29 29 26 24 25 27 27 26 25 29 27 25 24 23 22 20 19 17 15 13 12 12 11
6 7 18 10 12 13 12 13 11 9 13 9 3 3 24 36 30 30 31 30 30 32 35 33 31 31 29 29 28 25 24 26 28 28 27 28 26 24 23 21 20 20 19 17 14 13 12 10 8
5 15 17 16 11 3 11 12 8 10 10 14 6 12 17 24 26 28 23 33 29 28 32 34 32 31 29 28 28 27 25 25 26 27 27 26 26 24 22 21 19 19 17 16 14 13 11 10 7
7 9 15 17 4 5 11 7 8 10 15 18 7 15 18 22 19 19 28 30 31 31 25 32 34 32 31 27 29 29 27 26 27 27 27 27 26 24 22 21 19 17 15 14 12 11 10 9 7
11 7 8 12 17 16 9 11 3 13 25 19 9 12 21 21 20 24 25 30 34 45 34 27 34 33 32 29 30 29 28 28 27 26 26 25 24 23 21 19 17 16 14 13 12 11 10 7 5
4 9 9 12 15 12 16 5 0 4 20 20 14 16 19 23 21 24 24 26 28 32 41 33 36 37 33 31 31 30 28 28 26 26 25 23 22 22 20 19 17 15 13 11 10 10 9 7 5
5 8 10 12 16 9 12 13 11 8 16 19 8 5 9 21 25 29 36 30 30 30 41 40 37 37 36 34 32 30 28 29 28 27 25 24 22 21 20 18 17 14 13 11 10 10 8 7 7
4 5 5 10 18 12 9 11 8 4 10 13 2 5 5 4 21 28 27 29 29 30 38 44 38 35 39 38 34 31 29 29 28 28 27 25 23 21 20 19 15 14 13 11 11 10 9 7 7
5 6 10 6 19 12 17 6 5 2 16 5 4 2 6 7 4 19 32 34 32 34 34 33 38 38 40 37 36 33 31 28 26 27 28 27 24 23 20 19 17 15 14 13 11 11 10 9 9
3 3 6 7 12 17 15 10 6 3 13 16 4 4 4 7 3 4 16 30 39 35 34 37 38 35 35 34 34 34 31 29 27 27 28 25 24 21 20 18 18 17 16 15 14 14 12 11 10
5 7 12 5 5 13 13 8 9 8 11 16 11 6 3 3 1 4 10 19 32 35 37 36 35 36 36 34 30 29 32 31 28 26 24 23 23 21 20 18 18 19 20 19 17 15 14 13 11
8 9 5 2 5 12 11 6 7 5 6 9 9 11 5 1 1 4 10 16 19 28 30 26 31 36 38 34 34 24 29 31 27 24 25 23 23 22 21 21 20 19 19 18 16 16 12 9 8
9 5 1 3 6 3 10 5 8 6 6 4 6 11 5 3 1 3 5 15 21 23 28 26 25 33 33 29 29 18 20 18 27 26 25 24 23 21 18 20 19 17 16 18 17 16 13 6 2
4 7 2 8 2 1 3 2 4 8 7 6 10 10 5 5 2 2 4 9 18 23 23 20 19 32 36 31 26 18 18 12 16 25 27 24 24 22 20 21 19 16 15 13 11 8 8 9 9
4 6 5 5 4 2 2 3 2 2 3 2 9 6 7 6 4 1 2 5 13 18 23 23 29 25 26 34 34 33 29 30 22 21 24 28 29 23 20 19 16 9 7 10 11 15 15 17 18
6 3 3 4 1 3 4 1 2 4 3 5 4 6 6 7 6 2 1 2 9 11 20 16 19 22 25 29 36 39 37 31 31 28 29 24 23 20 21 18 17 12 17 15 15 15 15 11 13
1 1 2 4 4 2 5 4 0 11 8 6 4 5 10 10 8 4 4 3 10 16 21 28 31 29 23 22 15 15 13 17 21 25 20 20 21 18 18 16 14 9 5 5 5 6 6 9 10
3 1 3 3 2 1 2 3 2 2 6 8 8 9 12 12 9 5 4 3 7 15 15 15 16 15 13 15 16 14 17 17 16 14 9 11 14 12 11 9 7 5 4 4 4 6 6 6 9
2 3 1 4 2 3 3 4 3 8 8 2 8 10 9 11 5 4 5 6 8 15 17 15 13 11 12 12 12 13 14 14 13 12 10 12 12 11 11 9 7 7 7 6 7 8 10 11 10
5 1 3 3 3 4 4 4 5 12 11 8 4 7 7 4 5 5 4 9 10 11 13 12 12 11 9 10 12 13 13 13 14 12 14 14 12 9 8 8 8 6 4 4 4 5 7 9 10
3 3 2 3 2 3 4 0 3 7 6 5 7 5 2 3 5 4 5 6 7 9 11 10 9 8 9 10 10 12 13 14 13 14 13 11 10 9 6 4 3 2 3 4 5 5 5 6 7
1 2 2 3 2 3 3 4 7 7 7 7 7 5 4 2 6 4 3 6 5 8 12 12 10 10 9 11 13 15 15 14 13 11 11 10 9 6 5 5 3 2 2 2 2 3 3 5 6

GFSSGP_925_spd_111.txt.gz
Wind_Speed
3 1 4 4 3 5 15 8 3 4 8 6 8 6 10 4 6 3 1 15 32 36 33 32 30 28 26 25 23 22 26 27 27 27 26 25 25 23 23 24 25 24 24 22 21 22 20 20 20
3 5 2 2 7 12 13 11 10 10 3 5 5 6 5 4 2 5 9 15 31 35 33 31 31 28 26 25 26 26 29 29 28 28 28 28 24 23 24 24 26 25 23 21 21 20 19 19 19
3 5 2 4 9 22 13 15 14 15 11 5 5 4 7 3 2 10 3 24 31 33 32 31 31 27 26 28 26 30 30 29 28 28 28 28 25 23 24 26 26 27 23 21 21 21 19 17 17
3 3 1 8 22 15 15 11 7 11 19 7 4 8 1 11 8 10 16 27 32 31 31 33 31 28 29 30 27 29 31 30 30 30 29 26 25 24 25 29 29 26 23 22 21 20 19 18 17
4 2 5 10 19 16 9 15 7 7 10 13 3 11 7 5 14 16 27 30 33 32 30 32 31 28 30 32 28 29 31 31 32 30 26 24 24 25 26 31 29 25 22 22 20 20 18 19 18
3 3 10 16 17 16 15 13 7 15 12 14 3 6 6 15 21 21 30 29 31 34 34 30 30 29 31 35 30 30 31 32 31 27 25 24 24 25 26 33 27 24 22 21 20 20 18 19 19
4 6 15 17 13 18 13 11 13 14 13 14 9 8 2 8 22 32 33 27 32 33 32 29 28 29 30 33 32 31 30 31 27 25 25 24 25 25 28 30 27 21 20 21 20 19 18 18 18
2 3 17 12 14 24 12 14 10 9 14 8 5 8 8 8 24 38 32 29 32 32 31 29 28 28 27 28 32 31 30 28 26 25 25 25 26 26 30 29 26 21 19 20 19 17 17 16 16
1 7 12 21 14 16 6 16 15 9 13 13 9 7 9 24 28 32 29 28 30 31 32 29 28 27 28 27 29 29 30 27 26 25 25 27 23 24 28 25 25 21 18 18 17 17 16 15 13
6 6 18 18 15 15 16 13 13 14 15 13 14 11 16 25 28 26 28 22 32 32 31 31 30 28 28 26 29 28 29 25 24 24 27 25 25 24 25 25 23 21 19 16 15 15 14 13 11
4 15 19 17 17 8 11 13 13 13 15 15 8 17 12 21 25 27 31 22 31 33 32 30 32 30 29 30 29 29 31 30 28 28 31 28 27 25 26 26 24 23 20 17 15 14 12 10 8
7 11 15 19 14 13 13 10 8 17 20 20 16 12 18 18 21 26 29 29 29 32 31 30 29 31 28 29 29 27 29 30 29 29 30 28 28 26 25 24 23 23 20 17 15 13 12 10 8
14 16 13 12 11 16 15 14 15 16 17 21 17 18 19 20 24 31 39 29 32 28 28 33 34 31 28 25 29 26 24 29 30 29 28 28 28 26 24 23 22 21 19 16 14 12 11 9 7
4 11 15 12 14 10 16 19 9 7 12 10 12 15 20 20 28 31 31 33 25 30 33 35 37 33 30 29 29 29 26 27 29 28 27 26 26 26 24 23 21 19 17 15 13 12 11 8 6
5 7 12 15 13 11 14 15 22 15 8 7 11 15 22 22 30 11 36 42 52 50 40 35 42 39 35 33 33 31 27 28 27 27 26 26 25 24 24 22 20 18 16 14 13 12 10 8 5
5 5 5 4 15 9 13 16 13 13 9 14 7 21 21 25 24 31 35 40 40 35 43 41 38 42 37 35 34 31 27 27 26 27 26 25 24 23 22 21 19 17 15 13 12 12 9 7 5
6 5 9 11 15 8 15 7 6 6 10 9 4 15 19 17 18 27 30 32 33 37 37 39 41 41 41 36 35 32 28 27 28 27 26 26 25 23 21 20 18 17 15 13 12 11 9 7 6
4 4 5 10 4 15 16 11 5 4 8 8 4 15 18 16 15 25 28 31 35 32 30 30 36 41 40 36 32 32 29 27 28 28 28 27 26 24 22 20 19 17 15 15 14 12 9 7 5
11 15 14 14 12 16 18 17 11 9 4 5 9 13 14 18 8 7 30 32 28 26 29 31 30 29 34 34 32 28 27 30 28 28 27 28 26 24 23 20 19 19 17 16 14 11 9 6 5
12 16 16 15 6 13 16 14 4 11 4 4 9 13 10 19 7 6 16 23 25 30 27 26 27 26 27 27 25 21 22 27 29 25 24 25 24 23 22 21 19 19 18 15 13 12 7 5 5
14 10 11 7 11 8 11 5 10 8 11 9 13 9 13 20 6 4 11 23 21 16 14 25 23 24 31 30 29 22 24 18 24 26 25 24 23 24 23 21 19 17 16 16 14 12 10 8 8
6 8 12 11 4 3 2 4 5 11 6 2 7 9 14 17 7 4 7 16 23 21 22 26 24 27 26 26 29 30 29 21 23 25 29 26 24 21 21 19 16 15 11 9 11 11 14 15 12
3 6 2 2 4 2 3 4 1 8 5 9 12 11 15 13 9 6 7 9 16 23 34 30 19 18 34 18 27 26 18 22 25 21 20 20 20 21 23 19 18 17 9 6 10 15 19 17 16
7 4 1 2 2 3 2 2 3 2 6 12 8 7 10 4 8 5 7 11 11 16 21 26 25 32 31 42 20 22 17 16 20 22 21 18 16 24 21 16 19 17 19 13 19 20 18 17 15
2 3 2 2 3 3 4 6 3 4 8 5 10 6 7 5 4 6 6 5 8 15 21 28 33 32 27 25 36 30 24 21 28 27 18 16 21 24 24 19 25 22 15 11 10 11 8 10 10
3 1 1 2 2 2 2 4 3 6 10 7 3 2 8 4 6 6 6 9 14 16 21 23 24 25 24 24 26 14 23 17 26 24 22 25 28 25 25 20 17 14 14 12 10 9 9 8 7
0 3 3 2 2 3 3 5 5 12 9 8 5 7 9 6 7 7 7 9 6 10 15 18 20 20 22 21 20 23 30 33 33 28 28 23 22 21 21 19 18 16 14 12 10 9 9 8 7
4 1 2 3 3 5 3 4 6 14 13 12 7 8 7 8 9 7 6 9 6 7 12 11 17 21 23 23 25 27 27 23 19 21 22 21 20 21 21 20 17 15 13 11 10 9 6 3 4
4 3 3 3 2 3 3 3 5 7 8 8 7 8 3 9 9 7 7 10 6 8 11 13 16 19 18 17 18 20 21 23 22 23 23 23 21 20 20 18 17 15 13 11 9 7 4 3 2
2 1 1 2 1 2 3 4 6 7 6 7 8 7 7 8 5 5 7 6 5 6 10 12 14 16 17 17 19 21 22 22 23 24 22 20 20 19 17 17 16 13 11 10 8 7 4 3 3

GFSSGP_925_spd_114.txt.gz
Wind_Speed
3 4 3 5 8 9 25 25 18 18 11 16 10 10 14 17 10 2 2 18 26 33 33 33 31 28 27 27 28 28 28 29 27 27 26 25 25 25 24 24 23 22 23 23 22 20 20 20 21
4 4 4 3 10 19 21 21 19 18 14 3 16 15 9 17 1 4 9 11 25 31 32 31 32 29 28 27 27 30 29 30 29 28 27 27 26 24 26 25 24 22 22 23 20 19 19 19 20
3 4 5 5 15 26 21 20 18 17 16 6 5 14 16 13 2 6 3 19 28 30 30 30 32 30 29 27 27 31 30 30 29 28 27 28 26 25 26 26 24 22 21 21 19 18 18 17 18
6 5 4 10 25 21 28 20 14 18 25 13 9 9 12 5 9 4 12 23 30 30 29 31 33 30 28 28 29 33 32 31 29 28 29 27 25 26 29 28 25 22 21 20 19 17 17 17 17
6 3 11 17 27 25 20 20 21 18 20 21 20 18 16 6 11 17 16 26 29 30 28 29 32 30 29 29 31 32 32 31 30 30 30 26 27 28 29 28 24 23 21 20 19 18 18 19 18
5 5 12 19 25 22 19 22 19 23 23 14 18 18 15 8 16 22 19 22 26 29 28 29 30 30 31 29 32 33 32 32 32 32 28 26 28 30 31 27 24 23 23 20 19 18 19 19 19
12 11 19 24 24 23 20 18 19 24 23 23 10 21 16 9 20 28 29 20 25 27 28 28 26 28 32 29 30 33 32 33 33 30 27 26 27 31 33 26 25 23 23 21 20 19 19 19 19
7 7 20 20 21 27 19 19 24 25 27 19 13 10 17 8 18 27 35 26 27 28 28 28 27 27 28 26 30 32 33 33 31 27 26 26 26 33 31 26 24 23 24 21 20 20 18 18 17
8 10 14 21 24 24 15 20 21 22 21 22 15 14 16 21 16 27 29 32 28 30 31 31 29 28 30 26 29 32 32 32 29 25 25 25 22 28 26 23 22 22 22 21 19 19 18 16 15
11 13 22 21 20 20 21 12 17 19 25 26 21 20 13 21 21 26 30 30 27 30 31 31 31 29 29 28 30 28 28 26 21 24 23 23 24 25 23 23 21 19 20 18 18 17 17 13 9
9 19 19 21 17 17 21 21 19 19 20 23 24 22 14 12 13 28 27 36 42 31 34 30 29 28 29 28 29 26 25 23 22 21 24 22 23 25 21 24 22 17 17 14 14 15 11 10 8
14 20 18 21 19 19 22 21 23 22 21 20 21 23 19 12 11 15 27 32 35 27 32 32 30 29 27 27 27 26 24 22 22 24 24 24 23 25 23 25 19 18 15 14 13 11 9 9 8
18 19 19 19 19 20 20 25 25 24 21 20 21 18 21 15 14 18 25 33 35 36 34 32 30 30 28 28 26 26 24 23 23 25 24 23 23 24 22 20 20 18 16 14 12 11 10 8 7
13 12 17 17 19 19 22 23 22 28 17 16 17 19 26 20 15 20 19 28 32 31 30 33 32 30 28 27 27 25 24 23 22 23 24 21 22 22 22 21 19 17 15 13 11 10 9 7 5
14 17 18 20 18 21 15 25 28 28 25 19 17 18 28 24 20 21 20 28 37 29 37 33 33 31 29 28 25 24 24 23 22 21 22 21 21 20 19 18 16 15 13 12 10 10 8 7 6
13 12 15 15 12 20 18 25 25 23 23 23 19 18 20 27 19 25 22 16 31 39 36 31 32 34 32 28 29 22 22 22 21 20 20 20 19 18 17 16 15 14 12 11 10 9 8 6 5
7 13 17 16 14 14 21 17 19 11 18 23 19 18 12 16 16 22 20 18 29 43 41 41 36 35 31 30 32 25 22 20 20 19 19 20 18 18 16 14 13 14 12 11 10 9 7 6 4
11 10 15 15 7 10 16 19 7 11 13 14 17 12 10 8 11 17 13 15 32 36 44 43 45 38 33 30 29 23 21 20 20 20 20 20 19 17 15 13 13 13 11 10 10 8 7 5 4
14 17 22 22 20 13 15 18 15 9 9 11 13 8 7 10 13 14 16 31 30 37 42 36 41 41 33 30 29 25 23 21 20 19 19 19 18 17 16 13 12 11 10 10 10 8 7 6 5
19 20 23 23 23 17 15 19 17 13 12 12 13 12 11 12 13 9 15 27 30 40 38 36 32 32 33 30 29 28 23 20 20 20 21 20 20 19 17 14 12 13 11 11 11 10 7 8 9
19 19 21 21 8 14 12 12 14 8 9 11 12 10 11 11 12 9 12 24 29 29 29 31 28 29 31 29 28 22 21 16 17 19 18 19 20 20 18 14 13 13 13 11 10 11 10 10 7
19 7 14 16 10 5 16 6 11 10 10 14 13 12 8 10 7 6 13 23 35 31 37 30 26 28 31 27 27 28 27 22 22 21 19 23 22 20 19 18 15 14 13 13 14 13 15 14 9
6 6 11 13 9 5 12 3 4 12 9 10 7 6 3 8 8 7 14 22 32 35 18 20 26 26 24 26 27 26 22 22 20 19 19 20 21 18 18 16 13 15 14 14 16 17 21 18 10
11 7 5 4 2 5 3 2 3 1 2 3 4 3 3 7 8 10 16 13 25 25 29 15 15 19 21 22 25 28 24 20 20 20 22 19 20 20 16 16 14 15 17 17 18 18 19 18 13
3 6 2 2 3 5 5 9 7 8 2 3 3 11 10 11 8 8 14 13 24 28 29 30 21 14 16 17 14 20 18 10 10 14 20 18 15 13 13 16 16 21 20 22 17 15 14 19 16
3 5 4 4 4 3 5 5 4 10 9 3 4 8 10 11 7 5 13 17 20 25 29 29 29 30 24 16 22 28 18 9 14 9 11 8 6 10 11 11 16 25 26 19 15 15 12 13 12
3 3 4 2 1 2 4 4 6 17 16 11 9 5 6 7 10 8 14 16 18 20 22 24 23 21 25 26 19 19 6 23 13 9 15 18 16 19 16 14 28 27 19 16 15 12 11 10 9
2 3 0 1 3 4 4 6 9 19 16 14 10 3 8 7 7 12 14 15 14 18 23 22 23 26 30 29 23 28 26 32 28 15 24 23 20 19 22 29 24 21 20 17 13 12 12 10 9
4 2 2 1 3 3 3 5 10 10 11 14 8 7 9 12 13 13 13 16 14 14 15 20 18 21 25 29 30 27 27 27 29 32 32 28 26 27 31 27 25 21 19 16 14 12 12 10 9
4 7 4 3 4 5 6 5 10 11 15 12 11 8 8 10 12 9 12 15 15 13 13 14 16 19 20 27 29 26 26 28 28 28 28 27 30 31 30 26 22 20 18 16 14 14 12 9 9

GFSSGP_925_spd_117.txt.gz
Wind_Speed
5 5 7 6 7 9 20 26 21 19 19 18 21 17 19 15 14 2 1 11 17 26 29 30 30 29 28 26 27 27 27 27 26 25 24 24 23 22 22 22 22 22 20 20 17 19 20 21 20
5 5 7 6 10 16 19 21 25 23 14 8 16 19 17 14 5 7 5 7 18 24 28 29 31 31 29 28 25 27 28 27 27 26 25 25 25 24 23 22 23 23 22 19 18 20 21 20 18
4 6 6 5 14 21 17 18 17 20 12 16 11 17 20 17 10 8 4 10 19 24 28 27 31 29 29 28 26 26 27 28 28 27 26 27 26 23 22 21 23 24 22 19 18 19 19 18 17
6 5 5 12 22 19 23 22 24 15 16 21 15 16 18 23 14 10 13 15 19 25 28 28 30 27 28 27 28 26 27 28 28 28 27 27 25 24 25 22 22 21 20 17 17 16 16 17 16
8 6 13 18 27 25 21 16 16 19 16 18 23 20 20 18 6 12 19 20 23 22 26 29 30 29 27 27 28 28 28 28 28 27 28 27 26 26 25 22 20 20 19 17 17 15 16 16 15
7 6 13 18 24 23 20 20 22 23 21 22 25 27 22 18 14 14 21 23 20 22 26 26 30 28 27 26 29 30 29 28 28 28 28 27 25 28 26 22 20 19 19 18 17 16 17 18 18
13 13 19 23 23 23 19 16 18 23 24 25 23 21 20 21 12 19 19 24 23 21 27 27 26 26 26 28 30 31 30 30 28 29 28 25 28 28 26 22 21 19 18 18 18 18 18 18 18
11 12 25 22 21 26 21 22 20 22 27 25 23 24 18 21 11 20 20 30 32 26 27 28 26 24 23 25 31 31 31 30 29 29 27 25 28 28 25 23 22 20 19 19 18 18 18 17 16
9 11 16 22 23 22 19 22 19 21 21 29 24 21 19 7 13 14 22 22 33 32 30 30 28 27 26 25 30 31 31 31 31 29 24 24 23 25 22 21 23 21 19 19 18 17 17 16 14
12 13 22 20 19 19 20 21 23 22 19 26 26 17 25 14 15 20 24 23 24 28 31 30 31 30 29 26 29 31 32 33 32 29 25 21 24 23 23 22 22 22 19 17 17 16 15 12 10
13 18 20 20 19 19 18 20 20 22 22 23 23 26 25 28 11 14 23 27 30 38 37 37 36 34 33 27 30 31 34 30 28 27 23 22 27 23 23 22 19 18 18 14 14 16 9 8 8
19 22 21 21 20 19 20 20 24 24 25 22 25 23 23 23 18 5 8 16 27 32 34 38 36 37 34 31 29 30 29 27 27 27 24 25 26 26 26 24 21 17 16 14 13 10 8 8 7
18 20 22 22 21 20 20 23 26 26 26 24 24 25 22 15 20 9 5 12 26 33 34 36 24 36 35 31 31 28 25 26 25 26 25 26 25 25 25 26 22 17 16 15 13 10 9 8 7
16 19 21 21 19 20 21 24 24 25 27 28 25 25 24 21 15 26 9 17 11 18 38 47 38 37 33 30 33 32 28 28 24 25 24 23 22 23 22 26 19 17 14 13 11 11 9 8 6
14 20 21 21 19 24 23 28 28 33 25 27 28 24 25 21 22 31 17 15 12 20 25 38 31 31 31 29 27 25 29 28 26 27 25 29 21 21 23 22 19 15 13 12 11 10 9 7 6
17 16 19 22 20 23 21 20 27 25 24 27 29 26 21 22 19 29 27 16 17 22 29 45 26 26 33 27 27 25 26 26 26 27 29 27 23 22 19 17 16 15 13 12 10 10 9 7 6
14 15 21 22 21 19 16 17 23 23 20 26 25 27 22 18 15 18 14 17 12 18 21 46 42 31 35 28 26 26 27 25 26 26 25 27 24 22 19 18 17 16 13 11 10 9 8 7 5
14 14 19 20 20 12 20 19 23 21 20 21 24 22 19 19 11 14 6 11 11 12 18 35 42 34 33 34 29 24 26 25 24 24 26 26 24 23 20 17 15 14 12 10 9 8 7 6 6
16 19 23 23 22 22 22 19 20 22 14 17 17 15 17 14 12 11 9 6 7 14 18 23 39 39 33 34 28 28 26 25 25 24 25 27 25 23 20 17 16 14 12 11 10 10 10 8 7
18 21 26 25 22 19 22 25 15 17 16 15 14 14 16 14 15 12 6 4 17 14 18 17 33 36 34 33 28 31 27 25 26 24 25 26 24 23 20 18 17 15 13 13 13 12 9 9 9
19 20 25 24 24 21 23 24 19 18 20 14 11 12 15 16 16 12 7 5 24 17 23 32 27 35 33 33 27 25 24 22 24 23 23 24 22 23 21 19 17 16 14 15 13 12 11 9 8
20 20 25 24 17 13 13 5 16 16 12 13 15 12 14 16 14 11 7 8 20 26 24 34 38 31 35 33 29 28 25 23 21 21 21 22 22 23 22 20 19 16 18 13 12 11 11 11 4
11 13 11 13 10 8 12 6 2 14 9 10 9 12 11 12 12 9 9 13 24 20 23 26 39 44 37 37 32 31 24 22 23 22 22 20 22 22 23 24 19 16 15 12 10 11 12 8 5
15 10 14 7 4 5 8 10 3 1 9 8 5 5 0 3 7 10 13 14 19 22 15 11 24 29 35 34 32 29 25 24 25 23 22 20 21 20 20 19 18 17 14 13 9 6 6 10 12
6 11 3 5 6 1 0 6 5 7 5 5 9 9 7 3 1 7 11 11 20 22 19 18 3 17 22 22 25 22 21 23 22 25 24 24 21 23 22 21 17 16 15 14 14 10 16 17 15
8 6 4 5 3 4 9 5 6 9 3 14 10 7 7 12 10 5 8 7 24 25 25 17 19 12 12 15 16 22 19 18 16 14 24 22 21 19 19 19 17 17 17 14 13 16 17 19 18
7 5 9 6 2 2 3 1 5 16 15 15 11 8 13 14 13 9 7 8 24 25 30 30 25 25 21 15 11 11 11 4 10 12 12 23 20 16 16 14 16 14 17 16 18 22 19 13 11
4 9 3 1 6 4 5 6 7 14 15 13 14 13 14 15 14 12 3 13 23 24 27 24 23 22 20 22 23 22 17 22 25 24 20 13 14 10 13 10 10 15 14 18 23 18 14 14 12
4 3 5 4 3 4 3 5 9 13 11 12 12 12 14 14 13 10 7 15 21 19 21 21 17 16 27 26 29 27 25 24 18 21 30 26 16 16 15 19 20 16 18 21 20 19 18 13 13
7 9 4 4 5 6 6 6 11 15 15 14 15 15 13 12 13 12 10 15 19 16 16 13 10 14 20 20 24 20 21 22 25 25 29 26 26 25 31 26 29 29 26 24 20 17 16 14 12